Wetterdaten: Freitag, 15.01.2021
Datum Zeit Temp. 2m Temp +5 cm Feuchte A. Luftdruck Regen Wind Richtung Richtung Sonnenschein UV Solar Taupunkt Windchill Windben
15.01.2021 00:00 -2,7 C -2,8 C 90 % 1020,4 hPa 0,0 l/m 16,1 km/h (3 Bft) N-NO 22 0 min 0,0 UV-I 0 W/m -4,1 C -10,9 C 19,3 km/h (3 Bft)
15.01.2021 00:01 -2,7 C -2,8 C 90 % 1020,5 hPa 0,0 l/m 14,5 km/h (3 Bft) NO 45 0 min 0,0 UV-I 0 W/m -4,1 C -9,9 C 17,7 km/h (3 Bft)
15.01.2021 00:02 -2,7 C -3,3 C 90 % 1020,4 hPa 0,0 l/m 14,5 km/h (3 Bft) NO 45 0 min 0,0 UV-I 0 W/m -4,1 C -9,9 C 19,3 km/h (3 Bft)
15.01.2021 00:03 -2,7 C -3,3 C 90 % 1020,4 hPa 0,0 l/m 12,9 km/h (3 Bft) NO 45 0 min 0,0 UV-I 0 W/m -4,1 C -8,8 C 19,3 km/h (3 Bft)
15.01.2021 00:04 -2,7 C -3,3 C 90 % 1020,4 hPa 0,0 l/m 14,5 km/h (3 Bft) NO 45 0 min 0,0 UV-I 0 W/m -4,1 C -9,9 C 17,7 km/h (3 Bft)
15.01.2021 00:05 -2,8 C -3,3 C 90 % 1020,4 hPa 0,0 l/m 12,9 km/h (3 Bft) NO 45 0 min 0,0 UV-I 0 W/m -4,2 C -8,9 C 16,1 km/h (3 Bft)
15.01.2021 00:06 -2,8 C -3,3 C 90 % 1020,5 hPa 0,0 l/m 12,9 km/h (3 Bft) NO 45 0 min 0,0 UV-I 0 W/m -4,2 C -8,9 C 16,1 km/h (3 Bft)
15.01.2021 00:07 -2,8 C -3,3 C 90 % 1020,5 hPa 0,0 l/m 14,5 km/h (3 Bft) NO 45 0 min 0,0 UV-I 0 W/m -4,2 C -10,0 C 19,3 km/h (3 Bft)
15.01.2021 00:08 -2,8 C -3,3 C 90 % 1020,4 hPa 0,0 l/m 17,7 km/h (3 Bft) NO 45 0 min 0,0 UV-I 0 W/m -4,2 C -12,0 C 22,5 km/h (4 Bft)
15.01.2021 00:09 -2,8 C -3,3 C 90 % 1020,5 hPa 0,0 l/m 16,1 km/h (3 Bft) NO 45 0 min 0,0 UV-I 0 W/m -4,2 C -11,1 C 20,9 km/h (4 Bft)
15.01.2021 00:10 -2,8 C -3,3 C 90 % 1020,5 hPa 0,0 l/m 16,1 km/h (3 Bft) NO 45 0 min 0,0 UV-I 0 W/m -4,2 C -11,1 C 20,9 km/h (4 Bft)
15.01.2021 00:11 -2,8 C -3,3 C 89 % 1020,4 hPa 0,0 l/m 12,9 km/h (3 Bft) NO 45 0 min 0,0 UV-I 0 W/m -4,4 C -8,9 C 16,1 km/h (3 Bft)
15.01.2021 00:12 -2,8 C -3,3 C 90 % 1020,4 hPa 0,0 l/m 17,7 km/h (3 Bft) NO 45 0 min 0,0 UV-I 0 W/m -4,2 C -12,0 C 22,5 km/h (4 Bft)
15.01.2021 00:13 -2,8 C -3,3 C 90 % 1020,4 hPa 0,0 l/m 14,5 km/h (3 Bft) NO 45 0 min 0,0 UV-I 0 W/m -4,2 C -10,0 C 17,7 km/h (3 Bft)
15.01.2021 00:14 -2,9 C -3,3 C 89 % 1020,5 hPa 0,0 l/m 11,3 km/h (2 Bft) NO 45 0 min 0,0 UV-I 0 W/m -4,5 C -7,8 C 16,1 km/h (3 Bft)
15.01.2021 00:15 -2,9 C -3,3 C 90 % 1020,4 hPa 0,0 l/m 12,9 km/h (3 Bft) NO 45 0 min 0,0 UV-I 0 W/m -4,3 C -9,0 C 16,1 km/h (3 Bft)
15.01.2021 00:16 -2,9 C -3,3 C 89 % 1020,4 hPa 0,0 l/m 12,9 km/h (3 Bft) NO 45 0 min 0,0 UV-I 0 W/m -4,5 C -9,0 C 17,7 km/h (3 Bft)
15.01.2021 00:17 -2,9 C -3,3 C 89 % 1020,4 hPa 0,0 l/m 11,3 km/h (2 Bft) NO 45 0 min 0,0 UV-I 0 W/m -4,5 C -7,8 C 16,1 km/h (3 Bft)
15.01.2021 00:18 -2,9 C -3,3 C 89 % 1020,4 hPa 0,0 l/m 12,9 km/h (3 Bft) O-NO 67 0 min 0,0 UV-I 0 W/m -4,5 C -9,0 C 16,1 km/h (3 Bft)
15.01.2021 00:19 -2,9 C -3,3 C 89 % 1020,4 hPa 0,0 l/m 14,5 km/h (3 Bft) O-NO 67 0 min 0,0 UV-I 0 W/m -4,5 C -10,2 C 17,7 km/h (3 Bft)
15.01.2021 00:20 -2,9 C -3,3 C 89 % 1020,4 hPa 0,0 l/m 14,5 km/h (3 Bft) NO 45 0 min 0,0 UV-I 0 W/m -4,5 C -10,2 C 17,7 km/h (3 Bft)
15.01.2021 00:21 -2,9 C -3,3 C 89 % 1020,4 hPa 0,0 l/m 12,9 km/h (3 Bft) O-NO 67 0 min 0,0 UV-I 0 W/m -4,5 C -9,0 C 16,1 km/h (3 Bft)
15.01.2021 00:22 -2,9 C -3,3 C 89 % 1020,5 hPa 0,0 l/m 9,7 km/h (2 Bft) NO 45 0 min 0,0 UV-I 0 W/m -4,5 C -6,4 C 19,3 km/h (3 Bft)
15.01.2021 00:23 -2,9 C -3,3 C 89 % 1020,5 hPa 0,0 l/m 11,3 km/h (2 Bft) NO 45 0 min 0,0 UV-I 0 W/m -4,5 C -7,8 C 16,1 km/h (3 Bft)
15.01.2021 00:24 -2,9 C -3,3 C 89 % 1020,4 hPa 0,0 l/m 12,9 km/h (3 Bft) NO 45 0 min 0,0 UV-I 0 W/m -4,5 C -9,0 C 17,7 km/h (3 Bft)
15.01.2021 00:25 -2,9 C -3,3 C 89 % 1020,5 hPa 0,0 l/m 9,7 km/h (2 Bft) NO 45 0 min 0,0 UV-I 0 W/m -4,5 C -6,4 C 14,5 km/h (3 Bft)
15.01.2021 00:26 -2,9 C -3,3 C 89 % 1020,5 hPa 0,0 l/m 9,7 km/h (2 Bft) NO 45 0 min 0,0 UV-I 0 W/m -4,5 C -6,4 C 14,5 km/h (3 Bft)
15.01.2021 00:27 -3,0 C -3,3 C 89 % 1020,4 hPa 0,0 l/m 14,5 km/h (3 Bft) NO 45 0 min 0,0 UV-I 0 W/m -4,6 C -10,3 C 19,3 km/h (3 Bft)
15.01.2021 00:28 -3,0 C -3,3 C 89 % 1020,5 hPa 0,0 l/m 9,7 km/h (2 Bft) NO 45 0 min 0,0 UV-I 0 W/m -4,6 C -6,5 C 14,5 km/h (3 Bft)
15.01.2021 00:29 -3,0 C -3,3 C 89 % 1020,5 hPa 0,0 l/m 9,7 km/h (2 Bft) NO 45 0 min 0,0 UV-I 0 W/m -4,6 C -6,5 C 14,5 km/h (3 Bft)
15.01.2021 00:30 -3,0 C -3,3 C 89 % 1020,5 hPa 0,0 l/m 11,3 km/h (2 Bft) NO 45 0 min 0,0 UV-I 0 W/m -4,6 C -7,9 C 17,7 km/h (3 Bft)
15.01.2021 00:31 -3,0 C -3,3 C 89 % 1020,5 hPa 0,0 l/m 11,3 km/h (2 Bft) NO 45 0 min 0,0 UV-I 0 W/m -4,6 C -7,9 C 16,1 km/h (3 Bft)
15.01.2021 00:32 -3,0 C -3,3 C 89 % 1020,5 hPa 0,0 l/m 19,3 km/h (3 Bft) NO 45 0 min 0,0 UV-I 0 W/m -4,6 C -13,1 C 22,5 km/h (4 Bft)
15.01.2021 00:33 -3,0 C -3,3 C 89 % 1020,6 hPa 0,0 l/m 17,7 km/h (3 Bft) NO 45 0 min 0,0 UV-I 0 W/m -4,6 C -12,3 C 24,1 km/h (4 Bft)
15.01.2021 00:34 -3,0 C -3,3 C 89 % 1020,5 hPa 0,0 l/m 17,7 km/h (3 Bft) NO 45 0 min 0,0 UV-I 0 W/m -4,6 C -12,3 C 24,1 km/h (4 Bft)
15.01.2021 00:35 -3,0 C -3,3 C 89 % 1020,5 hPa 0,0 l/m 17,7 km/h (3 Bft) NO 45 0 min 0,0 UV-I 0 W/m -4,6 C -12,3 C 20,9 km/h (4 Bft)
15.01.2021 00:36 -3,0 C -3,3 C 89 % 1020,5 hPa 0,0 l/m 17,7 km/h (3 Bft) NO 45 0 min 0,0 UV-I 0 W/m -4,6 C -12,3 C 22,5 km/h (4 Bft)
15.01.2021 00:37 -3,0 C -3,3 C 89 % 1020,6 hPa 0,0 l/m 16,1 km/h (3 Bft) NO 45 0 min 0,0 UV-I 0 W/m -4,6 C -11,3 C 19,3 km/h (3 Bft)
15.01.2021 00:38 -3,0 C -3,3 C 89 % 1020,5 hPa 0,0 l/m 16,1 km/h (3 Bft) NO 45 0 min 0,0 UV-I 0 W/m -4,6 C -11,3 C 22,5 km/h (4 Bft)
15.01.2021 00:39 -3,0 C -3,3 C 89 % 1020,5 hPa 0,0 l/m 16,1 km/h (3 Bft) NO 45 0 min 0,0 UV-I 0 W/m -4,6 C -11,3 C 20,9 km/h (4 Bft)
15.01.2021 00:40 -3,0 C -3,3 C 89 % 1020,5 hPa 0,0 l/m 16,1 km/h (3 Bft) NO 45 0 min 0,0 UV-I 0 W/m -4,6 C -11,3 C 20,9 km/h (4 Bft)
15.01.2021 00:41 -3,0 C -3,3 C 89 % 1020,5 hPa 0,0 l/m 14,5 km/h (3 Bft) O-NO 67 0 min 0,0 UV-I 0 W/m -4,6 C -10,3 C 17,7 km/h (3 Bft)
15.01.2021 00:42 -3,0 C -3,3 C 89 % 1020,5 hPa 0,0 l/m 11,3 km/h (2 Bft) NO 45 0 min 0,0 UV-I 0 W/m -4,6 C -7,9 C 17,7 km/h (3 Bft)
15.01.2021 00:43 -3,1 C -3,3 C 89 % 1020,5 hPa 0,0 l/m 16,1 km/h (3 Bft) NO 45 0 min 0,0 UV-I 0 W/m -4,6 C -11,4 C 20,9 km/h (4 Bft)
15.01.2021 00:44 -3,0 C -3,3 C 89 % 1020,4 hPa 0,0 l/m 19,3 km/h (3 Bft) NO 45 0 min 0,0 UV-I 0 W/m -4,6 C -13,1 C 25,7 km/h (4 Bft)
15.01.2021 00:45 -3,1 C -3,3 C 89 % 1020,5 hPa 0,0 l/m 16,1 km/h (3 Bft) NO 45 0 min 0,0 UV-I 0 W/m -4,6 C -11,4 C 25,7 km/h (4 Bft)
15.01.2021 00:46 -3,1 C -3,3 C 89 % 1020,6 hPa 0,0 l/m 16,1 km/h (3 Bft) NO 45 0 min 0,0 UV-I 0 W/m -4,6 C -11,4 C 19,3 km/h (3 Bft)
15.01.2021 00:47 -3,1 C -3,3 C 89 % 1020,5 hPa 0,0 l/m 14,5 km/h (3 Bft) NO 45 0 min 0,0 UV-I 0 W/m -4,6 C -10,4 C 19,3 km/h (3 Bft)
15.01.2021 00:48 -3,0 C -3,3 C 89 % 1020,5 hPa 0,0 l/m 17,7 km/h (3 Bft) NO 45 0 min 0,0 UV-I 0 W/m -4,6 C -12,3 C 20,9 km/h (4 Bft)
15.01.2021 00:49 -3,1 C -3,3 C 88 % 1020,4 hPa 0,0 l/m 17,7 km/h (3 Bft) NO 45 0 min 0,0 UV-I 0 W/m -4,8 C -12,4 C 22,5 km/h (4 Bft)
15.01.2021 00:50 -3,1 C -3,3 C 88 % 1020,5 hPa 0,0 l/m 16,1 km/h (3 Bft) NO 45 0 min 0,0 UV-I 0 W/m -4,8 C -11,4 C 19,3 km/h (3 Bft)
15.01.2021 00:51 -3,1 C -3,3 C 88 % 1020,4 hPa 0,0 l/m 14,5 km/h (3 Bft) NO 45 0 min 0,0 UV-I 0 W/m -4,8 C -10,4 C 19,3 km/h (3 Bft)
15.01.2021 00:52 -3,1 C -3,3 C 88 % 1020,4 hPa 0,0 l/m 16,1 km/h (3 Bft) NO 45 0 min 0,0 UV-I 0 W/m -4,8 C -11,4 C 19,3 km/h (3 Bft)
15.01.2021 00:53 -3,1 C -3,3 C 88 % 1020,5 hPa 0,0 l/m 16,1 km/h (3 Bft) NO 45 0 min 0,0 UV-I 0 W/m -4,8 C -11,4 C 19,3 km/h (3 Bft)
15.01.2021 00:54 -3,1 C -3,3 C 89 % 1020,5 hPa 0,0 l/m 12,9 km/h (3 Bft) NO 45 0 min 0,0 UV-I 0 W/m -4,6 C -9,3 C 16,1 km/h (3 Bft)
15.01.2021 00:55 -3,1 C -3,3 C 88 % 1020,5 hPa 0,0 l/m 17,7 km/h (3 Bft) NO 45 0 min 0,0 UV-I 0 W/m -4,8 C -12,4 C 22,5 km/h (4 Bft)
15.01.2021 00:56 -3,1 C -3,3 C 89 % 1020,5 hPa 0,0 l/m 17,7 km/h (3 Bft) NO 45 0 min 0,0 UV-I 0 W/m -4,6 C -12,4 C 22,5 km/h (4 Bft)
15.01.2021 00:57 -3,1 C -3,3 C 89 % 1020,6 hPa 0,0 l/m 16,1 km/h (3 Bft) NO 45 0 min 0,0 UV-I 0 W/m -4,6 C -11,4 C 19,3 km/h (3 Bft)
15.01.2021 00:58 -3,1 C -3,3 C 89 % 1020,6 hPa 0,0 l/m 14,5 km/h (3 Bft) NO 45 0 min 0,0 UV-I 0 W/m -4,6 C -10,4 C 19,3 km/h (3 Bft)
15.01.2021 00:59 -3,1 C -3,3 C 89 % 1020,6 hPa 0,0 l/m 16,1 km/h (3 Bft) NO 45 0 min 0,0 UV-I 0 W/m -4,6 C -11,4 C 20,9 km/h (4 Bft)
15.01.2021 01:00 -3,1 C -3,3 C 89 % 1020,7 hPa 0,0 l/m 14,5 km/h (3 Bft) NO 45 0 min 0,0 UV-I 0 W/m -4,6 C -10,4 C 19,3 km/h (3 Bft)
15.01.2021 01:01 -3,1 C -3,3 C 89 % 1020,6 hPa 0,0 l/m 17,7 km/h (3 Bft) NO 45 0 min 0,0 UV-I 0 W/m -4,6 C -12,4 C 22,5 km/h (4 Bft)
15.01.2021 01:02 -3,2 C -3,3 C 89 % 1020,6 hPa 0,0 l/m 16,1 km/h (3 Bft) NO 45 0 min 0,0 UV-I 0 W/m -4,7 C -11,6 C 22,5 km/h (4 Bft)
15.01.2021 01:03 -3,1 C -3,3 C 89 % 1020,7 hPa 0,0 l/m 17,7 km/h (3 Bft) NO 45 0 min 0,0 UV-I 0 W/m -4,6 C -12,4 C 22,5 km/h (4 Bft)
15.01.2021 01:04 -3,1 C -3,3 C 89 % 1020,7 hPa 0,0 l/m 14,5 km/h (3 Bft) NO 45 0 min 0,0 UV-I 0 W/m -4,6 C -10,4 C 19,3 km/h (3 Bft)
15.01.2021 01:05 -3,1 C -3,3 C 89 % 1020,7 hPa 0,0 l/m 16,1 km/h (3 Bft) NO 45 0 min 0,0 UV-I 0 W/m -4,6 C -11,4 C 19,3 km/h (3 Bft)
15.01.2021 01:06 -3,2 C -3,3 C 89 % 1020,8 hPa 0,0 l/m 16,1 km/h (3 Bft) NO 45 0 min 0,0 UV-I 0 W/m -4,7 C -11,6 C 19,3 km/h (3 Bft)
15.01.2021 01:07 -3,2 C -3,3 C 89 % 1020,9 hPa 0,0 l/m 14,5 km/h (3 Bft) NO 45 0 min 0,0 UV-I 0 W/m -4,7 C -10,5 C 17,7 km/h (3 Bft)
15.01.2021 01:08 -3,2 C -3,3 C 89 % 1020,7 hPa 0,0 l/m 17,7 km/h (3 Bft) NO 45 0 min 0,0 UV-I 0 W/m -4,7 C -12,5 C 19,3 km/h (3 Bft)
15.01.2021 01:09 -3,2 C -3,3 C 89 % 1020,7 hPa 0,0 l/m 14,5 km/h (3 Bft) NO 45 0 min 0,0 UV-I 0 W/m -4,7 C -10,5 C 20,9 km/h (4 Bft)
15.01.2021 01:10 -3,2 C -3,3 C 89 % 1020,9 hPa 0,0 l/m 16,1 km/h (3 Bft) NO 45 0 min 0,0 UV-I 0 W/m -4,7 C -11,6 C 24,1 km/h (4 Bft)
15.01.2021 01:11 -3,2 C -3,3 C 89 % 1020,8 hPa 0,0 l/m 16,1 km/h (3 Bft) NO 45 0 min 0,0 UV-I 0 W/m -4,7 C -11,6 C 20,9 km/h (4 Bft)
15.01.2021 01:12 -3,2 C -3,3 C 88 % 1020,9 hPa 0,0 l/m 16,1 km/h (3 Bft) NO 45 0 min 0,0 UV-I 0 W/m -4,9 C -11,6 C 20,9 km/h (4 Bft)
15.01.2021 01:13 -3,2 C -3,3 C 88 % 1020,9 hPa 0,0 l/m 16,1 km/h (3 Bft) NO 45 0 min 0,0 UV-I 0 W/m -4,9 C -11,6 C 19,3 km/h (3 Bft)
15.01.2021 01:14 -3,2 C -3,3 C 88 % 1020,8 hPa 0,0 l/m 16,1 km/h (3 Bft) NO 45 0 min 0,0 UV-I 0 W/m -4,9 C -11,6 C 19,3 km/h (3 Bft)
15.01.2021 01:15 -3,2 C -3,3 C 88 % 1020,9 hPa 0,0 l/m 16,1 km/h (3 Bft) NO 45 0 min 0,0 UV-I 0 W/m -4,9 C -11,6 C 20,9 km/h (4 Bft)
15.01.2021 01:16 -3,2 C -3,3 C 88 % 1020,9 hPa 0,0 l/m 16,1 km/h (3 Bft) NO 45 0 min 0,0 UV-I 0 W/m -4,9 C -11,6 C 19,3 km/h (3 Bft)
15.01.2021 01:17 -3,2 C -3,3 C 88 % 1021,0 hPa 0,0 l/m 14,5 km/h (3 Bft) NO 45 0 min 0,0 UV-I 0 W/m -4,9 C -10,5 C 17,7 km/h (3 Bft)
15.01.2021 01:18 -3,2 C -3,3 C 88 % 1021,0 hPa 0,0 l/m 16,1 km/h (3 Bft) NO 45 0 min 0,0 UV-I 0 W/m -4,9 C -11,6 C 20,9 km/h (4 Bft)
15.01.2021 01:19 -3,3 C -3,3 C 88 % 1021,0 hPa 0,0 l/m 14,5 km/h (3 Bft) NO 45 0 min 0,0 UV-I 0 W/m -5,0 C -10,6 C 17,7 km/h (3 Bft)
15.01.2021 01:20 -3,2 C -3,3 C 88 % 1020,9 hPa 0,0 l/m 19,3 km/h (3 Bft) NO 45 0 min 0,0 UV-I 0 W/m -4,9 C -13,4 C 22,5 km/h (4 Bft)
15.01.2021 01:21 -3,3 C -3,3 C 89 % 1020,9 hPa 0,0 l/m 17,7 km/h (3 Bft) NO 45 0 min 0,0 UV-I 0 W/m -4,8 C -12,6 C 20,9 km/h (4 Bft)
15.01.2021 01:22 -3,3 C -3,3 C 89 % 1021,0 hPa 0,0 l/m 16,1 km/h (3 Bft) NO 45 0 min 0,0 UV-I 0 W/m -4,8 C -11,7 C 19,3 km/h (3 Bft)
15.01.2021 01:23 -3,3 C -3,3 C 89 % 1021,0 hPa 0,0 l/m 14,5 km/h (3 Bft) NO 45 0 min 0,0 UV-I 0 W/m -4,8 C -10,6 C 20,9 km/h (4 Bft)
15.01.2021 01:24 -3,3 C -3,3 C 89 % 1020,9 hPa 0,0 l/m 14,5 km/h (3 Bft) NO 45 0 min 0,0 UV-I 0 W/m -4,8 C -10,6 C 22,5 km/h (4 Bft)
15.01.2021 01:25 -3,3 C -3,3 C 89 % 1021,0 hPa 0,0 l/m 14,5 km/h (3 Bft) NO 45 0 min 0,0 UV-I 0 W/m -4,8 C -10,6 C 22,5 km/h (4 Bft)
15.01.2021 01:26 -3,3 C -3,3 C 89 % 1020,9 hPa 0,0 l/m 17,7 km/h (3 Bft) NO 45 0 min 0,0 UV-I 0 W/m -4,8 C -12,6 C 22,5 km/h (4 Bft)
15.01.2021 01:27 -3,3 C -3,3 C 88 % 1021,0 hPa 0,0 l/m 20,9 km/h (4 Bft) NO 45 0 min 0,0 UV-I 0 W/m -5,0 C -14,3 C 24,1 km/h (4 Bft)
15.01.2021 01:28 -3,3 C -3,3 C 89 % 1021,1 hPa 0,0 l/m 20,9 km/h (4 Bft) NO 45 0 min 0,0 UV-I 0 W/m -4,8 C -14,3 C 24,1 km/h (4 Bft)
15.01.2021 01:29 -3,3 C -3,3 C 89 % 1021,0 hPa 0,0 l/m 17,7 km/h (3 Bft) NO 45 0 min 0,0 UV-I 0 W/m -4,8 C -12,6 C 19,3 km/h (3 Bft)
15.01.2021 01:30 -3,3 C -3,3 C 89 % 1021,0 hPa 0,0 l/m 12,9 km/h (3 Bft) NO 45 0 min 0,0 UV-I 0 W/m -4,8 C -9,5 C 17,7 km/h (3 Bft)
15.01.2021 01:31 -3,3 C -3,3 C 89 % 1021,0 hPa 0,0 l/m 14,5 km/h (3 Bft) NO 45 0 min 0,0 UV-I 0 W/m -4,8 C -10,6 C 20,9 km/h (4 Bft)
15.01.2021 01:32 -3,3 C -3,3 C 89 % 1021,0 hPa 0,0 l/m 12,9 km/h (3 Bft) NO 45 0 min 0,0 UV-I 0 W/m -4,8 C -9,5 C 17,7 km/h (3 Bft)
15.01.2021 01:33 -3,3 C -3,3 C 89 % 1021,0 hPa 0,0 l/m 16,1 km/h (3 Bft) NO 45 0 min 0,0 UV-I 0 W/m -4,8 C -11,7 C 20,9 km/h (4 Bft)
15.01.2021 01:34 -3,3 C -3,3 C 89 % 1021,0 hPa 0,0 l/m 12,9 km/h (3 Bft) NO 45 0 min 0,0 UV-I 0 W/m -4,8 C -9,5 C 16,1 km/h (3 Bft)
15.01.2021 01:35 -3,3 C -3,3 C 89 % 1021,1 hPa 0,0 l/m 12,9 km/h (3 Bft) NO 45 0 min 0,0 UV-I 0 W/m -4,8 C -9,5 C 17,7 km/h (3 Bft)
15.01.2021 01:36 -3,3 C -3,3 C 89 % 1021,1 hPa 0,0 l/m 11,3 km/h (2 Bft) NO 45 0 min 0,0 UV-I 0 W/m -4,8 C -8,2 C 16,1 km/h (3 Bft)
15.01.2021 01:37 -3,3 C -3,3 C 89 % 1021,1 hPa 0,0 l/m 9,7 km/h (2 Bft) NO 45 0 min 0,0 UV-I 0 W/m -4,8 C -6,8 C 14,5 km/h (3 Bft)
15.01.2021 01:38 -3,3 C -3,9 C 89 % 1021,1 hPa 0,0 l/m 9,7 km/h (2 Bft) NO 45 0 min 0,0 UV-I 0 W/m -4,8 C -6,8 C 11,3 km/h (2 Bft)
15.01.2021 01:39 -3,3 C -3,9 C 89 % 1021,0 hPa 0,0 l/m 9,7 km/h (2 Bft) NO 45 0 min 0,0 UV-I 0 W/m -4,8 C -6,8 C 14,5 km/h (3 Bft)
15.01.2021 01:40 -3,4 C -3,9 C 89 % 1021,1 hPa 0,0 l/m 14,5 km/h (3 Bft) NO 45 0 min 0,0 UV-I 0 W/m -4,9 C -10,8 C 19,3 km/h (3 Bft)
15.01.2021 01:41 -3,4 C -3,9 C 89 % 1021,1 hPa 0,0 l/m 14,5 km/h (3 Bft) NO 45 0 min 0,0 UV-I 0 W/m -4,9 C -10,8 C 19,3 km/h (3 Bft)
15.01.2021 01:42 -3,4 C -3,9 C 89 % 1021,1 hPa 0,0 l/m 16,1 km/h (3 Bft) NO 45 0 min 0,0 UV-I 0 W/m -4,9 C -11,8 C 22,5 km/h (4 Bft)
15.01.2021 01:43 -3,4 C -3,9 C 89 % 1021,1 hPa 0,0 l/m 16,1 km/h (3 Bft) NO 45 0 min 0,0 UV-I 0 W/m -4,9 C -11,8 C 20,9 km/h (4 Bft)
15.01.2021 01:44 -3,4 C -3,9 C 89 % 1021,1 hPa 0,0 l/m 17,7 km/h (3 Bft) NO 45 0 min 0,0 UV-I 0 W/m -4,9 C -12,8 C 20,9 km/h (4 Bft)
15.01.2021 01:45 -3,4 C -3,9 C 89 % 1021,1 hPa 0,0 l/m 14,5 km/h (3 Bft) NO 45 0 min 0,0 UV-I 0 W/m -4,9 C -10,8 C 17,7 km/h (3 Bft)
15.01.2021 01:46 -3,4 C -3,9 C 89 % 1021,1 hPa 0,0 l/m 16,1 km/h (3 Bft) NO 45 0 min 0,0 UV-I 0 W/m -4,9 C -11,8 C 19,3 km/h (3 Bft)
15.01.2021 01:47 -3,4 C -3,9 C 89 % 1021,1 hPa 0,0 l/m 14,5 km/h (3 Bft) NO 45 0 min 0,0 UV-I 0 W/m -4,9 C -10,8 C 19,3 km/h (3 Bft)
15.01.2021 01:48 -3,4 C -3,9 C 89 % 1021,1 hPa 0,0 l/m 14,5 km/h (3 Bft) NO 45 0 min 0,0 UV-I 0 W/m -4,9 C -10,8 C 19,3 km/h (3 Bft)
15.01.2021 01:49 -3,4 C -3,9 C 89 % 1021,1 hPa 0,0 l/m 12,9 km/h (3 Bft) NO 45 0 min 0,0 UV-I 0 W/m -4,9 C -9,6 C 16,1 km/h (3 Bft)
15.01.2021 01:50 -3,4 C -3,9 C 89 % 1021,2 hPa 0,0 l/m 16,1 km/h (3 Bft) NO 45 0 min 0,0 UV-I 0 W/m -4,9 C -11,8 C 17,7 km/h (3 Bft)
15.01.2021 01:51 -3,4 C -3,9 C 89 % 1021,1 hPa 0,0 l/m 12,9 km/h (3 Bft) NO 45 0 min 0,0 UV-I 0 W/m -4,9 C -9,6 C 19,3 km/h (3 Bft)
15.01.2021 01:52 -3,4 C -3,9 C 89 % 1021,2 hPa 0,0 l/m 19,3 km/h (3 Bft) NO 45 0 min 0,0 UV-I 0 W/m -4,9 C -13,7 C 22,5 km/h (4 Bft)
15.01.2021 01:53 -3,5 C -3,9 C 89 % 1021,1 hPa 0,0 l/m 16,1 km/h (3 Bft) NO 45 0 min 0,0 UV-I 0 W/m -5,0 C -11,9 C 19,3 km/h (3 Bft)
15.01.2021 01:54 -3,5 C -3,9 C 89 % 1021,2 hPa 0,0 l/m 12,9 km/h (3 Bft) NO 45 0 min 0,0 UV-I 0 W/m -5,0 C -9,7 C 17,7 km/h (3 Bft)
15.01.2021 01:55 -3,5 C -3,9 C 89 % 1021,2 hPa 0,0 l/m 16,1 km/h (3 Bft) NO 45 0 min 0,0 UV-I 0 W/m -5,0 C -11,9 C 20,9 km/h (4 Bft)
15.01.2021 01:56 -3,5 C -3,9 C 89 % 1021,2 hPa 0,0 l/m 11,3 km/h (2 Bft) NO 45 0 min 0,0 UV-I 0 W/m -5,0 C -8,5 C 17,7 km/h (3 Bft)
15.01.2021 01:57 -3,5 C -3,9 C 89 % 1021,2 hPa 0,0 l/m 9,7 km/h (2 Bft) NO 45 0 min 0,0 UV-I 0 W/m -5,0 C -7,0 C 12,9 km/h (3 Bft)
15.01.2021 01:58 -3,5 C -3,9 C 89 % 1021,3 hPa 0,0 l/m 9,7 km/h (2 Bft) NO 45 0 min 0,0 UV-I 0 W/m -5,0 C -7,0 C 14,5 km/h (3 Bft)
15.01.2021 01:59 -3,5 C -3,9 C 89 % 1021,2 hPa 0,0 l/m 8,0 km/h (2 Bft) NO 45 0 min 0,0 UV-I 0 W/m -5,0 C -5,3 C 14,5 km/h (3 Bft)
15.01.2021 02:00 -3,6 C -3,9 C 89 % 1021,2 hPa 0,0 l/m 9,7 km/h (2 Bft) NO 45 0 min 0,0 UV-I 0 W/m -5,1 C -7,1 C 14,5 km/h (3 Bft)
15.01.2021 02:01 -3,6 C -3,9 C 89 % 1021,2 hPa 0,0 l/m 9,7 km/h (2 Bft) NO 45 0 min 0,0 UV-I 0 W/m -5,1 C -7,1 C 12,9 km/h (3 Bft)
15.01.2021 02:02 -3,6 C -3,9 C 89 % 1021,2 hPa 0,0 l/m 12,9 km/h (3 Bft) NO 45 0 min 0,0 UV-I 0 W/m -5,1 C -9,8 C 22,5 km/h (4 Bft)
15.01.2021 02:03 -3,6 C -3,9 C 89 % 1021,3 hPa 0,0 l/m 14,5 km/h (3 Bft) NO 45 0 min 0,0 UV-I 0 W/m -5,1 C -11,0 C 19,3 km/h (3 Bft)
15.01.2021 02:04 -3,6 C -3,9 C 89 % 1021,4 hPa 0,0 l/m 9,7 km/h (2 Bft) NO 45 0 min 0,0 UV-I 0 W/m -5,1 C -7,1 C 16,1 km/h (3 Bft)
15.01.2021 02:05 -3,6 C -3,9 C 89 % 1021,3 hPa 0,0 l/m 12,9 km/h (3 Bft) O-NO 67 0 min 0,0 UV-I 0 W/m -5,1 C -9,8 C 20,9 km/h (4 Bft)
15.01.2021 02:06 -3,6 C -3,9 C 89 % 1021,3 hPa 0,0 l/m 11,3 km/h (2 Bft) NO 45 0 min 0,0 UV-I 0 W/m -5,1 C -8,6 C 16,1 km/h (3 Bft)
15.01.2021 02:07 -3,6 C -3,9 C 89 % 1021,3 hPa 0,0 l/m 8,0 km/h (2 Bft) NO 45 0 min 0,0 UV-I 0 W/m -5,1 C -5,4 C 14,5 km/h (3 Bft)
15.01.2021 02:08 -3,6 C -3,9 C 89 % 1021,4 hPa 0,0 l/m 11,3 km/h (2 Bft) NO 45 0 min 0,0 UV-I 0 W/m -5,1 C -8,6 C 17,7 km/h (3 Bft)
15.01.2021 02:09 -3,6 C -3,9 C 89 % 1021,4 hPa 0,0 l/m 11,3 km/h (2 Bft) NO 45 0 min 0,0 UV-I 0 W/m -5,1 C -8,6 C 19,3 km/h (3 Bft)
15.01.2021 02:10 -3,7 C -3,9 C 89 % 1021,4 hPa 0,0 l/m 17,7 km/h (3 Bft) NO 45 0 min 0,0 UV-I 0 W/m -5,2 C -13,1 C 22,5 km/h (4 Bft)
15.01.2021 02:11 -3,7 C -3,9 C 89 % 1021,4 hPa 0,0 l/m 14,5 km/h (3 Bft) NO 45 0 min 0,0 UV-I 0 W/m -5,2 C -11,1 C 20,9 km/h (4 Bft)
15.01.2021 02:12 -3,7 C -3,9 C 89 % 1021,5 hPa 0,0 l/m 17,7 km/h (3 Bft) NO 45 0 min 0,0 UV-I 0 W/m -5,2 C -13,1 C 19,3 km/h (3 Bft)
15.01.2021 02:13 -3,7 C -3,9 C 89 % 1021,4 hPa 0,0 l/m 11,3 km/h (2 Bft) NO 45 0 min 0,0 UV-I 0 W/m -5,2 C -8,7 C 16,1 km/h (3 Bft)
15.01.2021 02:14 -3,7 C -3,9 C 89 % 1021,4 hPa 0,0 l/m 14,5 km/h (3 Bft) N-NO 22 0 min 0,0 UV-I 0 W/m -5,2 C -11,1 C 20,9 km/h (4 Bft)
15.01.2021 02:15 -3,7 C -3,9 C 89 % 1021,5 hPa 0,0 l/m 16,1 km/h (3 Bft) N-NO 22 0 min 0,0 UV-I 0 W/m -5,2 C -12,2 C 20,9 km/h (4 Bft)
15.01.2021 02:16 -3,7 C -3,9 C 89 % 1021,5 hPa 0,0 l/m 12,9 km/h (3 Bft) N-NO 22 0 min 0,0 UV-I 0 W/m -5,2 C -10,0 C 19,3 km/h (3 Bft)
15.01.2021 02:17 -3,7 C -3,9 C 89 % 1021,5 hPa 0,0 l/m 11,3 km/h (2 Bft) N-NO 22 0 min 0,0 UV-I 0 W/m -5,2 C -8,7 C 16,1 km/h (3 Bft)
15.01.2021 02:18 -3,7 C -3,9 C 89 % 1021,6 hPa 0,0 l/m 12,9 km/h (3 Bft) NO 45 0 min 0,0 UV-I 0 W/m -5,2 C -10,0 C 20,9 km/h (4 Bft)
15.01.2021 02:19 -3,7 C -3,9 C 89 % 1021,6 hPa 0,0 l/m 14,5 km/h (3 Bft) NO 45 0 min 0,0 UV-I 0 W/m -5,2 C -11,1 C 19,3 km/h (3 Bft)
15.01.2021 02:20 -3,7 C -4,4 C 89 % 1021,6 hPa 0,0 l/m 14,5 km/h (3 Bft) N-NO 22 0 min 0,0 UV-I 0 W/m -5,2 C -11,1 C 17,7 km/h (3 Bft)
15.01.2021 02:21 -3,8 C -4,4 C 89 % 1021,6 hPa 0,0 l/m 14,5 km/h (3 Bft) N-NO 22 0 min 0,0 UV-I 0 W/m -5,3 C -11,2 C 19,3 km/h (3 Bft)
15.01.2021 02:22 -3,8 C -4,4 C 89 % 1021,6 hPa 0,0 l/m 12,9 km/h (3 Bft) N-NO 22 0 min 0,0 UV-I 0 W/m -5,3 C -10,1 C 17,7 km/h (3 Bft)
15.01.2021 02:23 -3,8 C -4,4 C 89 % 1021,7 hPa 0,0 l/m 9,7 km/h (2 Bft) N-NO 22 0 min 0,0 UV-I 0 W/m -5,3 C -7,4 C 16,1 km/h (3 Bft)
15.01.2021 02:24 -3,8 C -4,4 C 89 % 1021,6 hPa 0,0 l/m 11,3 km/h (2 Bft) N-NO 22 0 min 0,0 UV-I 0 W/m -5,3 C -8,8 C 16,1 km/h (3 Bft)
15.01.2021 02:25 -3,8 C -4,4 C 89 % 1021,7 hPa 0,0 l/m 9,7 km/h (2 Bft) N-NO 22 0 min 0,0 UV-I 0 W/m -5,3 C -7,4 C 14,5 km/h (3 Bft)
15.01.2021 02:26 -3,9 C -4,4 C 89 % 1021,8 hPa 0,0 l/m 9,7 km/h (2 Bft) N-NO 22 0 min 0,0 UV-I 0 W/m -5,4 C -7,5 C 14,5 km/h (3 Bft)
15.01.2021 02:27 -3,8 C -4,4 C 89 % 1021,7 hPa 0,0 l/m 12,9 km/h (3 Bft) N-NO 22 0 min 0,0 UV-I 0 W/m -5,3 C -10,1 C 17,7 km/h (3 Bft)
15.01.2021 02:28 -3,9 C -4,4 C 89 % 1021,7 hPa 0,0 l/m 11,3 km/h (2 Bft) N-NO 22 0 min 0,0 UV-I 0 W/m -5,4 C -8,9 C 16,1 km/h (3 Bft)
15.01.2021 02:29 -3,9 C -4,4 C 89 % 1021,8 hPa 0,0 l/m 11,3 km/h (2 Bft) N-NO 22 0 min 0,0 UV-I 0 W/m -5,4 C -8,9 C 14,5 km/h (3 Bft)
15.01.2021 02:30 -3,9 C -4,4 C 89 % 1021,7 hPa 0,0 l/m 9,7 km/h (2 Bft) N-NO 22 0 min 0,0 UV-I 0 W/m -5,4 C -7,5 C 14,5 km/h (3 Bft)
15.01.2021 02:31 -3,9 C -4,4 C 89 % 1021,8 hPa 0,0 l/m 9,7 km/h (2 Bft) NO 45 0 min 0,0 UV-I 0 W/m -5,4 C -7,5 C 14,5 km/h (3 Bft)
15.01.2021 02:32 -3,9 C -4,4 C 89 % 1021,7 hPa 0,0 l/m 9,7 km/h (2 Bft) N-NO 22 0 min 0,0 UV-I 0 W/m -5,4 C -7,5 C 16,1 km/h (3 Bft)
15.01.2021 02:33 -4,0 C -4,4 C 89 % 1021,8 hPa 0,0 l/m 11,3 km/h (2 Bft) N-NO 22 0 min 0,0 UV-I 0 W/m -5,5 C -9,0 C 16,1 km/h (3 Bft)
15.01.2021 02:34 -4,0 C -4,4 C 89 % 1021,9 hPa 0,0 l/m 9,7 km/h (2 Bft) N-NO 22 0 min 0,0 UV-I 0 W/m -5,5 C -7,6 C 12,9 km/h (3 Bft)
15.01.2021 02:35 -4,1 C -4,4 C 89 % 1021,9 hPa 0,0 l/m 8,0 km/h (2 Bft) NO 45 0 min 0,0 UV-I 0 W/m -5,6 C -6,0 C 11,3 km/h (2 Bft)
15.01.2021 02:36 -4,1 C -4,4 C 89 % 1022,0 hPa 0,0 l/m 9,7 km/h (2 Bft) N-NO 22 0 min 0,0 UV-I 0 W/m -5,6 C -7,7 C 11,3 km/h (2 Bft)
15.01.2021 02:37 -4,1 C -4,4 C 89 % 1021,9 hPa 0,0 l/m 8,0 km/h (2 Bft) N-NO 22 0 min 0,0 UV-I 0 W/m -5,6 C -6,0 C 12,9 km/h (3 Bft)
15.01.2021 02:38 -4,1 C -4,4 C 89 % 1022,1 hPa 0,0 l/m 8,0 km/h (2 Bft) N-NO 22 0 min 0,0 UV-I 0 W/m -5,6 C -6,0 C 12,9 km/h (3 Bft)
15.01.2021 02:39 -4,1 C -4,4 C 89 % 1022,0 hPa 0,0 l/m 9,7 km/h (2 Bft) N-NO 22 0 min 0,0 UV-I 0 W/m -5,6 C -7,7 C 12,9 km/h (3 Bft)
15.01.2021 02:40 -4,2 C -4,4 C 89 % 1022,1 hPa 0,0 l/m 8,0 km/h (2 Bft) N-NO 22 0 min 0,0 UV-I 0 W/m -5,7 C -6,1 C 12,9 km/h (3 Bft)
15.01.2021 02:41 -4,2 C -4,4 C 89 % 1022,0 hPa 0,0 l/m 8,0 km/h (2 Bft) N-NO 22 0 min 0,0 UV-I 0 W/m -5,7 C -6,1 C 8,0 km/h (2 Bft)
15.01.2021 02:42 -4,2 C -5,0 C 89 % 1022,1 hPa 0,0 l/m 8,0 km/h (2 Bft) N-NO 22 0 min 0,0 UV-I 0 W/m -5,7 C -6,1 C 9,7 km/h (2 Bft)
15.01.2021 02:43 -4,2 C -5,0 C 88 % 1022,0 hPa 0,0 l/m 9,7 km/h (2 Bft) N-NO 22 0 min 0,0 UV-I 0 W/m -5,9 C -7,8 C 14,5 km/h (3 Bft)
15.01.2021 02:44 -4,3 C -5,0 C 88 % 1022,1 hPa 0,0 l/m 6,4 km/h (2 Bft) NO 45 0 min 0,0 UV-I 0 W/m -6,0 C -4,2 C 8,0 km/h (2 Bft)
15.01.2021 02:45 -4,3 C -5,0 C 88 % 1022,2 hPa 0,0 l/m 4,8 km/h (1 Bft) NO 45 0 min 0,0 UV-I 0 W/m -6,0 C -4,3 C 6,4 km/h (2 Bft)
15.01.2021 02:46 -4,3 C -5,0 C 88 % 1022,1 hPa 0,0 l/m 6,4 km/h (2 Bft) N-NO 22 0 min 0,0 UV-I 0 W/m -6,0 C -4,2 C 9,7 km/h (2 Bft)
15.01.2021 02:47 -4,3 C -5,0 C 89 % 1022,1 hPa 0,0 l/m 8,0 km/h (2 Bft) NO 45 0 min 0,0 UV-I 0 W/m -5,8 C -6,2 C 9,7 km/h (2 Bft)
15.01.2021 02:48 -4,3 C -5,0 C 89 % 1022,2 hPa 0,0 l/m 4,8 km/h (1 Bft) NO 45 0 min 0,0 UV-I 0 W/m -5,8 C -4,3 C 6,4 km/h (2 Bft)
15.01.2021 02:49 -4,4 C -5,0 C 89 % 1022,2 hPa 0,0 l/m 6,4 km/h (2 Bft) NO 45 0 min 0,0 UV-I 0 W/m -5,9 C -4,3 C 8,0 km/h (2 Bft)
15.01.2021 02:50 -4,4 C -5,0 C 89 % 1022,2 hPa 0,0 l/m 6,4 km/h (2 Bft) NO 45 0 min 0,0 UV-I 0 W/m -5,9 C -4,3 C 8,0 km/h (2 Bft)
15.01.2021 02:51 -4,4 C -5,0 C 89 % 1022,1 hPa 0,0 l/m 4,8 km/h (1 Bft) NO 45 0 min 0,0 UV-I 0 W/m -5,9 C -4,4 C 6,4 km/h (2 Bft)
15.01.2021 02:52 -4,4 C -5,0 C 89 % 1022,2 hPa 0,0 l/m 3,2 km/h (1 Bft) NO 45 0 min 0,0 UV-I 0 W/m -5,9 C -4,4 C 6,4 km/h (2 Bft)
15.01.2021 02:53 -4,4 C -5,0 C 89 % 1022,2 hPa 0,0 l/m 6,4 km/h (2 Bft) NO 45 0 min 0,0 UV-I 0 W/m -5,9 C -4,3 C 6,4 km/h (2 Bft)
15.01.2021 02:54 -4,4 C -5,0 C 89 % 1022,2 hPa 0,0 l/m 6,4 km/h (2 Bft) N-NO 22 0 min 0,0 UV-I 0 W/m -5,9 C -4,3 C 8,0 km/h (2 Bft)
15.01.2021 02:55 -4,4 C -5,0 C 89 % 1022,1 hPa 0,0 l/m 4,8 km/h (1 Bft) N-NO 22 0 min 0,0 UV-I 0 W/m -5,9 C -4,4 C 6,4 km/h (2 Bft)
15.01.2021 02:56 -4,4 C -5,0 C 89 % 1022,1 hPa 0,0 l/m 6,4 km/h (2 Bft) N-NO 22 0 min 0,0 UV-I 0 W/m -5,9 C -4,3 C 8,0 km/h (2 Bft)
15.01.2021 02:57 -4,5 C -5,0 C 89 % 1022,1 hPa 0,0 l/m 6,4 km/h (2 Bft) N-NO 22 0 min 0,0 UV-I 0 W/m -6,0 C -4,4 C 8,0 km/h (2 Bft)
15.01.2021 02:58 -4,6 C -5,0 C 89 % 1022,3 hPa 0,0 l/m 6,4 km/h (2 Bft) N-NO 22 0 min 0,0 UV-I 0 W/m -6,1 C -4,5 C 8,0 km/h (2 Bft)
15.01.2021 02:59 -4,6 C -5,0 C 89 % 1022,2 hPa 0,0 l/m 6,4 km/h (2 Bft) N-NO 22 0 min 0,0 UV-I 0 W/m -6,1 C -4,5 C 8,0 km/h (2 Bft)
15.01.2021 03:00 -4,6 C -5,0 C 89 % 1022,3 hPa 0,0 l/m 6,4 km/h (2 Bft) N-NO 22 0 min 0,0 UV-I 0 W/m -6,1 C -4,5 C 8,0 km/h (2 Bft)
15.01.2021 03:01 -4,6 C -5,0 C 89 % 1022,3 hPa 0,0 l/m 6,4 km/h (2 Bft) NO 45 0 min 0,0 UV-I 0 W/m -6,1 C -4,5 C 8,0 km/h (2 Bft)
15.01.2021 03:02 -4,6 C -5,0 C 89 % 1022,2 hPa 0,0 l/m 6,4 km/h (2 Bft) N-NO 22 0 min 0,0 UV-I 0 W/m -6,1 C -4,5 C 9,7 km/h (2 Bft)
15.01.2021 03:03 -4,7 C -5,0 C 89 % 1022,3 hPa 0,0 l/m 6,4 km/h (2 Bft) N-NO 22 0 min 0,0 UV-I 0 W/m -6,2 C -4,6 C 8,0 km/h (2 Bft)
15.01.2021 03:04 -4,7 C -5,0 C 89 % 1022,3 hPa 0,0 l/m 6,4 km/h (2 Bft) N-NO 22 0 min 0,0 UV-I 0 W/m -6,2 C -4,6 C 8,0 km/h (2 Bft)
15.01.2021 03:05 -4,7 C -5,0 C 89 % 1022,3 hPa 0,0 l/m 6,4 km/h (2 Bft) N-NO 22 0 min 0,0 UV-I 0 W/m -6,2 C -4,6 C 8,0 km/h (2 Bft)
15.01.2021 03:06 -4,7 C -5,6 C 89 % 1022,3 hPa 0,0 l/m 4,8 km/h (1 Bft) N-NO 22 0 min 0,0 UV-I 0 W/m -6,2 C -4,7 C 6,4 km/h (2 Bft)
15.01.2021 03:07 -4,7 C -5,6 C 89 % 1022,2 hPa 0,0 l/m 6,4 km/h (2 Bft) N-NO 22 0 min 0,0 UV-I 0 W/m -6,2 C -4,6 C 8,0 km/h (2 Bft)
15.01.2021 03:08 -4,7 C -5,6 C 89 % 1022,4 hPa 0,0 l/m 6,4 km/h (2 Bft) N-NO 22 0 min 0,0 UV-I 0 W/m -6,2 C -4,6 C 6,4 km/h (2 Bft)
15.01.2021 03:09 -4,7 C -5,6 C 89 % 1022,4 hPa 0,0 l/m 4,8 km/h (1 Bft) N-NO 22 0 min 0,0 UV-I 0 W/m -6,2 C -4,7 C 6,4 km/h (2 Bft)
15.01.2021 03:10 -4,8 C -5,6 C 89 % 1022,3 hPa 0,0 l/m 4,8 km/h (1 Bft) N-NO 22 0 min 0,0 UV-I 0 W/m -6,3 C -4,8 C 6,4 km/h (2 Bft)
15.01.2021 03:11 -4,8 C -5,6 C 89 % 1022,4 hPa 0,0 l/m 6,4 km/h (2 Bft) N-NO 22 0 min 0,0 UV-I 0 W/m -6,3 C -4,7 C 8,0 km/h (2 Bft)
15.01.2021 03:12 -4,8 C -5,6 C 89 % 1022,4 hPa 0,0 l/m 4,8 km/h (1 Bft) NO 45 0 min 0,0 UV-I 0 W/m -6,3 C -4,8 C 6,4 km/h (2 Bft)
15.01.2021 03:13 -4,8 C -5,6 C 89 % 1022,3 hPa 0,0 l/m 4,8 km/h (1 Bft) NO 45 0 min 0,0 UV-I 0 W/m -6,3 C -4,8 C 6,4 km/h (2 Bft)
15.01.2021 03:14 -4,8 C -5,6 C 89 % 1022,5 hPa 0,0 l/m 6,4 km/h (2 Bft) N-NO 22 0 min 0,0 UV-I 0 W/m -6,3 C -4,7 C 6,4 km/h (2 Bft)
15.01.2021 03:15 -4,8 C -5,6 C 89 % 1022,4 hPa 0,0 l/m 6,4 km/h (2 Bft) N-NO 22 0 min 0,0 UV-I 0 W/m -6,3 C -4,7 C 11,3 km/h (2 Bft)
15.01.2021 03:16 -4,9 C -5,6 C 89 % 1022,5 hPa 0,0 l/m 6,4 km/h (2 Bft) N-NO 22 0 min 0,0 UV-I 0 W/m -6,4 C -4,8 C 9,7 km/h (2 Bft)
15.01.2021 03:17 -4,9 C -5,6 C 89 % 1022,5 hPa 0,0 l/m 9,7 km/h (2 Bft) N-NO 22 0 min 0,0 UV-I 0 W/m -6,4 C -8,6 C 12,9 km/h (3 Bft)
15.01.2021 03:18 -4,9 C -5,6 C 89 % 1022,6 hPa 0,0 l/m 9,7 km/h (2 Bft) N-NO 22 0 min 0,0 UV-I 0 W/m -6,4 C -8,6 C 12,9 km/h (3 Bft)
15.01.2021 03:19 -4,9 C -5,6 C 89 % 1022,5 hPa 0,0 l/m 8,0 km/h (2 Bft) N-NO 22 0 min 0,0 UV-I 0 W/m -6,4 C -6,8 C 11,3 km/h (2 Bft)
15.01.2021 03:20 -4,9 C -5,6 C 89 % 1022,5 hPa 0,0 l/m 9,7 km/h (2 Bft) NO 45 0 min 0,0 UV-I 0 W/m -6,4 C -8,6 C 14,5 km/h (3 Bft)
15.01.2021 03:21 -5,0 C -5,6 C 89 % 1022,6 hPa 0,0 l/m 8,0 km/h (2 Bft) N-NO 22 0 min 0,0 UV-I 0 W/m -6,5 C -6,9 C 12,9 km/h (3 Bft)
15.01.2021 03:22 -5,0 C -5,6 C 89 % 1022,6 hPa 0,0 l/m 8,0 km/h (2 Bft) NO 45 0 min 0,0 UV-I 0 W/m -6,5 C -6,9 C 9,7 km/h (2 Bft)
15.01.2021 03:23 -5,1 C -5,6 C 89 % 1022,6 hPa 0,0 l/m 8,0 km/h (2 Bft) N-NO 22 0 min 0,0 UV-I 0 W/m -6,6 C -7,0 C 12,9 km/h (3 Bft)
15.01.2021 03:24 -5,1 C -5,6 C 90 % 1022,5 hPa 0,0 l/m 8,0 km/h (2 Bft) N-NO 22 0 min 0,0 UV-I 0 W/m -6,5 C -7,0 C 9,7 km/h (2 Bft)
15.01.2021 03:25 -5,1 C -5,6 C 90 % 1022,5 hPa 0,0 l/m 8,0 km/h (2 Bft) NO 45 0 min 0,0 UV-I 0 W/m -6,5 C -7,0 C 9,7 km/h (2 Bft)
15.01.2021 03:26 -5,1 C -5,6 C 90 % 1022,6 hPa 0,0 l/m 9,7 km/h (2 Bft) N-NO 22 0 min 0,0 UV-I 0 W/m -6,5 C -8,8 C 12,9 km/h (3 Bft)
15.01.2021 03:27 -5,1 C -5,6 C 90 % 1022,5 hPa 0,0 l/m 8,0 km/h (2 Bft) NO 45 0 min 0,0 UV-I 0 W/m -6,5 C -7,0 C 12,9 km/h (3 Bft)
15.01.2021 03:28 -5,1 C -5,6 C 90 % 1022,5 hPa 0,0 l/m 8,0 km/h (2 Bft) N-NO 22 0 min 0,0 UV-I 0 W/m -6,5 C -7,0 C 9,7 km/h (2 Bft)
15.01.2021 03:29 -5,2 C -5,6 C 90 % 1022,6 hPa 0,0 l/m 8,0 km/h (2 Bft) N-NO 22 0 min 0,0 UV-I 0 W/m -6,6 C -7,1 C 12,9 km/h (3 Bft)
15.01.2021 03:30 -5,1 C -5,6 C 90 % 1022,5 hPa 0,0 l/m 6,4 km/h (2 Bft) N-NO 22 0 min 0,0 UV-I 0 W/m -6,5 C -5,0 C 12,9 km/h (3 Bft)
15.01.2021 03:31 -5,1 C -5,0 C 90 % 1022,7 hPa 0,0 l/m 9,7 km/h (2 Bft) NO 45 0 min 0,0 UV-I 0 W/m -6,5 C -8,8 C 12,9 km/h (3 Bft)
15.01.2021 03:32 -5,1 C -5,0 C 90 % 1022,5 hPa 0,0 l/m 8,0 km/h (2 Bft) NO 45 0 min 0,0 UV-I 0 W/m -6,5 C -7,0 C 9,7 km/h (2 Bft)
15.01.2021 03:33 -5,1 C -5,0 C 90 % 1022,6 hPa 0,0 l/m 4,8 km/h (1 Bft) NO 45 0 min 0,0 UV-I 0 W/m -6,5 C -5,1 C 8,0 km/h (2 Bft)
15.01.2021 03:34 -5,1 C -5,0 C 90 % 1022,6 hPa 0,0 l/m 4,8 km/h (1 Bft) NO 45 0 min 0,0 UV-I 0 W/m -6,5 C -5,1 C 6,4 km/h (2 Bft)
15.01.2021 03:35 -5,1 C -5,0 C 90 % 1022,6 hPa 0,0 l/m 4,8 km/h (1 Bft) NO 45 0 min 0,0 UV-I 0 W/m -6,5 C -5,1 C 6,4 km/h (2 Bft)
15.01.2021 03:36 -5,1 C -5,0 C 90 % 1022,6 hPa 0,0 l/m 6,4 km/h (2 Bft) NO 45 0 min 0,0 UV-I 0 W/m -6,5 C -5,0 C 8,0 km/h (2 Bft)
15.01.2021 03:37 -5,1 C -5,0 C 90 % 1022,6 hPa 0,0 l/m 3,2 km/h (1 Bft) NO 45 0 min 0,0 UV-I 0 W/m -6,5 C -5,1 C 4,8 km/h (1 Bft)
15.01.2021 03:38 -5,1 C -5,0 C 90 % 1022,6 hPa 0,0 l/m 3,2 km/h (1 Bft) NO 45 0 min 0,0 UV-I 0 W/m -6,5 C -5,1 C 4,8 km/h (1 Bft)
15.01.2021 03:39 -5,1 C -5,0 C 90 % 1022,7 hPa 0,0 l/m 4,8 km/h (1 Bft) NO 45 0 min 0,0 UV-I 0 W/m -6,5 C -5,1 C 6,4 km/h (2 Bft)
15.01.2021 03:40 -5,1 C -5,0 C 90 % 1022,7 hPa 0,0 l/m 6,4 km/h (2 Bft) NO 45 0 min 0,0 UV-I 0 W/m -6,5 C -5,0 C 8,0 km/h (2 Bft)
15.01.2021 03:41 -5,1 C -5,6 C 90 % 1022,6 hPa 0,0 l/m 4,8 km/h (1 Bft) NO 45 0 min 0,0 UV-I 0 W/m -6,5 C -5,1 C 6,4 km/h (2 Bft)
15.01.2021 03:42 -5,2 C -5,6 C 90 % 1022,6 hPa 0,0 l/m 6,4 km/h (2 Bft) NO 45 0 min 0,0 UV-I 0 W/m -6,6 C -5,1 C 8,0 km/h (2 Bft)
15.01.2021 03:43 -5,2 C -5,6 C 90 % 1022,6 hPa 0,0 l/m 6,4 km/h (2 Bft) N-NO 22 0 min 0,0 UV-I 0 W/m -6,6 C -5,1 C 8,0 km/h (2 Bft)
15.01.2021 03:44 -5,2 C -5,6 C 90 % 1022,7 hPa 0,0 l/m 6,4 km/h (2 Bft) NO 45 0 min 0,0 UV-I 0 W/m -6,6 C -5,1 C 11,3 km/h (2 Bft)
15.01.2021 03:45 -5,2 C -5,6 C 90 % 1022,7 hPa 0,0 l/m 8,0 km/h (2 Bft) N-NO 22 0 min 0,0 UV-I 0 W/m -6,6 C -7,1 C 9,7 km/h (2 Bft)
15.01.2021 03:46 -5,2 C -5,6 C 90 % 1022,6 hPa 0,0 l/m 4,8 km/h (1 Bft) N-NO 22 0 min 0,0 UV-I 0 W/m -6,6 C -5,2 C 6,4 km/h (2 Bft)
15.01.2021 03:47 -5,2 C -5,6 C 90 % 1022,7 hPa 0,0 l/m 8,0 km/h (2 Bft) N-NO 22 0 min 0,0 UV-I 0 W/m -6,6 C -7,1 C 9,7 km/h (2 Bft)
15.01.2021 03:48 -5,2 C -5,6 C 90 % 1022,7 hPa 0,0 l/m 6,4 km/h (2 Bft) NO 45 0 min 0,0 UV-I 0 W/m -6,6 C -5,1 C 8,0 km/h (2 Bft)
15.01.2021 03:49 -5,2 C -5,6 C 90 % 1022,7 hPa 0,0 l/m 6,4 km/h (2 Bft) NO 45 0 min 0,0 UV-I 0 W/m -6,6 C -5,1 C 9,7 km/h (2 Bft)
15.01.2021 03:50 -5,2 C -5,6 C 90 % 1022,8 hPa 0,0 l/m 8,0 km/h (2 Bft) N-NO 22 0 min 0,0 UV-I 0 W/m -6,6 C -7,1 C 9,7 km/h (2 Bft)
15.01.2021 03:51 -5,3 C -5,6 C 90 % 1022,8 hPa 0,0 l/m 6,4 km/h (2 Bft) NO 45 0 min 0,0 UV-I 0 W/m -6,7 C -5,2 C 8,0 km/h (2 Bft)
15.01.2021 03:52 -5,3 C -5,6 C 90 % 1022,7 hPa 0,0 l/m 6,4 km/h (2 Bft) NO 45 0 min 0,0 UV-I 0 W/m -6,7 C -5,2 C 8,0 km/h (2 Bft)
15.01.2021 03:53 -5,3 C -5,6 C 90 % 1022,8 hPa 0,0 l/m 6,4 km/h (2 Bft) N-NO 22 0 min 0,0 UV-I 0 W/m -6,7 C -5,2 C 8,0 km/h (2 Bft)
15.01.2021 03:54 -5,3 C -5,6 C 90 % 1022,8 hPa 0,0 l/m 6,4 km/h (2 Bft) NO 45 0 min 0,0 UV-I 0 W/m -6,7 C -5,2 C 8,0 km/h (2 Bft)
15.01.2021 03:55 -5,3 C -5,6 C 90 % 1022,8 hPa 0,0 l/m 6,4 km/h (2 Bft) N-NO 22 0 min 0,0 UV-I 0 W/m -6,7 C -5,2 C 9,7 km/h (2 Bft)
15.01.2021 03:56 -5,3 C -5,6 C 90 % 1022,9 hPa 0,0 l/m 6,4 km/h (2 Bft) N-NO 22 0 min 0,0 UV-I 0 W/m -6,7 C -5,2 C 9,7 km/h (2 Bft)
15.01.2021 03:57 -5,3 C -5,6 C 90 % 1022,8 hPa 0,0 l/m 6,4 km/h (2 Bft) N-NO 22 0 min 0,0 UV-I 0 W/m -6,7 C -5,2 C 8,0 km/h (2 Bft)
15.01.2021 03:58 -5,3 C -5,6 C 90 % 1022,9 hPa 0,0 l/m 9,7 km/h (2 Bft) N-NO 22 0 min 0,0 UV-I 0 W/m -6,7 C -9,0 C 11,3 km/h (2 Bft)
15.01.2021 03:59 -5,3 C -5,6 C 90 % 1022,9 hPa 0,0 l/m 6,4 km/h (2 Bft) NO 45 0 min 0,0 UV-I 0 W/m -6,7 C -5,2 C 8,0 km/h (2 Bft)
15.01.2021 04:00 -5,3 C -5,6 C 90 % 1022,9 hPa 0,0 l/m 4,8 km/h (1 Bft) NO 45 0 min 0,0 UV-I 0 W/m -6,7 C -5,3 C 6,4 km/h (2 Bft)
15.01.2021 04:01 -5,3 C -5,6 C 90 % 1022,9 hPa 0,0 l/m 4,8 km/h (1 Bft) NO 45 0 min 0,0 UV-I 0 W/m -6,7 C -5,3 C 6,4 km/h (2 Bft)
15.01.2021 04:02 -5,3 C -5,6 C 90 % 1022,9 hPa 0,0 l/m 4,8 km/h (1 Bft) NO 45 0 min 0,0 UV-I 0 W/m -6,7 C -5,3 C 6,4 km/h (2 Bft)
15.01.2021 04:03 -5,4 C -5,6 C 90 % 1023,0 hPa 0,0 l/m 6,4 km/h (2 Bft) NO 45 0 min 0,0 UV-I 0 W/m -6,8 C -5,3 C 8,0 km/h (2 Bft)
15.01.2021 04:04 -5,4 C -5,6 C 90 % 1023,0 hPa 0,0 l/m 4,8 km/h (1 Bft) NO 45 0 min 0,0 UV-I 0 W/m -6,8 C -5,4 C 6,4 km/h (2 Bft)
15.01.2021 04:05 -5,3 C -5,6 C 90 % 1023,0 hPa 0,0 l/m 6,4 km/h (2 Bft) NO 45 0 min 0,0 UV-I 0 W/m -6,7 C -5,2 C 8,0 km/h (2 Bft)
15.01.2021 04:06 -5,4 C -5,6 C 90 % 1022,9 hPa 0,0 l/m 6,4 km/h (2 Bft) NO 45 0 min 0,0 UV-I 0 W/m -6,8 C -5,3 C 8,0 km/h (2 Bft)
15.01.2021 04:07 -5,3 C -5,6 C 90 % 1022,9 hPa 0,0 l/m 3,2 km/h (1 Bft) NO 45 0 min 0,0 UV-I 0 W/m -6,7 C -5,3 C 4,8 km/h (1 Bft)
15.01.2021 04:08 -5,4 C -5,6 C 91 % 1023,0 hPa 0,0 l/m 3,2 km/h (1 Bft) NO 45 0 min 0,0 UV-I 0 W/m -6,6 C -5,4 C 4,8 km/h (1 Bft)
15.01.2021 04:09 -5,3 C -5,6 C 91 % 1023,0 hPa 0,0 l/m 3,2 km/h (1 Bft) NO 45 0 min 0,0 UV-I 0 W/m -6,5 C -5,3 C 4,8 km/h (1 Bft)
15.01.2021 04:10 -5,4 C -5,6 C 91 % 1023,0 hPa 0,0 l/m 3,2 km/h (1 Bft) NO 45 0 min 0,0 UV-I 0 W/m -6,6 C -5,4 C 4,8 km/h (1 Bft)
15.01.2021 04:11 -5,3 C -5,6 C 91 % 1023,0 hPa 0,0 l/m 3,2 km/h (1 Bft) NO 45 0 min 0,0 UV-I 0 W/m -6,5 C -5,3 C 3,2 km/h (1 Bft)
15.01.2021 04:12 -5,4 C -6,1 C 91 % 1023,0 hPa 0,0 l/m 4,8 km/h (1 Bft) NO 45 0 min 0,0 UV-I 0 W/m -6,6 C -5,4 C 6,4 km/h (2 Bft)
15.01.2021 04:13 -5,3 C -5,6 C 91 % 1023,0 hPa 0,0 l/m 4,8 km/h (1 Bft) O-NO 67 0 min 0,0 UV-I 0 W/m -6,5 C -5,3 C 6,4 km/h (2 Bft)
15.01.2021 04:14 -5,4 C -5,6 C 91 % 1023,0 hPa 0,0 l/m 1,6 km/h (1 Bft) O-NO 67 0 min 0,0 UV-I 0 W/m -6,6 C -5,4 C 3,2 km/h (1 Bft)
15.01.2021 04:15 -5,4 C -5,6 C 91 % 1023,1 hPa 0,0 l/m 1,6 km/h (1 Bft) O-NO 67 0 min 0,0 UV-I 0 W/m -6,6 C -5,4 C 3,2 km/h (1 Bft)
15.01.2021 04:16 -5,3 C -5,6 C 91 % 1023,1 hPa 0,0 l/m 3,2 km/h (1 Bft) O-NO 67 0 min 0,0 UV-I 0 W/m -6,5 C -5,3 C 4,8 km/h (1 Bft)
15.01.2021 04:17 -5,4 C -5,6 C 91 % 1022,9 hPa 0,0 l/m 3,2 km/h (1 Bft) O-NO 67 0 min 0,0 UV-I 0 W/m -6,6 C -5,4 C 4,8 km/h (1 Bft)
15.01.2021 04:18 -5,3 C -5,6 C 91 % 1023,0 hPa 0,0 l/m 3,2 km/h (1 Bft) O-NO 67 0 min 0,0 UV-I 0 W/m -6,5 C -5,3 C 4,8 km/h (1 Bft)
15.01.2021 04:19 -5,3 C -5,6 C 91 % 1023,1 hPa 0,0 l/m 4,8 km/h (1 Bft) O-NO 67 0 min 0,0 UV-I 0 W/m -6,5 C -5,3 C 4,8 km/h (1 Bft)
15.01.2021 04:20 -5,4 C -5,6 C 91 % 1023,1 hPa 0,0 l/m 4,8 km/h (1 Bft) O-NO 67 0 min 0,0 UV-I 0 W/m -6,6 C -5,4 C 4,8 km/h (1 Bft)
15.01.2021 04:21 -5,3 C -5,6 C 91 % 1023,2 hPa 0,0 l/m 4,8 km/h (1 Bft) O-NO 67 0 min 0,0 UV-I 0 W/m -6,5 C -5,3 C 8,0 km/h (2 Bft)
15.01.2021 04:22 -5,4 C -5,6 C 91 % 1023,1 hPa 0,0 l/m 3,2 km/h (1 Bft) NO 45 0 min 0,0 UV-I 0 W/m -6,6 C -5,4 C 4,8 km/h (1 Bft)
15.01.2021 04:23 -5,3 C -5,6 C 91 % 1023,2 hPa 0,0 l/m 4,8 km/h (1 Bft) NO 45 0 min 0,0 UV-I 0 W/m -6,5 C -5,3 C 8,0 km/h (2 Bft)
15.01.2021 04:24 -5,3 C -5,6 C 91 % 1023,2 hPa 0,0 l/m 4,8 km/h (1 Bft) O 90 0 min 0,0 UV-I 0 W/m -6,5 C -5,3 C 6,4 km/h (2 Bft)
15.01.2021 04:25 -5,3 C -5,6 C 91 % 1023,2 hPa 0,0 l/m 3,2 km/h (1 Bft) O-NO 67 0 min 0,0 UV-I 0 W/m -6,5 C -5,3 C 6,4 km/h (2 Bft)
15.01.2021 04:26 -5,4 C -5,6 C 91 % 1023,2 hPa 0,0 l/m 3,2 km/h (1 Bft) O-NO 67 0 min 0,0 UV-I 0 W/m -6,6 C -5,4 C 4,8 km/h (1 Bft)
15.01.2021 04:27 -5,4 C -5,6 C 91 % 1023,2 hPa 0,0 l/m 4,8 km/h (1 Bft) O 90 0 min 0,0 UV-I 0 W/m -6,6 C -5,4 C 6,4 km/h (2 Bft)
15.01.2021 04:28 -5,4 C -5,6 C 91 % 1023,2 hPa 0,0 l/m 3,2 km/h (1 Bft) O 90 0 min 0,0 UV-I 0 W/m -6,6 C -5,4 C 6,4 km/h (2 Bft)
15.01.2021 04:29 -5,4 C -5,6 C 91 % 1023,2 hPa 0,0 l/m 4,8 km/h (1 Bft) O 90 0 min 0,0 UV-I 0 W/m -6,6 C -5,4 C 4,8 km/h (1 Bft)
15.01.2021 04:30 -5,4 C -5,6 C 91 % 1023,2 hPa 0,0 l/m 4,8 km/h (1 Bft) O 90 0 min 0,0 UV-I 0 W/m -6,6 C -5,4 C 6,4 km/h (2 Bft)
15.01.2021 04:31 -5,4 C -5,6 C 91 % 1023,2 hPa 0,0 l/m 3,2 km/h (1 Bft) O 90 0 min 0,0 UV-I 0 W/m -6,6 C -5,4 C 4,8 km/h (1 Bft)
15.01.2021 04:32 -5,4 C -5,6 C 91 % 1023,2 hPa 0,0 l/m 3,2 km/h (1 Bft) O 90 0 min 0,0 UV-I 0 W/m -6,6 C -5,4 C 4,8 km/h (1 Bft)
15.01.2021 04:33 -5,3 C -5,6 C 91 % 1023,2 hPa 0,0 l/m 3,2 km/h (1 Bft) O 90 0 min 0,0 UV-I 0 W/m -6,5 C -5,3 C 3,2 km/h (1 Bft)
15.01.2021 04:34 -5,4 C -6,1 C 91 % 1023,3 hPa 0,0 l/m 3,2 km/h (1 Bft) O 90 0 min 0,0 UV-I 0 W/m -6,6 C -5,4 C 3,2 km/h (1 Bft)
15.01.2021 04:35 -5,4 C -6,1 C 91 % 1023,4 hPa 0,0 l/m 3,2 km/h (1 Bft) O 90 0 min 0,0 UV-I 0 W/m -6,6 C -5,4 C 4,8 km/h (1 Bft)
15.01.2021 04:36 -5,4 C -6,7 C 91 % 1023,4 hPa 0,0 l/m 3,2 km/h (1 Bft) O 90 0 min 0,0 UV-I 0 W/m -6,6 C -5,4 C 3,2 km/h (1 Bft)
15.01.2021 04:37 -5,4 C -6,7 C 91 % 1023,4 hPa 0,0 l/m 3,2 km/h (1 Bft) O 90 0 min 0,0 UV-I 0 W/m -6,6 C -5,4 C 4,8 km/h (1 Bft)
15.01.2021 04:38 -5,4 C -6,7 C 91 % 1023,2 hPa 0,0 l/m 1,6 km/h (1 Bft) O 90 0 min 0,0 UV-I 0 W/m -6,6 C -5,4 C 4,8 km/h (1 Bft)
15.01.2021 04:39 -5,4 C -6,7 C 91 % 1023,3 hPa 0,0 l/m 1,6 km/h (1 Bft) O 90 0 min 0,0 UV-I 0 W/m -6,6 C -5,4 C 1,6 km/h (1 Bft)
15.01.2021 04:40 -5,4 C -7,2 C 91 % 1023,3 hPa 0,0 l/m 1,6 km/h (1 Bft) O 90 0 min 0,0 UV-I 0 W/m -6,6 C -5,4 C 1,6 km/h (1 Bft)
15.01.2021 04:41 -5,4 C -7,2 C 91 % 1023,4 hPa 0,0 l/m 1,6 km/h (1 Bft) O 90 0 min 0,0 UV-I 0 W/m -6,6 C -5,4 C 3,2 km/h (1 Bft)
15.01.2021 04:42 -5,4 C -7,2 C 91 % 1023,4 hPa 0,0 l/m 1,6 km/h (1 Bft) O 90 0 min 0,0 UV-I 0 W/m -6,6 C -5,4 C 4,8 km/h (1 Bft)
15.01.2021 04:43 -5,4 C -7,2 C 91 % 1023,4 hPa 0,0 l/m 1,6 km/h (1 Bft) O 90 0 min 0,0 UV-I 0 W/m -6,6 C -5,4 C 3,2 km/h (1 Bft)
15.01.2021 04:44 -5,5 C -7,2 C 91 % 1023,5 hPa 0,0 l/m 3,2 km/h (1 Bft) O 90 0 min 0,0 UV-I 0 W/m -6,7 C -5,5 C 6,4 km/h (2 Bft)
15.01.2021 04:45 -5,5 C -7,2 C 91 % 1023,4 hPa 0,0 l/m 3,2 km/h (1 Bft) O-NO 67 0 min 0,0 UV-I 0 W/m -6,7 C -5,5 C 6,4 km/h (2 Bft)
15.01.2021 04:46 -5,5 C -7,2 C 91 % 1023,5 hPa 0,0 l/m 3,2 km/h (1 Bft) O-NO 67 0 min 0,0 UV-I 0 W/m -6,7 C -5,5 C 4,8 km/h (1 Bft)
15.01.2021 04:47 -5,5 C -7,2 C 91 % 1023,5 hPa 0,0 l/m 3,2 km/h (1 Bft) O-NO 67 0 min 0,0 UV-I 0 W/m -6,7 C -5,5 C 4,8 km/h (1 Bft)
15.01.2021 04:48 -5,5 C -6,7 C 91 % 1023,5 hPa 0,0 l/m 3,2 km/h (1 Bft) O-NO 67 0 min 0,0 UV-I 0 W/m -6,7 C -5,5 C 4,8 km/h (1 Bft)
15.01.2021 04:49 -5,5 C -7,2 C 91 % 1023,4 hPa 0,0 l/m 3,2 km/h (1 Bft) O-NO 67 0 min 0,0 UV-I 0 W/m -6,7 C -5,5 C 4,8 km/h (1 Bft)
15.01.2021 04:50 -5,5 C -7,2 C 91 % 1023,5 hPa 0,0 l/m 3,2 km/h (1 Bft) O-NO 67 0 min 0,0 UV-I 0 W/m -6,7 C -5,5 C 4,8 km/h (1 Bft)
15.01.2021 04:51 -5,6 C -6,7 C 91 % 1023,5 hPa 0,0 l/m 3,2 km/h (1 Bft) O-NO 67 0 min 0,0 UV-I 0 W/m -6,8 C -5,6 C 4,8 km/h (1 Bft)
15.01.2021 04:52 -5,6 C -6,7 C 91 % 1023,5 hPa 0,0 l/m 3,2 km/h (1 Bft) O-NO 67 0 min 0,0 UV-I 0 W/m -6,8 C -5,6 C 4,8 km/h (1 Bft)
15.01.2021 04:53 -5,5 C -7,2 C 91 % 1023,5 hPa 0,0 l/m 1,6 km/h (1 Bft) O-NO 67 0 min 0,0 UV-I 0 W/m -6,7 C -5,5 C 3,2 km/h (1 Bft)
15.01.2021 04:54 -5,6 C -7,2 C 91 % 1023,5 hPa 0,0 l/m 4,8 km/h (1 Bft) O-NO 67 0 min 0,0 UV-I 0 W/m -6,8 C -5,6 C 6,4 km/h (2 Bft)
15.01.2021 04:55 -5,6 C -7,2 C 91 % 1023,6 hPa 0,0 l/m 3,2 km/h (1 Bft) O-NO 67 0 min 0,0 UV-I 0 W/m -6,8 C -5,6 C 4,8 km/h (1 Bft)
15.01.2021 04:56 -5,6 C -7,2 C 91 % 1023,6 hPa 0,0 l/m 3,2 km/h (1 Bft) O-NO 67 0 min 0,0 UV-I 0 W/m -6,8 C -5,6 C 4,8 km/h (1 Bft)
15.01.2021 04:57 -5,6 C -7,2 C 91 % 1023,7 hPa 0,0 l/m 3,2 km/h (1 Bft) O-NO 67 0 min 0,0 UV-I 0 W/m -6,8 C -5,6 C 4,8 km/h (1 Bft)
15.01.2021 04:58 -5,6 C -7,2 C 91 % 1023,6 hPa 0,0 l/m 3,2 km/h (1 Bft) O-NO 67 0 min 0,0 UV-I 0 W/m -6,8 C -5,6 C 4,8 km/h (1 Bft)
15.01.2021 04:59 -5,6 C -7,2 C 91 % 1023,6 hPa 0,0 l/m 4,8 km/h (1 Bft) O-NO 67 0 min 0,0 UV-I 0 W/m -6,8 C -5,6 C 12,9 km/h (3 Bft)
15.01.2021 05:00 -5,6 C -6,7 C 91 % 1023,6 hPa 0,0 l/m 3,2 km/h (1 Bft) NO 45 0 min 0,0 UV-I 0 W/m -6,8 C -5,6 C 4,8 km/h (1 Bft)
15.01.2021 05:01 -5,6 C -6,7 C 91 % 1023,6 hPa 0,0 l/m 3,2 km/h (1 Bft) NO 45 0 min 0,0 UV-I 0 W/m -6,8 C -5,6 C 4,8 km/h (1 Bft)
15.01.2021 05:02 -5,6 C -6,7 C 91 % 1023,7 hPa 0,0 l/m 4,8 km/h (1 Bft) NO 45 0 min 0,0 UV-I 0 W/m -6,8 C -5,6 C 8,0 km/h (2 Bft)
15.01.2021 05:03 -5,6 C -6,7 C 91 % 1023,7 hPa 0,0 l/m 4,8 km/h (1 Bft) O-NO 67 0 min 0,0 UV-I 0 W/m -6,8 C -5,6 C 6,4 km/h (2 Bft)
15.01.2021 05:04 -5,6 C -6,7 C 91 % 1023,7 hPa 0,0 l/m 1,6 km/h (1 Bft) O-NO 67 0 min 0,0 UV-I 0 W/m -6,8 C -5,6 C 3,2 km/h (1 Bft)
15.01.2021 05:05 -5,6 C -6,7 C 91 % 1023,7 hPa 0,0 l/m 0,0 km/h (0 Bft) O-NO 67 0 min 0,0 UV-I 0 W/m -6,8 C -5,6 C 1,6 km/h (1 Bft)
15.01.2021 05:06 -5,7 C -6,7 C 91 % 1023,7 hPa 0,0 l/m 1,6 km/h (1 Bft) O-NO 67 0 min 0,0 UV-I 0 W/m -6,9 C -5,7 C 3,2 km/h (1 Bft)
15.01.2021 05:07 -5,6 C -6,7 C 91 % 1023,8 hPa 0,0 l/m 3,2 km/h (1 Bft) O-NO 67 0 min 0,0 UV-I 0 W/m -6,8 C -5,6 C 3,2 km/h (1 Bft)
15.01.2021 05:08 -5,6 C -6,7 C 91 % 1023,8 hPa 0,0 l/m 4,8 km/h (1 Bft) O-NO 67 0 min 0,0 UV-I 0 W/m -6,8 C -5,6 C 8,0 km/h (2 Bft)
15.01.2021 05:09 -5,7 C -6,7 C 91 % 1023,8 hPa 0,0 l/m 3,2 km/h (1 Bft) O-NO 67 0 min 0,0 UV-I 0 W/m -6,9 C -5,7 C 4,8 km/h (1 Bft)
15.01.2021 05:10 -5,6 C -6,7 C 91 % 1023,7 hPa 0,0 l/m 4,8 km/h (1 Bft) NO 45 0 min 0,0 UV-I 0 W/m -6,8 C -5,6 C 6,4 km/h (2 Bft)
15.01.2021 05:11 -5,7 C -7,2 C 91 % 1023,8 hPa 0,0 l/m 3,2 km/h (1 Bft) NO 45 0 min 0,0 UV-I 0 W/m -6,9 C -5,7 C 4,8 km/h (1 Bft)
15.01.2021 05:12 -5,7 C -7,2 C 91 % 1023,7 hPa 0,0 l/m 3,2 km/h (1 Bft) NO 45 0 min 0,0 UV-I 0 W/m -6,9 C -5,7 C 4,8 km/h (1 Bft)
15.01.2021 05:13 -5,7 C -7,2 C 91 % 1023,8 hPa 0,0 l/m 4,8 km/h (1 Bft) NO 45 0 min 0,0 UV-I 0 W/m -6,9 C -5,7 C 9,7 km/h (2 Bft)
15.01.2021 05:14 -5,7 C -7,2 C 91 % 1023,8 hPa 0,0 l/m 4,8 km/h (1 Bft) NO 45 0 min 0,0 UV-I 0 W/m -6,9 C -5,7 C 8,0 km/h (2 Bft)
15.01.2021 05:15 -5,7 C -7,2 C 91 % 1023,8 hPa 0,0 l/m 9,7 km/h (2 Bft) N-NO 22 0 min 0,0 UV-I 0 W/m -6,9 C -9,5 C 12,9 km/h (3 Bft)
15.01.2021 05:16 -5,7 C -6,7 C 91 % 1023,9 hPa 0,0 l/m 6,4 km/h (2 Bft) NO 45 0 min 0,0 UV-I 0 W/m -6,9 C -5,6 C 9,7 km/h (2 Bft)
15.01.2021 05:17 -5,7 C -6,7 C 91 % 1023,9 hPa 0,0 l/m 4,8 km/h (1 Bft) NO 45 0 min 0,0 UV-I 0 W/m -6,9 C -5,7 C 6,4 km/h (2 Bft)
15.01.2021 05:18 -5,7 C -6,7 C 91 % 1023,8 hPa 0,0 l/m 4,8 km/h (1 Bft) NO 45 0 min 0,0 UV-I 0 W/m -6,9 C -5,7 C 6,4 km/h (2 Bft)
15.01.2021 05:19 -5,6 C -6,7 C 91 % 1023,9 hPa 0,0 l/m 3,2 km/h (1 Bft) NO 45 0 min 0,0 UV-I 0 W/m -6,8 C -5,6 C 6,4 km/h (2 Bft)
15.01.2021 05:20 -5,6 C -6,7 C 91 % 1023,8 hPa 0,0 l/m 6,4 km/h (2 Bft) NO 45 0 min 0,0 UV-I 0 W/m -6,8 C -5,5 C 12,9 km/h (3 Bft)
15.01.2021 05:21 -5,6 C -6,1 C 91 % 1023,9 hPa 0,0 l/m 6,4 km/h (2 Bft) NO 45 0 min 0,0 UV-I 0 W/m -6,8 C -5,5 C 14,5 km/h (3 Bft)
15.01.2021 05:22 -5,6 C -6,1 C 91 % 1023,9 hPa 0,0 l/m 8,0 km/h (2 Bft) NO 45 0 min 0,0 UV-I 0 W/m -6,8 C -7,5 C 12,9 km/h (3 Bft)
15.01.2021 05:23 -5,6 C -6,1 C 91 % 1023,9 hPa 0,0 l/m 12,9 km/h (3 Bft) N-NO 22 0 min 0,0 UV-I 0 W/m -6,8 C -12,2 C 17,7 km/h (3 Bft)
15.01.2021 05:24 -5,5 C -5,6 C 91 % 1023,9 hPa 0,0 l/m 8,0 km/h (2 Bft) N-NO 22 0 min 0,0 UV-I 0 W/m -6,7 C -7,4 C 11,3 km/h (2 Bft)
15.01.2021 05:25 -5,4 C -5,6 C 92 % 1023,9 hPa 0,0 l/m 8,0 km/h (2 Bft) NO 45 0 min 0,0 UV-I 0 W/m -6,5 C -7,3 C 9,7 km/h (2 Bft)
15.01.2021 05:26 -5,4 C -5,6 C 92 % 1023,9 hPa 0,0 l/m 6,4 km/h (2 Bft) N-NO 22 0 min 0,0 UV-I 0 W/m -6,5 C -5,3 C 9,7 km/h (2 Bft)
15.01.2021 05:27 -5,3 C -5,0 C 92 % 1023,8 hPa 0,0 l/m 9,7 km/h (2 Bft) N-NO 22 0 min 0,0 UV-I 0 W/m -6,4 C -9,0 C 14,5 km/h (3 Bft)
15.01.2021 05:28 -5,3 C -5,0 C 92 % 1023,9 hPa 0,0 l/m 6,4 km/h (2 Bft) NO 45 0 min 0,0 UV-I 0 W/m -6,4 C -5,2 C 11,3 km/h (2 Bft)
15.01.2021 05:29 -5,2 C -5,0 C 92 % 1023,9 hPa 0,0 l/m 8,0 km/h (2 Bft) NO 45 0 min 0,0 UV-I 0 W/m -6,3 C -7,1 C 11,3 km/h (2 Bft)
15.01.2021 05:30 -5,2 C -5,0 C 92 % 1023,9 hPa 0,0 l/m 8,0 km/h (2 Bft) NO 45 0 min 0,0 UV-I 0 W/m -6,3 C -7,1 C 11,3 km/h (2 Bft)
15.01.2021 05:31 -5,2 C -5,0 C 92 % 1024,0 hPa 0,0 l/m 6,4 km/h (2 Bft) N-NO 22 0 min 0,0 UV-I 0 W/m -6,3 C -5,1 C 9,7 km/h (2 Bft)
15.01.2021 05:32 -5,2 C -5,0 C 92 % 1023,9 hPa 0,0 l/m 6,4 km/h (2 Bft) NO 45 0 min 0,0 UV-I 0 W/m -6,3 C -5,1 C 12,9 km/h (3 Bft)
15.01.2021 05:33 -5,1 C -5,0 C 92 % 1023,9 hPa 0,0 l/m 8,0 km/h (2 Bft) N-NO 22 0 min 0,0 UV-I 0 W/m -6,2 C -7,0 C 12,9 km/h (3 Bft)
15.01.2021 05:34 -5,1 C -5,0 C 92 % 1023,9 hPa 0,0 l/m 9,7 km/h (2 Bft) N-NO 22 0 min 0,0 UV-I 0 W/m -6,2 C -8,8 C 12,9 km/h (3 Bft)
15.01.2021 05:35 -5,1 C -5,0 C 91 % 1023,9 hPa 0,0 l/m 11,3 km/h (2 Bft) N-NO 22 0 min 0,0 UV-I 0 W/m -6,3 C -10,3 C 14,5 km/h (3 Bft)
15.01.2021 05:36 -5,1 C -5,0 C 91 % 1023,8 hPa 0,0 l/m 11,3 km/h (2 Bft) N-NO 22 0 min 0,0 UV-I 0 W/m -6,3 C -10,3 C 14,5 km/h (3 Bft)
15.01.2021 05:37 -5,0 C -5,0 C 92 % 1023,9 hPa 0,0 l/m 11,3 km/h (2 Bft) N-NO 22 0 min 0,0 UV-I 0 W/m -6,1 C -10,2 C 14,5 km/h (3 Bft)
15.01.2021 05:38 -4,9 C -5,0 C 92 % 1023,9 hPa 0,0 l/m 12,9 km/h (3 Bft) N-NO 22 0 min 0,0 UV-I 0 W/m -6,0 C -11,4 C 16,1 km/h (3 Bft)
15.01.2021 05:39 -4,9 C -5,0 C 91 % 1024,1 hPa 0,0 l/m 12,9 km/h (3 Bft) N-NO 22 0 min 0,0 UV-I 0 W/m -6,1 C -11,4 C 16,1 km/h (3 Bft)
15.01.2021 05:40 -4,9 C -5,0 C 91 % 1024,0 hPa 0,0 l/m 9,7 km/h (2 Bft) N-NO 22 0 min 0,0 UV-I 0 W/m -6,1 C -8,6 C 14,5 km/h (3 Bft)
15.01.2021 05:41 -4,9 C -5,0 C 91 % 1024,0 hPa 0,0 l/m 12,9 km/h (3 Bft) N-NO 22 0 min 0,0 UV-I 0 W/m -6,1 C -11,4 C 16,1 km/h (3 Bft)
15.01.2021 05:42 -4,9 C -5,0 C 91 % 1024,0 hPa 0,0 l/m 14,5 km/h (3 Bft) N-NO 22 0 min 0,0 UV-I 0 W/m -6,1 C -12,6 C 19,3 km/h (3 Bft)
15.01.2021 05:43 -4,8 C -5,0 C 91 % 1024,0 hPa 0,0 l/m 12,9 km/h (3 Bft) N-NO 22 0 min 0,0 UV-I 0 W/m -6,0 C -11,3 C 19,3 km/h (3 Bft)
15.01.2021 05:44 -4,8 C -5,0 C 91 % 1024,0 hPa 0,0 l/m 12,9 km/h (3 Bft) N-NO 22 0 min 0,0 UV-I 0 W/m -6,0 C -11,3 C 16,1 km/h (3 Bft)
15.01.2021 05:45 -4,8 C -5,0 C 91 % 1024,0 hPa 0,0 l/m 12,9 km/h (3 Bft) NO 45 0 min 0,0 UV-I 0 W/m -6,0 C -11,3 C 16,1 km/h (3 Bft)
15.01.2021 05:46 -4,8 C -5,0 C 91 % 1024,1 hPa 0,0 l/m 9,7 km/h (2 Bft) NO 45 0 min 0,0 UV-I 0 W/m -6,0 C -8,5 C 14,5 km/h (3 Bft)
15.01.2021 05:47 -4,7 C -5,0 C 91 % 1024,1 hPa 0,0 l/m 8,0 km/h (2 Bft) N-NO 22 0 min 0,0 UV-I 0 W/m -5,9 C -6,6 C 17,7 km/h (3 Bft)
15.01.2021 05:48 -4,7 C -5,0 C 91 % 1024,1 hPa 0,0 l/m 14,5 km/h (3 Bft) N-NO 22 0 min 0,0 UV-I 0 W/m -5,9 C -12,3 C 19,3 km/h (3 Bft)
15.01.2021 05:49 -4,7 C -5,0 C 91 % 1024,1 hPa 0,0 l/m 12,9 km/h (3 Bft) N-NO 22 0 min 0,0 UV-I 0 W/m -5,9 C -11,1 C 16,1 km/h (3 Bft)
15.01.2021 05:50 -4,6 C -5,0 C 91 % 1024,1 hPa 0,0 l/m 16,1 km/h (3 Bft) N-NO 22 0 min 0,0 UV-I 0 W/m -5,8 C -13,3 C 19,3 km/h (3 Bft)
15.01.2021 05:51 -4,6 C -4,4 C 91 % 1024,1 hPa 0,0 l/m 11,3 km/h (2 Bft) NO 45 0 min 0,0 UV-I 0 W/m -5,8 C -9,7 C 16,1 km/h (3 Bft)
15.01.2021 05:52 -4,6 C -4,4 C 91 % 1024,1 hPa 0,0 l/m 8,0 km/h (2 Bft) N-NO 22 0 min 0,0 UV-I 0 W/m -5,8 C -6,5 C 12,9 km/h (3 Bft)
15.01.2021 05:53 -4,5 C -4,4 C 91 % 1024,1 hPa 0,0 l/m 11,3 km/h (2 Bft) N-NO 22 0 min 0,0 UV-I 0 W/m -5,7 C -9,6 C 14,5 km/h (3 Bft)
15.01.2021 05:54 -4,5 C -4,4 C 91 % 1024,1 hPa 0,0 l/m 11,3 km/h (2 Bft) N-NO 22 0 min 0,0 UV-I 0 W/m -5,7 C -9,6 C 16,1 km/h (3 Bft)
15.01.2021 05:55 -4,4 C -4,4 C 91 % 1024,1 hPa 0,0 l/m 9,7 km/h (2 Bft) NO 45 0 min 0,0 UV-I 0 W/m -5,6 C -8,0 C 14,5 km/h (3 Bft)
15.01.2021 05:56 -4,4 C -4,4 C 91 % 1024,1 hPa 0,0 l/m 11,3 km/h (2 Bft) N-NO 22 0 min 0,0 UV-I 0 W/m -5,6 C -9,5 C 14,5 km/h (3 Bft)
15.01.2021 05:57 -4,4 C -4,4 C 91 % 1024,2 hPa 0,0 l/m 9,7 km/h (2 Bft) NO 45 0 min 0,0 UV-I 0 W/m -5,6 C -8,0 C 12,9 km/h (3 Bft)
15.01.2021 05:58 -4,4 C -4,4 C 90 % 1024,2 hPa 0,0 l/m 9,7 km/h (2 Bft) NO 45 0 min 0,0 UV-I 0 W/m -5,8 C -8,0 C 11,3 km/h (2 Bft)
15.01.2021 05:59 -4,4 C -4,4 C 90 % 1024,1 hPa 0,0 l/m 8,0 km/h (2 Bft) NO 45 0 min 0,0 UV-I 0 W/m -5,8 C -6,3 C 9,7 km/h (2 Bft)
15.01.2021 06:00 -4,4 C -4,4 C 90 % 1024,1 hPa 0,0 l/m 9,7 km/h (2 Bft) N-NO 22 0 min 0,0 UV-I 0 W/m -5,8 C -8,0 C 16,1 km/h (3 Bft)
15.01.2021 06:01 -4,3 C -4,4 C 90 % 1024,2 hPa 0,0 l/m 11,3 km/h (2 Bft) N-NO 22 0 min 0,0 UV-I 0 W/m -5,7 C -9,4 C 14,5 km/h (3 Bft)
15.01.2021 06:02 -4,4 C -4,4 C 90 % 1024,2 hPa 0,0 l/m 9,7 km/h (2 Bft) N-NO 22 0 min 0,0 UV-I 0 W/m -5,8 C -8,0 C 14,5 km/h (3 Bft)
15.01.2021 06:03 -4,4 C -4,4 C 90 % 1024,3 hPa 0,0 l/m 12,9 km/h (3 Bft) N-NO 22 0 min 0,0 UV-I 0 W/m -5,8 C -10,8 C 16,1 km/h (3 Bft)
15.01.2021 06:04 -4,3 C -4,4 C 90 % 1024,2 hPa 0,0 l/m 9,7 km/h (2 Bft) N-NO 22 0 min 0,0 UV-I 0 W/m -5,7 C -7,9 C 16,1 km/h (3 Bft)
15.01.2021 06:05 -4,4 C -4,4 C 90 % 1024,2 hPa 0,0 l/m 11,3 km/h (2 Bft) N-NO 22 0 min 0,0 UV-I 0 W/m -5,8 C -9,5 C 17,7 km/h (3 Bft)
15.01.2021 06:06 -4,4 C -5,0 C 90 % 1024,2 hPa 0,0 l/m 11,3 km/h (2 Bft) N-NO 22 0 min 0,0 UV-I 0 W/m -5,8 C -9,5 C 14,5 km/h (3 Bft)
15.01.2021 06:07 -4,3 C -5,0 C 90 % 1024,3 hPa 0,0 l/m 9,7 km/h (2 Bft) N-NO 22 0 min 0,0 UV-I 0 W/m -5,7 C -7,9 C 14,5 km/h (3 Bft)
15.01.2021 06:08 -4,4 C -4,4 C 90 % 1024,2 hPa 0,0 l/m 11,3 km/h (2 Bft) N-NO 22 0 min 0,0 UV-I 0 W/m -5,8 C -9,5 C 17,7 km/h (3 Bft)
15.01.2021 06:09 -4,4 C -4,4 C 90 % 1024,3 hPa 0,0 l/m 9,7 km/h (2 Bft) N-NO 22 0 min 0,0 UV-I 0 W/m -5,8 C -8,0 C 14,5 km/h (3 Bft)
15.01.2021 06:10 -4,3 C -4,4 C 90 % 1024,4 hPa 0,0 l/m 12,9 km/h (3 Bft) N-NO 22 0 min 0,0 UV-I 0 W/m -5,7 C -10,7 C 16,1 km/h (3 Bft)
15.01.2021 06:11 -4,4 C -4,4 C 90 % 1024,3 hPa 0,0 l/m 9,7 km/h (2 Bft) N-NO 22 0 min 0,0 UV-I 0 W/m -5,8 C -8,0 C 14,5 km/h (3 Bft)
15.01.2021 06:12 -4,4 C -5,0 C 90 % 1024,3 hPa 0,0 l/m 11,3 km/h (2 Bft) N-NO 22 0 min 0,0 UV-I 0 W/m -5,8 C -9,5 C 16,1 km/h (3 Bft)
15.01.2021 06:13 -4,4 C -5,0 C 89 % 1024,3 hPa 0,0 l/m 14,5 km/h (3 Bft) N-NO 22 0 min 0,0 UV-I 0 W/m -5,9 C -12,0 C 16,1 km/h (3 Bft)
15.01.2021 06:14 -4,4 C -4,4 C 89 % 1024,4 hPa 0,0 l/m 12,9 km/h (3 Bft) N-NO 22 0 min 0,0 UV-I 0 W/m -5,9 C -10,8 C 16,1 km/h (3 Bft)
15.01.2021 06:15 -4,4 C -5,0 C 89 % 1024,4 hPa 0,0 l/m 12,9 km/h (3 Bft) N-NO 22 0 min 0,0 UV-I 0 W/m -5,9 C -10,8 C 16,1 km/h (3 Bft)
15.01.2021 06:16 -4,4 C -5,0 C 89 % 1024,4 hPa 0,0 l/m 12,9 km/h (3 Bft) N-NO 22 0 min 0,0 UV-I 0 W/m -5,9 C -10,8 C 17,7 km/h (3 Bft)
15.01.2021 06:17 -4,4 C -5,0 C 89 % 1024,3 hPa 0,0 l/m 12,9 km/h (3 Bft) N-NO 22 0 min 0,0 UV-I 0 W/m -5,9 C -10,8 C 19,3 km/h (3 Bft)
15.01.2021 06:18 -4,4 C -4,4 C 89 % 1024,4 hPa 0,0 l/m 12,9 km/h (3 Bft) N-NO 22 0 min 0,0 UV-I 0 W/m -5,9 C -10,8 C 16,1 km/h (3 Bft)
15.01.2021 06:19 -4,4 C -4,4 C 89 % 1024,4 hPa 0,0 l/m 9,7 km/h (2 Bft) NO 45 0 min 0,0 UV-I 0 W/m -5,9 C -8,0 C 16,1 km/h (3 Bft)
15.01.2021 06:20 -4,4 C -5,0 C 89 % 1024,5 hPa 0,0 l/m 12,9 km/h (3 Bft) N-NO 22 0 min 0,0 UV-I 0 W/m -5,9 C -10,8 C 14,5 km/h (3 Bft)
15.01.2021 06:21 -4,4 C -4,4 C 89 % 1024,4 hPa 0,0 l/m 12,9 km/h (3 Bft) N-NO 22 0 min 0,0 UV-I 0 W/m -5,9 C -10,8 C 16,1 km/h (3 Bft)
15.01.2021 06:22 -4,4 C -5,0 C 89 % 1024,5 hPa 0,0 l/m 11,3 km/h (2 Bft) N-NO 22 0 min 0,0 UV-I 0 W/m -5,9 C -9,5 C 16,1 km/h (3 Bft)
15.01.2021 06:23 -4,4 C -4,4 C 89 % 1024,4 hPa 0,0 l/m 14,5 km/h (3 Bft) N-NO 22 0 min 0,0 UV-I 0 W/m -5,9 C -12,0 C 17,7 km/h (3 Bft)
15.01.2021 06:24 -4,4 C -4,4 C 89 % 1024,4 hPa 0,0 l/m 14,5 km/h (3 Bft) N-NO 22 0 min 0,0 UV-I 0 W/m -5,9 C -12,0 C 22,5 km/h (4 Bft)
15.01.2021 06:25 -4,3 C -4,4 C 89 % 1024,5 hPa 0,0 l/m 16,1 km/h (3 Bft) N-NO 22 0 min 0,0 UV-I 0 W/m -5,8 C -12,9 C 20,9 km/h (4 Bft)
15.01.2021 06:26 -4,4 C -4,4 C 89 % 1024,6 hPa 0,0 l/m 14,5 km/h (3 Bft) N-NO 22 0 min 0,0 UV-I 0 W/m -5,9 C -12,0 C 20,9 km/h (4 Bft)
15.01.2021 06:27 -4,4 C -4,4 C 89 % 1024,6 hPa 0,0 l/m 12,9 km/h (3 Bft) N-NO 22 0 min 0,0 UV-I 0 W/m -5,9 C -10,8 C 17,7 km/h (3 Bft)
15.01.2021 06:28 -4,4 C -4,4 C 89 % 1024,6 hPa 0,0 l/m 11,3 km/h (2 Bft) N-NO 22 0 min 0,0 UV-I 0 W/m -5,9 C -9,5 C 19,3 km/h (3 Bft)
15.01.2021 06:29 -4,3 C -4,4 C 89 % 1024,6 hPa 0,0 l/m 17,7 km/h (3 Bft) N-NO 22 0 min 0,0 UV-I 0 W/m -5,8 C -13,9 C 20,9 km/h (4 Bft)
15.01.2021 06:30 -4,3 C -4,4 C 89 % 1024,6 hPa 0,0 l/m 16,1 km/h (3 Bft) N-NO 22 0 min 0,0 UV-I 0 W/m -5,8 C -12,9 C 20,9 km/h (4 Bft)
15.01.2021 06:31 -4,3 C -4,4 C 89 % 1024,6 hPa 0,0 l/m 14,5 km/h (3 Bft) N-NO 22 0 min 0,0 UV-I 0 W/m -5,8 C -11,8 C 19,3 km/h (3 Bft)
15.01.2021 06:32 -4,3 C -4,4 C 89 % 1024,6 hPa 0,0 l/m 12,9 km/h (3 Bft) N-NO 22 0 min 0,0 UV-I 0 W/m -5,8 C -10,7 C 16,1 km/h (3 Bft)
15.01.2021 06:33 -4,3 C -4,4 C 89 % 1024,5 hPa 0,0 l/m 16,1 km/h (3 Bft) N-NO 22 0 min 0,0 UV-I 0 W/m -5,8 C -12,9 C 19,3 km/h (3 Bft)
15.01.2021 06:34 -4,3 C -4,4 C 89 % 1024,6 hPa 0,0 l/m 16,1 km/h (3 Bft) N-NO 22 0 min 0,0 UV-I 0 W/m -5,8 C -12,9 C 22,5 km/h (4 Bft)
15.01.2021 06:35 -4,3 C -4,4 C 89 % 1024,6 hPa 0,0 l/m 16,1 km/h (3 Bft) N-NO 22 0 min 0,0 UV-I 0 W/m -5,8 C -12,9 C 20,9 km/h (4 Bft)
15.01.2021 06:36 -4,3 C -4,4 C 89 % 1024,6 hPa 0,0 l/m 16,1 km/h (3 Bft) N-NO 22 0 min 0,0 UV-I 0 W/m -5,8 C -12,9 C 19,3 km/h (3 Bft)
15.01.2021 06:37 -4,3 C -4,4 C 89 % 1024,5 hPa 0,0 l/m 14,5 km/h (3 Bft) N-NO 22 0 min 0,0 UV-I 0 W/m -5,8 C -11,8 C 22,5 km/h (4 Bft)
15.01.2021 06:38 -4,3 C -4,4 C 89 % 1024,6 hPa 0,0 l/m 12,9 km/h (3 Bft) N-NO 22 0 min 0,0 UV-I 0 W/m -5,8 C -10,7 C 20,9 km/h (4 Bft)
15.01.2021 06:39 -4,3 C -4,4 C 89 % 1024,6 hPa 0,0 l/m 16,1 km/h (3 Bft) N-NO 22 0 min 0,0 UV-I 0 W/m -5,8 C -12,9 C 20,9 km/h (4 Bft)
15.01.2021 06:40 -4,2 C -4,4 C 89 % 1024,7 hPa 0,0 l/m 11,3 km/h (2 Bft) N-NO 22 0 min 0,0 UV-I 0 W/m -5,7 C -9,3 C 17,7 km/h (3 Bft)
15.01.2021 06:41 -4,2 C -4,4 C 89 % 1024,7 hPa 0,0 l/m 14,5 km/h (3 Bft) N-NO 22 0 min 0,0 UV-I 0 W/m -5,7 C -11,7 C 22,5 km/h (4 Bft)
15.01.2021 06:42 -4,2 C -4,4 C 89 % 1024,6 hPa 0,0 l/m 12,9 km/h (3 Bft) N-NO 22 0 min 0,0 UV-I 0 W/m -5,7 C -10,6 C 19,3 km/h (3 Bft)
15.01.2021 06:43 -4,2 C -4,4 C 89 % 1024,6 hPa 0,0 l/m 14,5 km/h (3 Bft) N-NO 22 0 min 0,0 UV-I 0 W/m -5,7 C -11,7 C 19,3 km/h (3 Bft)
15.01.2021 06:44 -4,2 C -4,4 C 89 % 1024,6 hPa 0,0 l/m 16,1 km/h (3 Bft) N-NO 22 0 min 0,0 UV-I 0 W/m -5,7 C -12,8 C 22,5 km/h (4 Bft)
15.01.2021 06:45 -4,2 C -4,4 C 89 % 1024,6 hPa 0,0 l/m 16,1 km/h (3 Bft) N-NO 22 0 min 0,0 UV-I 0 W/m -5,7 C -12,8 C 20,9 km/h (4 Bft)
15.01.2021 06:46 -4,2 C -4,4 C 89 % 1024,7 hPa 0,0 l/m 16,1 km/h (3 Bft) N-NO 22 0 min 0,0 UV-I 0 W/m -5,7 C -12,8 C 24,1 km/h (4 Bft)
15.01.2021 06:47 -4,2 C -4,4 C 89 % 1024,7 hPa 0,0 l/m 16,1 km/h (3 Bft) N-NO 22 0 min 0,0 UV-I 0 W/m -5,7 C -12,8 C 19,3 km/h (3 Bft)
15.01.2021 06:48 -4,1 C -4,4 C 89 % 1024,6 hPa 0,0 l/m 17,7 km/h (3 Bft) N-NO 22 0 min 0,0 UV-I 0 W/m -5,6 C -13,7 C 24,1 km/h (4 Bft)
15.01.2021 06:49 -4,1 C -4,4 C 89 % 1024,7 hPa 0,0 l/m 12,9 km/h (3 Bft) N-NO 22 0 min 0,0 UV-I 0 W/m -5,6 C -10,4 C 19,3 km/h (3 Bft)
15.01.2021 06:50 -4,1 C -4,4 C 89 % 1024,7 hPa 0,0 l/m 14,5 km/h (3 Bft) N-NO 22 0 min 0,0 UV-I 0 W/m -5,6 C -11,6 C 20,9 km/h (4 Bft)
15.01.2021 06:51 -4,1 C -3,9 C 89 % 1024,7 hPa 0,0 l/m 16,1 km/h (3 Bft) N-NO 22 0 min 0,0 UV-I 0 W/m -5,6 C -12,7 C 20,9 km/h (4 Bft)
15.01.2021 06:52 -4,1 C -3,9 C 89 % 1024,7 hPa 0,0 l/m 12,9 km/h (3 Bft) N-NO 22 0 min 0,0 UV-I 0 W/m -5,6 C -10,4 C 19,3 km/h (3 Bft)
15.01.2021 06:53 -4,1 C -3,9 C 89 % 1024,8 hPa 0,0 l/m 14,5 km/h (3 Bft) N-NO 22 0 min 0,0 UV-I 0 W/m -5,6 C -11,6 C 19,3 km/h (3 Bft)
15.01.2021 06:54 -4,1 C -3,9 C 89 % 1024,8 hPa 0,0 l/m 14,5 km/h (3 Bft) N-NO 22 0 min 0,0 UV-I 0 W/m -5,6 C -11,6 C 19,3 km/h (3 Bft)
15.01.2021 06:55 -4,0 C -3,9 C 89 % 1024,7 hPa 0,0 l/m 14,5 km/h (3 Bft) N-NO 22 0 min 0,0 UV-I 0 W/m -5,5 C -11,5 C 17,7 km/h (3 Bft)
15.01.2021 06:56 -4,0 C -3,9 C 89 % 1024,8 hPa 0,0 l/m 12,9 km/h (3 Bft) N-NO 22 0 min 0,0 UV-I 0 W/m -5,5 C -10,3 C 19,3 km/h (3 Bft)
15.01.2021 06:57 -4,0 C -3,9 C 89 % 1024,7 hPa 0,0 l/m 12,9 km/h (3 Bft) N-NO 22 0 min 0,0 UV-I 0 W/m -5,5 C -10,3 C 20,9 km/h (4 Bft)
15.01.2021 06:58 -4,0 C -3,9 C 89 % 1024,8 hPa 0,0 l/m 12,9 km/h (3 Bft) N-NO 22 0 min 0,0 UV-I 0 W/m -5,5 C -10,3 C 17,7 km/h (3 Bft)
15.01.2021 06:59 -3,9 C -3,9 C 89 % 1024,8 hPa 0,0 l/m 16,1 km/h (3 Bft) N-NO 22 0 min 0,0 UV-I 0 W/m -5,4 C -12,4 C 22,5 km/h (4 Bft)
15.01.2021 07:00 -3,9 C -3,9 C 89 % 1024,7 hPa 0,0 l/m 11,3 km/h (2 Bft) N-NO 22 0 min 0,0 UV-I 0 W/m -5,4 C -8,9 C 17,7 km/h (3 Bft)
15.01.2021 07:01 -3,9 C -3,9 C 89 % 1024,8 hPa 0,0 l/m 9,7 km/h (2 Bft) N-NO 22 0 min 0,0 UV-I 0 W/m -5,4 C -7,5 C 17,7 km/h (3 Bft)
15.01.2021 07:02 -3,9 C -3,9 C 89 % 1024,9 hPa 0,0 l/m 16,1 km/h (3 Bft) N-NO 22 0 min 0,0 UV-I 0 W/m -5,4 C -12,4 C 20,9 km/h (4 Bft)
15.01.2021 07:03 -3,9 C -3,9 C 89 % 1024,8 hPa 0,0 l/m 16,1 km/h (3 Bft) N-NO 22 0 min 0,0 UV-I 0 W/m -5,4 C -12,4 C 19,3 km/h (3 Bft)
15.01.2021 07:04 -3,9 C -3,9 C 89 % 1024,9 hPa 0,0 l/m 11,3 km/h (2 Bft) N-NO 22 0 min 0,0 UV-I 0 W/m -5,4 C -8,9 C 17,7 km/h (3 Bft)
15.01.2021 07:05 -3,9 C -3,9 C 89 % 1024,9 hPa 0,0 l/m 11,3 km/h (2 Bft) N-NO 22 0 min 0,0 UV-I 0 W/m -5,4 C -8,9 C 17,7 km/h (3 Bft)
15.01.2021 07:06 -3,8 C -3,9 C 89 % 1024,9 hPa 0,0 l/m 14,5 km/h (3 Bft) N-NO 22 0 min 0,0 UV-I 0 W/m -5,3 C -11,2 C 17,7 km/h (3 Bft)
15.01.2021 07:07 -3,8 C -3,9 C 89 % 1024,8 hPa 0,0 l/m 12,9 km/h (3 Bft) N-NO 22 0 min 0,0 UV-I 0 W/m -5,3 C -10,1 C 17,7 km/h (3 Bft)
15.01.2021 07:08 -3,8 C -3,9 C 89 % 1025,0 hPa 0,0 l/m 12,9 km/h (3 Bft) N-NO 22 0 min 0,0 UV-I 0 W/m -5,3 C -10,1 C 16,1 km/h (3 Bft)
15.01.2021 07:09 -3,8 C -3,9 C 89 % 1025,0 hPa 0,0 l/m 11,3 km/h (2 Bft) N 360 0 min 0,0 UV-I 0 W/m -5,3 C -8,8 C 16,1 km/h (3 Bft)
15.01.2021 07:10 -3,8 C -3,9 C 89 % 1025,0 hPa 0,0 l/m 12,9 km/h (3 Bft) N 360 0 min 0,0 UV-I 0 W/m -5,3 C -10,1 C 17,7 km/h (3 Bft)
15.01.2021 07:11 -3,8 C -3,9 C 89 % 1025,0 hPa 0,0 l/m 11,3 km/h (2 Bft) N-NO 22 0 min 0,0 UV-I 0 W/m -5,3 C -8,8 C 16,1 km/h (3 Bft)
15.01.2021 07:12 -3,8 C -3,9 C 89 % 1025,1 hPa 0,0 l/m 11,3 km/h (2 Bft) N-NO 22 0 min 0,0 UV-I 0 W/m -5,3 C -8,8 C 16,1 km/h (3 Bft)
15.01.2021 07:13 -3,8 C -3,9 C 89 % 1025,0 hPa 0,0 l/m 14,5 km/h (3 Bft) N 360 0 min 0,0 UV-I 0 W/m -5,3 C -11,2 C 19,3 km/h (3 Bft)
15.01.2021 07:14 -3,8 C -3,9 C 89 % 1025,1 hPa 0,0 l/m 12,9 km/h (3 Bft) N-NO 22 0 min 0,0 UV-I 0 W/m -5,3 C -10,1 C 17,7 km/h (3 Bft)
15.01.2021 07:15 -3,8 C -3,9 C 89 % 1025,1 hPa 0,0 l/m 12,9 km/h (3 Bft) N 360 0 min 0,0 UV-I 0 W/m -5,3 C -10,1 C 17,7 km/h (3 Bft)
15.01.2021 07:16 -3,8 C -3,9 C 89 % 1025,1 hPa 0,0 l/m 12,9 km/h (3 Bft) N-NO 22 0 min 0,0 UV-I 0 W/m -5,3 C -10,1 C 17,7 km/h (3 Bft)
15.01.2021 07:17 -3,8 C -3,9 C 89 % 1025,1 hPa 0,0 l/m 14,5 km/h (3 Bft) N-NO 22 0 min 0,0 UV-I 0 W/m -5,3 C -11,2 C 20,9 km/h (4 Bft)
15.01.2021 07:18 -3,8 C -3,9 C 89 % 1025,2 hPa 0,0 l/m 17,7 km/h (3 Bft) N-NO 22 0 min 0,0 UV-I 0 W/m -5,3 C -13,3 C 20,9 km/h (4 Bft)
15.01.2021 07:19 -3,7 C -3,9 C 89 % 1025,1 hPa 0,0 l/m 11,3 km/h (2 Bft) N-NO 22 0 min 0,0 UV-I 0 W/m -5,2 C -8,7 C 17,7 km/h (3 Bft)
15.01.2021 07:20 -3,7 C -3,9 C 89 % 1025,1 hPa 0,0 l/m 11,3 km/h (2 Bft) N-NO 22 0 min 0,0 UV-I 0 W/m -5,2 C -8,7 C 17,7 km/h (3 Bft)
15.01.2021 07:21 -3,7 C -3,9 C 89 % 1025,1 hPa 0,0 l/m 14,5 km/h (3 Bft) N-NO 22 0 min 0,0 UV-I 0 W/m -5,2 C -11,1 C 19,3 km/h (3 Bft)
15.01.2021 07:22 -3,7 C -3,9 C 89 % 1025,2 hPa 0,0 l/m 9,7 km/h (2 Bft) N-NO 22 0 min 0,0 UV-I 0 W/m -5,2 C -7,3 C 14,5 km/h (3 Bft)
15.01.2021 07:23 -3,7 C -3,3 C 89 % 1025,2 hPa 0,0 l/m 14,5 km/h (3 Bft) N-NO 22 0 min 0,0 UV-I 0 W/m -5,2 C -11,1 C 19,3 km/h (3 Bft)
15.01.2021 07:24 -3,7 C -3,3 C 88 % 1025,2 hPa 0,0 l/m 11,3 km/h (2 Bft) N-NO 22 0 min 0,0 UV-I 0 W/m -5,4 C -8,7 C 14,5 km/h (3 Bft)
15.01.2021 07:25 -3,7 C -3,3 C 88 % 1025,1 hPa 0,0 l/m 11,3 km/h (2 Bft) N-NO 22 0 min 0,0 UV-I 0 W/m -5,4 C -8,7 C 17,7 km/h (3 Bft)
15.01.2021 07:26 -3,7 C -3,3 C 88 % 1025,2 hPa 0,0 l/m 11,3 km/h (2 Bft) N-NO 22 0 min 0,0 UV-I 0 W/m -5,4 C -8,7 C 14,5 km/h (3 Bft)
15.01.2021 07:27 -3,7 C -3,3 C 88 % 1025,2 hPa 0,0 l/m 14,5 km/h (3 Bft) N-NO 22 0 min 0,0 UV-I 0 W/m -5,4 C -11,1 C 20,9 km/h (4 Bft)
15.01.2021 07:28 -3,7 C -3,3 C 88 % 1025,2 hPa 0,0 l/m 12,9 km/h (3 Bft) N-NO 22 0 min 0,0 UV-I 0 W/m -5,4 C -10,0 C 19,3 km/h (3 Bft)
15.01.2021 07:29 -3,7 C -3,3 C 88 % 1025,2 hPa 0,0 l/m 16,1 km/h (3 Bft) N-NO 22 0 min 0,0 UV-I 0 W/m -5,4 C -12,2 C 19,3 km/h (3 Bft)
15.01.2021 07:30 -3,7 C -3,3 C 88 % 1025,2 hPa 0,0 l/m 14,5 km/h (3 Bft) N-NO 22 0 min 0,0 UV-I 0 W/m -5,4 C -11,1 C 20,9 km/h (4 Bft)
15.01.2021 07:31 -3,7 C -3,3 C 88 % 1025,2 hPa 0,0 l/m 16,1 km/h (3 Bft) N-NO 22 0 min 0,0 UV-I 0 W/m -5,4 C -12,2 C 19,3 km/h (3 Bft)
15.01.2021 07:32 -3,7 C -3,3 C 88 % 1025,2 hPa 0,0 l/m 11,3 km/h (2 Bft) N-NO 22 0 min 0,0 UV-I 0 W/m -5,4 C -8,7 C 17,7 km/h (3 Bft)
15.01.2021 07:33 -3,7 C -3,3 C 88 % 1025,2 hPa 0,0 l/m 16,1 km/h (3 Bft) N-NO 22 0 min 0,0 UV-I 0 W/m -5,4 C -12,2 C 22,5 km/h (4 Bft)
15.01.2021 07:34 -3,7 C -3,3 C 88 % 1025,3 hPa 0,0 l/m 12,9 km/h (3 Bft) N-NO 22 0 min 0,0 UV-I 0 W/m -5,4 C -10,0 C 20,9 km/h (4 Bft)
15.01.2021 07:35 -3,7 C -3,3 C 88 % 1025,3 hPa 0,0 l/m 14,5 km/h (3 Bft) N-NO 22 0 min 0,0 UV-I 0 W/m -5,4 C -11,1 C 17,7 km/h (3 Bft)
15.01.2021 07:36 -3,7 C -3,3 C 88 % 1025,4 hPa 0,0 l/m 16,1 km/h (3 Bft) N-NO 22 0 min 0,0 UV-I 0 W/m -5,4 C -12,2 C 20,9 km/h (4 Bft)
15.01.2021 07:37 -3,7 C -3,3 C 88 % 1025,4 hPa 0,0 l/m 14,5 km/h (3 Bft) N-NO 22 0 min 0,0 UV-I 0 W/m -5,4 C -11,1 C 19,3 km/h (3 Bft)
15.01.2021 07:38 -3,7 C -3,3 C 88 % 1025,4 hPa 0,0 l/m 11,3 km/h (2 Bft) N-NO 22 0 min 0,0 UV-I 0 W/m -5,4 C -8,7 C 17,7 km/h (3 Bft)
15.01.2021 07:39 -3,7 C -3,3 C 88 % 1025,3 hPa 0,0 l/m 16,1 km/h (3 Bft) N-NO 22 0 min 0,0 UV-I 0 W/m -5,4 C -12,2 C 20,9 km/h (4 Bft)
15.01.2021 07:40 -3,7 C -3,3 C 88 % 1025,3 hPa 0,0 l/m 12,9 km/h (3 Bft) N-NO 22 0 min 0,0 UV-I 0 W/m -5,4 C -10,0 C 17,7 km/h (3 Bft)
15.01.2021 07:41 -3,7 C -3,3 C 88 % 1025,4 hPa 0,0 l/m 14,5 km/h (3 Bft) N-NO 22 0 min 0,0 UV-I 0 W/m -5,4 C -11,1 C 22,5 km/h (4 Bft)
15.01.2021 07:42 -3,6 C -3,3 C 88 % 1025,4 hPa 0,0 l/m 14,5 km/h (3 Bft) N-NO 22 0 min 0,0 UV-I 0 W/m -5,3 C -11,0 C 19,3 km/h (3 Bft)
15.01.2021 07:43 -3,6 C -3,3 C 88 % 1025,4 hPa 0,0 l/m 9,7 km/h (2 Bft) N-NO 22 0 min 0,0 UV-I 0 W/m -5,3 C -7,1 C 17,7 km/h (3 Bft)
15.01.2021 07:44 -3,6 C -3,3 C 88 % 1025,4 hPa 0,0 l/m 11,3 km/h (2 Bft) N 360 0 min 0,0 UV-I 0 W/m -5,3 C -8,6 C 16,1 km/h (3 Bft)
15.01.2021 07:45 -3,7 C -3,3 C 88 % 1025,5 hPa 0,0 l/m 12,9 km/h (3 Bft) N-NO 22 0 min 0,0 UV-I 0 W/m -5,4 C -10,0 C 19,3 km/h (3 Bft)
15.01.2021 07:46 -3,7 C -3,3 C 88 % 1025,5 hPa 0,0 l/m 14,5 km/h (3 Bft) N-NO 22 0 min 0,0 UV-I 0 W/m -5,4 C -11,1 C 20,9 km/h (4 Bft)
15.01.2021 07:47 -3,6 C -3,3 C 88 % 1025,5 hPa 0,0 l/m 9,7 km/h (2 Bft) N-NO 22 0 min 0,0 UV-I 0 W/m -5,3 C -7,1 C 14,5 km/h (3 Bft)
15.01.2021 07:48 -3,6 C -3,3 C 88 % 1025,4 hPa 0,0 l/m 14,5 km/h (3 Bft) N-NO 22 0 min 0,0 UV-I 0 W/m -5,3 C -11,0 C 20,9 km/h (4 Bft)
15.01.2021 07:49 -3,7 C -3,3 C 88 % 1025,4 hPa 0,0 l/m 6,4 km/h (2 Bft) N-NO 22 0 min 0,0 UV-I 0 W/m -5,4 C -3,6 C 8,0 km/h (2 Bft)
15.01.2021 07:52 -3,7 C -3,3 C 88 % 1025,6 hPa 0,0 l/m 16,0 km/h (3 Bft) N-NO 16 0 min 0,0 UV-I 0 W/m -5,4 C -12,1 C 20,9 km/h (4 Bft)
15.01.2021 07:54 -3,7 C -3,3 C 88 % 1025,5 hPa 0,0 l/m 13,8 km/h (3 Bft) NO 34 0 min 0,0 UV-I 0 W/m -5,4 C -10,6 C 22,5 km/h (4 Bft)
15.01.2021 07:56 -3,6 C -3,3 C 88 % 1025,6 hPa 0,0 l/m 18,4 km/h (3 Bft) N 355 0 min 0,0 UV-I 0 W/m -5,3 C -13,4 C 25,7 km/h (4 Bft)
15.01.2021 07:58 -3,6 C -3,3 C 88 % 1025,5 hPa 0,0 l/m 16,5 km/h (3 Bft) N-NO 33 0 min 0,0 UV-I 0 W/m -5,3 C -12,3 C 22,5 km/h (4 Bft)
15.01.2021 08:00 -3,6 C -3,3 C 88 % 1025,6 hPa 0,0 l/m 15,6 km/h (3 Bft) N-NO 15 0 min 0,0 UV-I 0 W/m -5,3 C -11,7 C 24,1 km/h (4 Bft)
15.01.2021 08:02 -3,6 C -3,3 C 88 % 1025,6 hPa 0,0 l/m 15,4 km/h (3 Bft) N-NO 29 0 min 0,0 UV-I 0 W/m -5,3 C -11,6 C 20,9 km/h (4 Bft)
15.01.2021 08:04 -3,6 C -3,3 C 88 % 1025,8 hPa 0,0 l/m 14,1 km/h (3 Bft) N 5 0 min 0,0 UV-I 0 W/m -5,3 C -10,7 C 19,3 km/h (3 Bft)
15.01.2021 08:06 -3,6 C -3,3 C 88 % 1025,8 hPa 0,0 l/m 14,6 km/h (3 Bft) N 355 0 min 0,0 UV-I 0 W/m -5,3 C -11,1 C 19,3 km/h (3 Bft)
15.01.2021 08:08 -3,6 C -3,3 C 88 % 1025,8 hPa 0,0 l/m 9,5 km/h (2 Bft) N-NO 12 0 min 0,0 UV-I 0 W/m -5,3 C -7,0 C 17,7 km/h (3 Bft)
15.01.2021 08:10 -3,6 C -3,3 C 88 % 1025,9 hPa 0,0 l/m 15,8 km/h (3 Bft) N-NW 343 0 min 0,0 UV-I 0 W/m -5,3 C -11,9 C 20,9 km/h (4 Bft)
15.01.2021 08:12 -3,6 C -3,3 C 88 % 1025,8 hPa 0,0 l/m 13,6 km/h (3 Bft) N 5 0 min 0,0 UV-I 0 W/m -5,3 C -10,4 C 20,9 km/h (4 Bft)
15.01.2021 08:14 -3,6 C -3,3 C 88 % 1025,9 hPa 0,0 l/m 11,6 km/h (2 Bft) N-NO 16 0 min 0,0 UV-I 0 W/m -5,3 C -8,8 C 20,9 km/h (4 Bft)
15.01.2021 08:16 -3,6 C -3,3 C 88 % 1025,9 hPa 0,0 l/m 11,8 km/h (2 Bft) N 360 0 min 0,0 UV-I 0 W/m -5,3 C -9,0 C 17,7 km/h (3 Bft)
15.01.2021 08:18 -3,6 C -3,3 C 88 % 1025,9 hPa 0,0 l/m 15,5 km/h (3 Bft) N 5 0 min 0,0 UV-I 0 W/m -5,3 C -11,7 C 22,5 km/h (4 Bft)
15.01.2021 08:20 -3,6 C -3,3 C 89 % 1025,9 hPa 0,0 l/m 11,3 km/h (2 Bft) N-NO 31 0 min 0,0 UV-I 0 W/m -5,1 C -8,6 C 16,1 km/h (3 Bft)
15.01.2021 08:22 -3,6 C -3,3 C 89 % 1026,0 hPa 0,0 l/m 11,9 km/h (2 Bft) N 5 0 min 0,0 UV-I 0 W/m -5,1 C -9,1 C 25,7 km/h (4 Bft)
15.01.2021 08:24 -3,6 C -3,3 C 89 % 1026,1 hPa 0,0 l/m 12,2 km/h (2 Bft) N-NO 29 0 min 0,0 UV-I 0 W/m -5,1 C -9,3 C 22,5 km/h (4 Bft)
15.01.2021 08:26 -3,6 C -3,3 C 88 % 1026,1 hPa 0,0 l/m 12,3 km/h (3 Bft) N-NO 18 0 min 0,0 UV-I 0 W/m -5,3 C -9,4 C 19,3 km/h (3 Bft)
15.01.2021 08:28 -3,6 C -3,3 C 88 % 1026,1 hPa 0,0 l/m 14,3 km/h (3 Bft) N 9 0 min 0,0 UV-I 0 W/m -5,3 C -10,9 C 19,3 km/h (3 Bft)
15.01.2021 08:30 -3,6 C -3,3 C 88 % 1026,1 hPa 0,0 l/m 12,5 km/h (3 Bft) N 5 0 min 0,0 UV-I 0 W/m -5,3 C -9,5 C 17,7 km/h (3 Bft)
15.01.2021 08:32 -3,6 C -3,3 C 88 % 1026,1 hPa 0,0 l/m 11,5 km/h (2 Bft) N-NO 20 0 min 0,0 UV-I 0 W/m -5,3 C -8,7 C 17,7 km/h (3 Bft)
15.01.2021 08:34 -3,6 C -3,3 C 88 % 1026,1 hPa 0,0 l/m 13,9 km/h (3 Bft) N-NO 15 0 min 0,0 UV-I 0 W/m -5,3 C -10,6 C 19,3 km/h (3 Bft)
15.01.2021 08:36 -3,6 C -3,3 C 88 % 1026,2 hPa 0,0 l/m 13,7 km/h (3 Bft) N-NO 19 0 min 0,0 UV-I 0 W/m -5,3 C -10,4 C 20,9 km/h (4 Bft)
15.01.2021 08:38 -3,5 C -3,3 C 88 % 1026,3 hPa 0,0 l/m 12,7 km/h (3 Bft) N-NO 28 0 min 0,0 UV-I 0 W/m -5,2 C -9,6 C 22,5 km/h (4 Bft)
15.01.2021 08:40 -3,6 C -3,3 C 88 % 1026,3 hPa 0,0 l/m 11,8 km/h (2 Bft) N-NO 32 0 min 0,0 UV-I 0 W/m -5,3 C -9,0 C 19,3 km/h (3 Bft)
15.01.2021 08:42 -3,5 C -3,3 C 88 % 1026,2 hPa 0,0 l/m 9,6 km/h (2 Bft) N-NO 29 0 min 0,0 UV-I 0 W/m -5,2 C -6,9 C 14,5 km/h (3 Bft)
15.01.2021 08:44 -3,5 C -3,3 C 88 % 1026,3 hPa 0,0 l/m 8,0 km/h (2 Bft) N-NO 19 0 min 0,0 UV-I 1 W/m -5,2 C -5,3 C 14,5 km/h (3 Bft)
15.01.2021 08:46 -3,5 C -3,3 C 88 % 1026,3 hPa 0,0 l/m 11,4 km/h (2 Bft) N-NO 13 0 min 0,0 UV-I 5 W/m -5,2 C -8,5 C 17,7 km/h (3 Bft)
15.01.2021 08:48 -3,5 C -3,3 C 88 % 1026,3 hPa 0,0 l/m 10,6 km/h (2 Bft) N 11 0 min 0,0 UV-I 5 W/m -5,2 C -7,9 C 14,5 km/h (3 Bft)
15.01.2021 08:50 -3,5 C -3,3 C 88 % 1026,3 hPa 0,0 l/m 11,8 km/h (2 Bft) N-NO 14 0 min 0,0 UV-I 6 W/m -5,2 C -8,9 C 17,7 km/h (3 Bft)
15.01.2021 08:52 -3,5 C -3,3 C 88 % 1026,5 hPa 0,0 l/m 9,6 km/h (2 Bft) N-NW 342 0 min 0,0 UV-I 7 W/m -5,2 C -6,9 C 17,7 km/h (3 Bft)
15.01.2021 08:54 -3,5 C -3,3 C 88 % 1026,5 hPa 0,0 l/m 10,2 km/h (2 Bft) N-NO 24 0 min 0,0 UV-I 9 W/m -5,2 C -7,5 C 14,5 km/h (3 Bft)
15.01.2021 08:56 -3,4 C -3,3 C 88 % 1026,5 hPa 0,0 l/m 9,3 km/h (2 Bft) N 5 0 min 0,0 UV-I 10 W/m -5,1 C -6,5 C 14,5 km/h (3 Bft)
15.01.2021 08:58 -3,5 C -3,3 C 88 % 1026,6 hPa 0,0 l/m 6,1 km/h (2 Bft) N 11 0 min 0,0 UV-I 11 W/m -5,2 C -3,5 C 11,3 km/h (2 Bft)
15.01.2021 09:00 -3,4 C -3,3 C 88 % 1026,5 hPa 0,0 l/m 10,7 km/h (2 Bft) N 355 0 min 0,0 UV-I 12 W/m -5,1 C -7,8 C 19,3 km/h (3 Bft)
15.01.2021 09:02 -3,5 C -3,3 C 88 % 1026,6 hPa 0,0 l/m 13,0 km/h (3 Bft) N-NO 13 0 min 0,0 UV-I 12 W/m -5,2 C -9,8 C 20,9 km/h (4 Bft)
15.01.2021 09:04 -3,4 C -3,3 C 88 % 1026,6 hPa 0,0 l/m 14,8 km/h (3 Bft) N 360 0 min 0,0 UV-I 13 W/m -5,1 C -11,0 C 20,9 km/h (4 Bft)
15.01.2021 09:06 -3,4 C -3,3 C 88 % 1026,7 hPa 0,0 l/m 11,1 km/h (2 Bft) N-NO 16 0 min 0,0 UV-I 14 W/m -5,1 C -8,2 C 20,9 km/h (4 Bft)
15.01.2021 09:08 -3,4 C -3,3 C 88 % 1026,7 hPa 0,0 l/m 12,4 km/h (3 Bft) N 5 0 min 0,0 UV-I 16 W/m -5,1 C -9,2 C 20,9 km/h (4 Bft)
15.01.2021 09:10 -3,4 C -3,3 C 88 % 1026,8 hPa 0,0 l/m 13,6 km/h (3 Bft) N 360 0 min 0,0 UV-I 17 W/m -5,1 C -10,1 C 19,3 km/h (3 Bft)
15.01.2021 09:12 -3,4 C -3,3 C 88 % 1026,8 hPa 0,0 l/m 12,2 km/h (2 Bft) N 5 0 min 0,0 UV-I 18 W/m -5,1 C -9,1 C 19,3 km/h (3 Bft)
15.01.2021 09:14 -3,4 C -3,3 C 88 % 1026,8 hPa 0,0 l/m 12,4 km/h (3 Bft) N-NO 16 0 min 0,0 UV-I 20 W/m -5,1 C -9,2 C 20,9 km/h (4 Bft)
15.01.2021 09:16 -3,4 C -3,3 C 88 % 1026,8 hPa 0,0 l/m 12,9 km/h (3 Bft) N-NO 25 0 min 0,0 UV-I 21 W/m -5,1 C -9,6 C 20,9 km/h (4 Bft)
15.01.2021 09:18 -3,3 C -3,3 C 88 % 1026,9 hPa 0,0 l/m 15,4 km/h (3 Bft) N 11 0 min 0,0 UV-I 23 W/m -5,0 C -11,2 C 20,9 km/h (4 Bft)
15.01.2021 09:20 -3,3 C -3,3 C 88 % 1027,0 hPa 0,0 l/m 13,1 km/h (3 Bft) N 5 0 min 0,0 UV-I 25 W/m -5,0 C -9,6 C 20,9 km/h (4 Bft)
15.01.2021 09:22 -3,3 C -3,3 C 88 % 1027,0 hPa 0,0 l/m 12,7 km/h (3 Bft) N 9 0 min 0,0 UV-I 25 W/m -5,0 C -9,3 C 16,1 km/h (3 Bft)
15.01.2021 09:24 -3,3 C -3,3 C 88 % 1027,0 hPa 0,0 l/m 15,2 km/h (3 Bft) N-NO 17 0 min 0,0 UV-I 26 W/m -5,0 C -11,1 C 19,3 km/h (3 Bft)
15.01.2021 09:26 -3,3 C -2,8 C 88 % 1027,1 hPa 0,0 l/m 13,9 km/h (3 Bft) N-NO 13 0 min 0,0 UV-I 27 W/m -5,0 C -10,2 C 17,7 km/h (3 Bft)
15.01.2021 09:28 -3,3 C -2,8 C 88 % 1027,1 hPa 0,0 l/m 12,5 km/h (3 Bft) N-NO 22 0 min 0,0 UV-I 28 W/m -5,0 C -9,2 C 17,7 km/h (3 Bft)
15.01.2021 09:30 -3,3 C -2,8 C 88 % 1027,2 hPa 0,0 l/m 15,8 km/h (3 Bft) N 360 0 min 0,0 UV-I 30 W/m -5,0 C -11,5 C 20,9 km/h (4 Bft)
15.01.2021 09:32 -3,3 C -2,8 C 88 % 1027,2 hPa 0,0 l/m 12,8 km/h (3 Bft) N-NO 13 0 min 0,0 UV-I 30 W/m -5,0 C -9,4 C 17,7 km/h (3 Bft)
15.01.2021 09:34 -3,3 C -2,8 C 88 % 1027,2 hPa 0,0 l/m 13,7 km/h (3 Bft) N 5 0 min 0,0 UV-I 32 W/m -5,0 C -10,1 C 19,3 km/h (3 Bft)
15.01.2021 09:36 -3,3 C -2,8 C 88 % 1027,2 hPa 0,0 l/m 12,5 km/h (3 Bft) N 5 0 min 0,0 UV-I 33 W/m -5,0 C -9,2 C 17,7 km/h (3 Bft)
15.01.2021 09:38 -3,2 C -2,8 C 88 % 1027,2 hPa 0,0 l/m 13,5 km/h (3 Bft) N-NO 12 0 min 0,0 UV-I 34 W/m -4,9 C -9,8 C 19,3 km/h (3 Bft)
15.01.2021 09:40 -3,2 C -2,8 C 88 % 1027,2 hPa 0,0 l/m 12,1 km/h (2 Bft) N-NO 12 0 min 0,0 UV-I 35 W/m -4,9 C -8,8 C 19,3 km/h (3 Bft)
15.01.2021 09:42 -3,2 C -2,8 C 88 % 1027,3 hPa 0,0 l/m 10,9 km/h (2 Bft) N 5 0 min 0,0 UV-I 36 W/m -4,9 C -7,8 C 17,7 km/h (3 Bft)
15.01.2021 09:44 -3,2 C -2,8 C 88 % 1027,4 hPa 0,0 l/m 13,5 km/h (3 Bft) N 351 0 min 0,0 UV-I 38 W/m -4,9 C -9,8 C 17,7 km/h (3 Bft)
15.01.2021 09:46 -3,2 C -2,8 C 88 % 1027,4 hPa 0,0 l/m 16,2 km/h (3 Bft) N-NO 18 0 min 0,0 UV-I 39 W/m -4,9 C -11,6 C 20,9 km/h (4 Bft)
15.01.2021 09:48 -3,2 C -2,8 C 88 % 1027,4 hPa 0,0 l/m 12,3 km/h (3 Bft) N 9 0 min 0,0 UV-I 40 W/m -4,9 C -8,9 C 19,3 km/h (3 Bft)
15.01.2021 09:50 -3,2 C -2,8 C 88 % 1027,5 hPa 0,0 l/m 14,1 km/h (3 Bft) N 355 0 min 0,0 UV-I 41 W/m -4,9 C -10,2 C 17,7 km/h (3 Bft)
15.01.2021 09:52 -3,1 C -2,8 C 87 % 1027,6 hPa 0,0 l/m 15,9 km/h (3 Bft) N 9 0 min 0,0 UV-I 44 W/m -4,9 C -11,3 C 19,3 km/h (3 Bft)
15.01.2021 09:54 -3,1 C -2,8 C 87 % 1027,7 hPa 0,0 l/m 12,8 km/h (3 Bft) N 5 0 min 0,0 UV-I 44 W/m -4,9 C -9,2 C 17,7 km/h (3 Bft)
15.01.2021 09:56 -3,1 C -2,8 C 87 % 1027,7 hPa 0,0 l/m 13,6 km/h (3 Bft) N 5 0 min 0,0 UV-I 45 W/m -4,9 C -9,8 C 19,3 km/h (3 Bft)
15.01.2021 09:58 -3,1 C -2,8 C 87 % 1027,7 hPa 0,0 l/m 10,2 km/h (2 Bft) N 10 0 min 0,0 UV-I 48 W/m -4,9 C -7,1 C 14,5 km/h (3 Bft)
15.01.2021 10:00 -3,1 C -2,8 C 87 % 1027,7 hPa 0,0 l/m 7,9 km/h (2 Bft) N 5 0 min 0,0 UV-I 51 W/m -4,9 C -4,8 C 12,9 km/h (3 Bft)
15.01.2021 10:02 -3,1 C -2,8 C 88 % 1027,8 hPa 0,0 l/m 9,2 km/h (2 Bft) N 360 0 min 0,0 UV-I 52 W/m -4,8 C -6,1 C 14,5 km/h (3 Bft)
15.01.2021 10:04 -3,1 C -2,8 C 88 % 1027,8 hPa 0,0 l/m 9,6 km/h (2 Bft) N 5 0 min 0,0 UV-I 54 W/m -4,8 C -6,5 C 12,9 km/h (3 Bft)
15.01.2021 10:06 -3,1 C -2,8 C 88 % 1027,7 hPa 0,0 l/m 9,4 km/h (2 Bft) N 355 0 min 0,0 UV-I 57 W/m -4,8 C -6,3 C 12,9 km/h (3 Bft)
15.01.2021 10:08 -3,0 C -2,2 C 87 % 1027,8 hPa 0,0 l/m 11,4 km/h (2 Bft) N 5 0 min 0,0 UV-I 60 W/m -4,9 C -8,0 C 17,7 km/h (3 Bft)
15.01.2021 10:10 -3,0 C -2,2 C 87 % 1027,8 hPa 0,0 l/m 11,7 km/h (2 Bft) N 11 0 min 0,0 UV-I 62 W/m -4,9 C -8,2 C 16,1 km/h (3 Bft)
15.01.2021 10:12 -3,0 C -2,2 C 87 % 1027,8 hPa 0,0 l/m 11,1 km/h (2 Bft) N 355 0 min 0,0 UV-I 64 W/m -4,9 C -7,7 C 14,5 km/h (3 Bft)
15.01.2021 10:14 -3,0 C -2,2 C 87 % 1027,9 hPa 0,0 l/m 13,0 km/h (3 Bft) N 5 0 min 0,0 UV-I 66 W/m -4,9 C -9,2 C 17,7 km/h (3 Bft)
15.01.2021 10:16 -3,0 C -2,2 C 87 % 1027,9 hPa 0,0 l/m 10,7 km/h (2 Bft) N-NW 333 0 min 0,0 UV-I 69 W/m -4,9 C -7,4 C 16,1 km/h (3 Bft)
15.01.2021 10:18 -2,9 C -2,2 C 87 % 1027,9 hPa 0,0 l/m 13,1 km/h (3 Bft) N-NW 340 0 min 0,0 UV-I 70 W/m -4,8 C -9,2 C 16,1 km/h (3 Bft)
15.01.2021 10:20 -2,9 C -2,2 C 87 % 1027,9 hPa 0,0 l/m 11,7 km/h (2 Bft) N 355 0 min 0,0 UV-I 72 W/m -4,8 C -8,1 C 16,1 km/h (3 Bft)
15.01.2021 10:22 -2,9 C -2,2 C 87 % 1028,0 hPa 0,0 l/m 9,2 km/h (2 Bft) N 360 0 min 0,0 UV-I 72 W/m -4,8 C -5,9 C 14,5 km/h (3 Bft)
15.01.2021 10:24 -2,9 C -2,2 C 87 % 1028,0 hPa 0,0 l/m 7,8 km/h (2 Bft) N 5 0 min 0,0 UV-I 74 W/m -4,8 C -4,5 C 11,3 km/h (2 Bft)
15.01.2021 10:26 -2,9 C -2,2 C 87 % 1028,0 hPa 0,0 l/m 8,1 km/h (2 Bft) N-NO 12 0 min 0,0 UV-I 77 W/m -4,8 C -4,8 C 12,9 km/h (3 Bft)
15.01.2021 10:28 -2,8 C -2,2 C 87 % 1028,1 hPa 0,0 l/m 10,9 km/h (2 Bft) N 5 0 min 0,0 UV-I 77 W/m -4,7 C -7,3 C 16,1 km/h (3 Bft)
15.01.2021 10:30 -2,8 C -2,2 C 87 % 1028,1 hPa 0,0 l/m 9,3 km/h (2 Bft) N-NO 13 0 min 0,0 UV-I 79 W/m -4,7 C -5,9 C 12,9 km/h (3 Bft)
15.01.2021 10:32 -2,8 C -2,2 C 87 % 1028,2 hPa 0,0 l/m 10,6 km/h (2 Bft) N 5 0 min 0,0 UV-I 81 W/m -4,7 C -7,1 C 14,5 km/h (3 Bft)
15.01.2021 10:34 -2,8 C -2,2 C 87 % 1028,2 hPa 0,0 l/m 7,6 km/h (2 Bft) N 5 0 min 0,4 UV-I 83 W/m -4,7 C -4,2 C 11,3 km/h (2 Bft)
15.01.2021 10:36 -2,8 C -2,2 C 87 % 1028,1 hPa 0,0 l/m 6,6 km/h (2 Bft) N 5 0 min 0,5 UV-I 88 W/m -4,7 C -3,0 C 11,3 km/h (2 Bft)
15.01.2021 10:38 -2,7 C -1,7 C 86 % 1028,3 hPa 0,0 l/m 8,1 km/h (2 Bft) N 351 0 min 0,5 UV-I 90 W/m -4,7 C -4,6 C 11,3 km/h (2 Bft)
15.01.2021 10:40 -2,7 C -1,7 C 86 % 1028,2 hPa 0,0 l/m 6,9 km/h (2 Bft) N 9 0 min 0,5 UV-I 94 W/m -4,7 C -3,3 C 8,0 km/h (2 Bft)
15.01.2021 10:42 -2,7 C -1,7 C 86 % 1028,3 hPa 0,0 l/m 6,1 km/h (2 Bft) N 5 0 min 0,5 UV-I 100 W/m -4,7 C -2,7 C 11,3 km/h (2 Bft)
15.01.2021 10:44 -2,7 C -1,7 C 86 % 1028,3 hPa 0,0 l/m 7,3 km/h (2 Bft) N 355 0 min 0,5 UV-I 105 W/m -4,7 C -3,7 C 12,9 km/h (3 Bft)
15.01.2021 10:46 -2,6 C -1,7 C 86 % 1028,4 hPa 0,0 l/m 9,4 km/h (2 Bft) N 360 0 min 0,5 UV-I 106 W/m -4,6 C -5,8 C 14,5 km/h (3 Bft)
15.01.2021 10:48 -2,6 C -1,7 C 85 % 1028,4 hPa 0,0 l/m 10,1 km/h (2 Bft) N 355 0 min 0,5 UV-I 109 W/m -4,8 C -6,4 C 14,5 km/h (3 Bft)
15.01.2021 10:50 -2,6 C -1,7 C 85 % 1028,5 hPa 0,0 l/m 15,0 km/h (3 Bft) N-NW 348 0 min 0,5 UV-I 107 W/m -4,8 C -10,1 C 20,9 km/h (4 Bft)
15.01.2021 10:52 -2,6 C -1,7 C 85 % 1028,5 hPa 0,0 l/m 13,6 km/h (3 Bft) N-NO 17 0 min 0,6 UV-I 106 W/m -4,8 C -9,2 C 17,7 km/h (3 Bft)
15.01.2021 10:54 -2,6 C -2,2 C 85 % 1028,5 hPa 0,0 l/m 13,5 km/h (3 Bft) N 5 0 min 0,6 UV-I 108 W/m -4,8 C -9,1 C 19,3 km/h (3 Bft)
15.01.2021 10:56 -2,6 C -1,7 C 86 % 1028,5 hPa 0,0 l/m 11,0 km/h (2 Bft) N 360 0 min 0,6 UV-I 113 W/m -4,6 C -7,2 C 14,5 km/h (3 Bft)
15.01.2021 10:58 -2,6 C -1,7 C 86 % 1028,5 hPa 0,0 l/m 12,1 km/h (2 Bft) N 360 0 min 0,6 UV-I 116 W/m -4,6 C -8,1 C 16,1 km/h (3 Bft)
15.01.2021 11:00 -2,6 C -1,7 C 86 % 1028,5 hPa 0,0 l/m 13,0 km/h (3 Bft) N 5 0 min 0,6 UV-I 122 W/m -4,6 C -8,8 C 19,3 km/h (3 Bft)
15.01.2021 11:02 -2,6 C -1,7 C 86 % 1028,6 hPa 0,0 l/m 10,1 km/h (2 Bft) N-NO 15 0 min 0,7 UV-I 132 W/m -4,6 C -6,4 C 12,9 km/h (3 Bft)
15.01.2021 11:04 -2,5 C -1,7 C 86 % 1028,5 hPa 0,0 l/m 10,4 km/h (2 Bft) N 355 0 min 0,7 UV-I 146 W/m -4,5 C -6,6 C 14,5 km/h (3 Bft)
15.01.2021 11:06 -2,5 C -1,1 C 86 % 1028,5 hPa 0,0 l/m 13,3 km/h (3 Bft) N 360 0 min 0,7 UV-I 143 W/m -4,5 C -8,9 C 19,3 km/h (3 Bft)
15.01.2021 11:08 -2,4 C -1,1 C 86 % 1028,6 hPa 0,0 l/m 9,3 km/h (2 Bft) N-NO 29 0 min 0,7 UV-I 183 W/m -4,4 C -5,5 C 14,5 km/h (3 Bft)
15.01.2021 11:11 -2,4 C -1,1 C 86 % 1028,5 hPa 0,0 l/m 10,1 km/h (2 Bft) N 9 0 min 0,8 UV-I 167 W/m -4,4 C -6,2 C 17,7 km/h (3 Bft)
15.01.2021 11:12 -2,4 C -1,1 C 86 % 1028,5 hPa 0,0 l/m 10,7 km/h (2 Bft) N 9 0 min 0,8 UV-I 169 W/m -4,4 C -6,7 C 14,5 km/h (3 Bft)
15.01.2021 11:14 -2,3 C -1,1 C 86 % 1028,7 hPa 0,0 l/m 14,0 km/h (3 Bft) N 360 0 min 0,8 UV-I 193 W/m -4,3 C -9,1 C 19,3 km/h (3 Bft)
15.01.2021 11:16 -2,3 C -1,1 C 86 % 1028,7 hPa 0,0 l/m 13,8 km/h (3 Bft) N 360 0 min 0,8 UV-I 198 W/m -4,3 C -9,0 C 17,7 km/h (3 Bft)
15.01.2021 11:18 -2,2 C -1,1 C 86 % 1028,7 hPa 0,0 l/m 11,2 km/h (2 Bft) N 350 0 min 0,9 UV-I 184 W/m -4,2 C -6,9 C 16,1 km/h (3 Bft)
15.01.2021 11:20 -2,0 C -0,6 C 86 % 1028,6 hPa 0,0 l/m 13,3 km/h (3 Bft) N-NO 15 2 min 1,0 UV-I 287 W/m -4,0 C -8,3 C 17,7 km/h (3 Bft)
15.01.2021 11:22 -1,9 C -0,6 C 85 % 1028,8 hPa 0,0 l/m 12,0 km/h (2 Bft) N-NO 15 0 min 0,9 UV-I 225 W/m -4,1 C -7,2 C 19,3 km/h (3 Bft)
15.01.2021 11:24 -1,9 C -0,6 C 84 % 1028,8 hPa 0,0 l/m 13,1 km/h (3 Bft) N 11 2 min 0,9 UV-I 230 W/m -4,2 C -8,0 C 17,7 km/h (3 Bft)
15.01.2021 11:26 -1,8 C -0,6 C 84 % 1028,7 hPa 0,0 l/m 13,3 km/h (3 Bft) N-NO 13 2 min 0,9 UV-I 244 W/m -4,1 C -8,0 C 19,3 km/h (3 Bft)
15.01.2021 11:28 -1,8 C 0,0 C 84 % 1028,9 hPa 0,0 l/m 12,2 km/h (2 Bft) N 5 0 min 0,9 UV-I 223 W/m -4,1 C -7,2 C 17,7 km/h (3 Bft)
15.01.2021 11:30 -1,8 C 0,0 C 84 % 1028,8 hPa 0,0 l/m 13,3 km/h (3 Bft) N-NO 15 0 min 0,9 UV-I 209 W/m -4,1 C -8,0 C 17,7 km/h (3 Bft)
15.01.2021 11:32 -1,9 C 0,0 C 84 % 1028,8 hPa 0,0 l/m 13,3 km/h (3 Bft) N-NO 18 0 min 0,9 UV-I 190 W/m -4,2 C -8,1 C 20,9 km/h (4 Bft)
15.01.2021 11:34 -1,9 C -0,6 C 84 % 1028,9 hPa 0,0 l/m 13,2 km/h (3 Bft) N 10 0 min 0,9 UV-I 195 W/m -4,2 C -8,1 C 19,3 km/h (3 Bft)
15.01.2021 11:36 -1,9 C -0,6 C 84 % 1028,9 hPa 0,0 l/m 14,8 km/h (3 Bft) N 11 0 min 0,9 UV-I 209 W/m -4,2 C -9,2 C 19,3 km/h (3 Bft)
15.01.2021 11:38 -1,9 C -0,6 C 84 % 1028,9 hPa 0,0 l/m 10,8 km/h (2 Bft) N 5 0 min 0,9 UV-I 177 W/m -4,2 C -6,2 C 19,3 km/h (3 Bft)
15.01.2021 11:40 -1,9 C 0,0 C 84 % 1028,9 hPa 0,0 l/m 8,8 km/h (2 Bft) N-NO 14 0 min 0,9 UV-I 178 W/m -4,2 C -4,4 C 17,7 km/h (3 Bft)
15.01.2021 11:42 -1,9 C 0,0 C 84 % 1028,9 hPa 0,0 l/m 11,5 km/h (2 Bft) N 355 0 min 0,9 UV-I 178 W/m -4,2 C -6,8 C 16,1 km/h (3 Bft)
15.01.2021 11:44 -1,9 C -0,6 C 84 % 1029,0 hPa 0,0 l/m 12,7 km/h (3 Bft) N 9 0 min 0,9 UV-I 192 W/m -4,2 C -7,7 C 16,1 km/h (3 Bft)
15.01.2021 11:46 -1,9 C -0,6 C 85 % 1028,9 hPa 0,0 l/m 14,8 km/h (3 Bft) N-NO 13 0 min 1,0 UV-I 201 W/m -4,1 C -9,2 C 20,9 km/h (4 Bft)
15.01.2021 11:48 -1,9 C 0,0 C 85 % 1028,9 hPa 0,0 l/m 12,4 km/h (3 Bft) N 349 2 min 1,0 UV-I 259 W/m -4,1 C -7,5 C 20,9 km/h (4 Bft)
15.01.2021 11:50 -1,8 C 0,0 C 85 % 1028,9 hPa 0,0 l/m 11,4 km/h (2 Bft) N-NO 13 0 min 1,0 UV-I 214 W/m -4,0 C -6,6 C 20,9 km/h (4 Bft)
15.01.2021 11:52 -1,8 C 0,0 C 85 % 1029,0 hPa 0,0 l/m 10,6 km/h (2 Bft) N 360 0 min 0,9 UV-I 188 W/m -4,0 C -6,0 C 19,3 km/h (3 Bft)
15.01.2021 11:54 -1,8 C 0,0 C 84 % 1029,0 hPa 0,0 l/m 14,5 km/h (3 Bft) N-NO 24 0 min 0,9 UV-I 187 W/m -4,1 C -8,8 C 19,3 km/h (3 Bft)
15.01.2021 11:56 -1,9 C -0,6 C 85 % 1028,9 hPa 0,0 l/m 11,4 km/h (2 Bft) N-NO 13 0 min 1,0 UV-I 180 W/m -4,1 C -6,7 C 16,1 km/h (3 Bft)
15.01.2021 11:58 -1,9 C -0,6 C 85 % 1028,9 hPa 0,0 l/m 10,8 km/h (2 Bft) N-NO 22 0 min 1,0 UV-I 192 W/m -4,1 C -6,2 C 19,3 km/h (3 Bft)
15.01.2021 12:00 -1,8 C 0,0 C 85 % 1028,9 hPa 0,0 l/m 11,5 km/h (2 Bft) N 5 0 min 1,0 UV-I 201 W/m -4,0 C -6,7 C 20,9 km/h (4 Bft)
15.01.2021 12:02 -1,8 C 0,0 C 85 % 1028,9 hPa 0,0 l/m 12,1 km/h (2 Bft) N 10 2 min 1,1 UV-I 261 W/m -4,0 C -7,2 C 19,3 km/h (3 Bft)
15.01.2021 12:04 -1,6 C 0,0 C 85 % 1028,9 hPa 0,0 l/m 11,8 km/h (2 Bft) N 11 2 min 1,1 UV-I 264 W/m -3,8 C -6,7 C 19,3 km/h (3 Bft)
15.01.2021 12:06 -1,6 C 0,0 C 85 % 1028,9 hPa 0,0 l/m 9,9 km/h (2 Bft) N-NO 23 2 min 1,1 UV-I 243 W/m -3,8 C -5,1 C 17,7 km/h (3 Bft)
15.01.2021 12:08 -1,5 C 0,0 C 85 % 1028,9 hPa 0,0 l/m 11,3 km/h (2 Bft) N 5 0 min 1,1 UV-I 208 W/m -3,7 C -6,2 C 19,3 km/h (3 Bft)
15.01.2021 12:10 -1,4 C 0,6 C 85 % 1028,8 hPa 0,0 l/m 13,7 km/h (3 Bft) N 360 2 min 1,2 UV-I 268 W/m -3,6 C -7,8 C 19,3 km/h (3 Bft)
15.01.2021 12:12 -1,3 C 0,6 C 84 % 1028,9 hPa 0,0 l/m 12,5 km/h (3 Bft) N-NO 12 2 min 1,2 UV-I 314 W/m -3,6 C -6,9 C 16,1 km/h (3 Bft)
15.01.2021 12:14 -1,4 C 0,6 C 84 % 1029,0 hPa 0,0 l/m 8,6 km/h (2 Bft) NO 36 2 min 1,1 UV-I 261 W/m -3,7 C -3,7 C 16,1 km/h (3 Bft)
15.01.2021 12:16 -1,3 C 1,1 C 84 % 1029,0 hPa 0,0 l/m 11,1 km/h (2 Bft) N 349 2 min 1,1 UV-I 281 W/m -3,6 C -5,8 C 16,1 km/h (3 Bft)
15.01.2021 12:18 -1,3 C 0,6 C 84 % 1029,0 hPa 0,0 l/m 13,5 km/h (3 Bft) N-NO 14 0 min 1,1 UV-I 222 W/m -3,6 C -7,6 C 19,3 km/h (3 Bft)
15.01.2021 12:20 -1,4 C 0,6 C 84 % 1029,0 hPa 0,0 l/m 14,5 km/h (3 Bft) N 360 0 min 1,1 UV-I 224 W/m -3,7 C -8,4 C 19,3 km/h (3 Bft)
15.01.2021 12:22 -1,3 C 0,6 C 84 % 1029,0 hPa 0,0 l/m 14,8 km/h (3 Bft) N-NO 24 2 min 1,3 UV-I 336 W/m -3,6 C -8,4 C 22,5 km/h (4 Bft)
15.01.2021 12:24 -1,1 C 1,1 C 84 % 1028,9 hPa 0,0 l/m 12,8 km/h (3 Bft) N-NO 24 2 min 1,2 UV-I 417 W/m -3,4 C -6,9 C 19,3 km/h (3 Bft)
15.01.2021 12:26 -1,1 C 1,1 C 84 % 1029,0 hPa 0,0 l/m 8,9 km/h (2 Bft) N-NO 18 2 min 1,1 UV-I 282 W/m -3,4 C -3,7 C 17,7 km/h (3 Bft)
15.01.2021 12:28 -1,2 C 1,1 C 84 % 1029,0 hPa 0,0 l/m 15,0 km/h (3 Bft) N 5 0 min 1,1 UV-I 222 W/m -3,5 C -8,4 C 20,9 km/h (4 Bft)
15.01.2021 12:30 -1,4 C 0,6 C 84 % 1029,0 hPa 0,0 l/m 12,0 km/h (2 Bft) N-NO 12 0 min 1,0 UV-I 136 W/m -3,7 C -6,6 C 17,7 km/h (3 Bft)
15.01.2021 12:32 -1,6 C 0,0 C 84 % 1029,0 hPa 0,0 l/m 13,2 km/h (3 Bft) N 11 0 min 1,0 UV-I 161 W/m -3,9 C -7,7 C 17,7 km/h (3 Bft)
15.01.2021 12:34 -1,6 C 0,0 C 85 % 1029,0 hPa 0,0 l/m 14,0 km/h (3 Bft) N-NO 26 0 min 1,1 UV-I 214 W/m -3,8 C -8,3 C 22,5 km/h (4 Bft)
15.01.2021 12:36 -1,5 C 0,0 C 85 % 1029,1 hPa 0,0 l/m 8,4 km/h (2 Bft) N 360 0 min 1,0 UV-I 209 W/m -3,7 C -3,6 C 14,5 km/h (3 Bft)
15.01.2021 12:38 -1,5 C 0,0 C 85 % 1029,1 hPa 0,0 l/m 10,9 km/h (2 Bft) NO 43 0 min 0,9 UV-I 161 W/m -3,7 C -5,9 C 22,5 km/h (4 Bft)
15.01.2021 12:40 -1,6 C 0,0 C 85 % 1029,0 hPa 0,0 l/m 17,7 km/h (3 Bft) N 360 0 min 0,8 UV-I 129 W/m -3,8 C -10,5 C 22,5 km/h (4 Bft)
15.01.2021 12:42 -1,6 C -0,6 C 86 % 1029,1 hPa 0,0 l/m 12,9 km/h (3 Bft) N-NO 26 0 min 0,7 UV-I 114 W/m -3,6 C -7,5 C 22,5 km/h (4 Bft)
15.01.2021 12:44 -1,7 C -0,6 C 86 % 1029,1 hPa 0,0 l/m 12,0 km/h (2 Bft) N 350 0 min 0,8 UV-I 105 W/m -3,7 C -7,0 C 17,7 km/h (3 Bft)
15.01.2021 12:46 -1,8 C -0,6 C 86 % 1029,2 hPa 0,0 l/m 14,0 km/h (3 Bft) N 11 0 min 0,9 UV-I 92 W/m -3,8 C -8,5 C 19,3 km/h (3 Bft)
15.01.2021 12:48 -1,8 C -1,1 C 86 % 1029,2 hPa 0,0 l/m 15,5 km/h (3 Bft) N 355 0 min 0,9 UV-I 85 W/m -3,8 C -9,5 C 19,3 km/h (3 Bft)
15.01.2021 12:50 -1,8 C -1,1 C 86 % 1029,2 hPa 0,0 l/m 14,9 km/h (3 Bft) N 5 0 min 0,9 UV-I 127 W/m -3,8 C -9,1 C 19,3 km/h (3 Bft)
15.01.2021 12:52 -1,9 C -1,1 C 86 % 1029,2 hPa 0,0 l/m 13,9 km/h (3 Bft) N 5 0 min 0,9 UV-I 156 W/m -3,9 C -8,6 C 19,3 km/h (3 Bft)
15.01.2021 12:54 -1,9 C -1,1 C 87 % 1029,1 hPa 0,0 l/m 11,5 km/h (2 Bft) N-NO 25 0 min 0,9 UV-I 136 W/m -3,8 C -6,8 C 14,5 km/h (3 Bft)
15.01.2021 12:56 -1,8 C -0,6 C 87 % 1029,1 hPa 0,0 l/m 10,3 km/h (2 Bft) N-NO 30 0 min 0,9 UV-I 131 W/m -3,7 C -5,7 C 16,1 km/h (3 Bft)
15.01.2021 12:58 -1,8 C -0,6 C 86 % 1029,2 hPa 0,0 l/m 7,7 km/h (2 Bft) N-NO 13 0 min 0,9 UV-I 143 W/m -3,8 C -3,2 C 12,9 km/h (3 Bft)
15.01.2021 13:00 -1,8 C -0,6 C 87 % 1029,1 hPa 0,0 l/m 8,0 km/h (2 Bft) N-NO 23 0 min 0,9 UV-I 153 W/m -3,7 C -3,5 C 12,9 km/h (3 Bft)
15.01.2021 13:02 -1,7 C 0,0 C 87 % 1029,1 hPa 0,0 l/m 7,1 km/h (2 Bft) N-NO 13 0 min 0,9 UV-I 154 W/m -3,6 C -2,5 C 12,9 km/h (3 Bft)
15.01.2021 13:04 -1,7 C 0,0 C 86 % 1029,0 hPa 0,0 l/m 6,5 km/h (2 Bft) N-NO 22 0 min 0,9 UV-I 154 W/m -3,7 C -1,8 C 8,0 km/h (2 Bft)
15.01.2021 13:06 -1,6 C 0,0 C 86 % 1029,1 hPa 0,0 l/m 7,6 km/h (2 Bft) N-NO 13 0 min 0,8 UV-I 134 W/m -3,6 C -2,9 C 11,3 km/h (2 Bft)
15.01.2021 13:08 -1,6 C 0,0 C 86 % 1029,1 hPa 0,0 l/m 8,6 km/h (2 Bft) N 11 0 min 0,6 UV-I 111 W/m -3,6 C -3,9 C 14,5 km/h (3 Bft)
15.01.2021 13:10 -1,6 C -0,6 C 87 % 1029,2 hPa 0,0 l/m 11,2 km/h (2 Bft) N-NO 15 0 min 0,6 UV-I 93 W/m -3,5 C -6,2 C 17,7 km/h (3 Bft)
15.01.2021 13:12 -1,6 C -0,6 C 87 % 1029,1 hPa 0,0 l/m 10,7 km/h (2 Bft) N 5 0 min 0,7 UV-I 99 W/m -3,5 C -5,8 C 17,7 km/h (3 Bft)
15.01.2021 13:14 -1,7 C -0,6 C 87 % 1029,1 hPa 0,0 l/m 11,9 km/h (2 Bft) N-NW 346 0 min 0,6 UV-I 104 W/m -3,6 C -6,9 C 17,7 km/h (3 Bft)
15.01.2021 13:16 -1,7 C -0,6 C 87 % 1029,2 hPa 0,0 l/m 16,4 km/h (3 Bft) N 11 0 min 0,6 UV-I 96 W/m -3,6 C -9,9 C 24,1 km/h (4 Bft)
15.01.2021 13:18 -1,8 C -1,1 C 87 % 1029,1 hPa 0,0 l/m 17,2 km/h (3 Bft) N 5 0 min 0,6 UV-I 100 W/m -3,7 C -10,5 C 22,5 km/h (4 Bft)
15.01.2021 13:20 -1,8 C -1,1 C 87 % 1029,2 hPa 0,0 l/m 14,5 km/h (3 Bft) N-NW 348 0 min 0,6 UV-I 101 W/m -3,7 C -8,8 C 19,3 km/h (3 Bft)
15.01.2021 13:22 -1,8 C -1,1 C 87 % 1029,1 hPa 0,0 l/m 11,4 km/h (2 Bft) N 5 0 min 0,6 UV-I 97 W/m -3,7 C -6,6 C 16,1 km/h (3 Bft)
15.01.2021 13:24 -1,8 C -1,1 C 87 % 1029,2 hPa 0,0 l/m 13,8 km/h (3 Bft) N 349 0 min 0,6 UV-I 96 W/m -3,7 C -8,4 C 19,3 km/h (3 Bft)
15.01.2021 13:26 -1,8 C -1,1 C 87 % 1029,2 hPa 0,0 l/m 13,1 km/h (3 Bft) N-NO 13 0 min 0,7 UV-I 102 W/m -3,7 C -7,9 C 17,7 km/h (3 Bft)
15.01.2021 13:28 -1,8 C -1,1 C 87 % 1029,2 hPa 0,0 l/m 10,8 km/h (2 Bft) N-NO 18 0 min 0,7 UV-I 105 W/m -3,7 C -6,1 C 17,7 km/h (3 Bft)
15.01.2021 13:30 -1,8 C -1,1 C 87 % 1029,1 hPa 0,0 l/m 13,5 km/h (3 Bft) N 360 0 min 0,7 UV-I 108 W/m -3,7 C -8,2 C 19,3 km/h (3 Bft)
15.01.2021 13:32 -1,8 C -1,1 C 87 % 1029,2 hPa 0,0 l/m 15,1 km/h (3 Bft) N-NW 346 0 min 0,8 UV-I 117 W/m -3,7 C -9,2 C 19,3 km/h (3 Bft)
15.01.2021 13:34 -1,7 C -1,1 C 87 % 1029,2 hPa 0,0 l/m 13,2 km/h (3 Bft) N-NW 333 0 min 0,7 UV-I 130 W/m -3,6 C -7,8 C 17,7 km/h (3 Bft)
15.01.2021 13:36 -1,7 C -1,1 C 87 % 1029,2 hPa 0,0 l/m 13,4 km/h (3 Bft) N 5 0 min 0,7 UV-I 123 W/m -3,6 C -8,0 C 19,3 km/h (3 Bft)
15.01.2021 13:38 -1,7 C -1,1 C 87 % 1029,2 hPa 0,0 l/m 15,7 km/h (3 Bft) N 355 0 min 0,6 UV-I 113 W/m -3,6 C -9,5 C 20,9 km/h (4 Bft)
15.01.2021 13:40 -1,8 C -1,1 C 87 % 1029,2 hPa 0,0 l/m 19,9 km/h (4 Bft) N-NW 337 0 min 0,6 UV-I 104 W/m -3,7 C -11,9 C 24,1 km/h (4 Bft)
15.01.2021 13:42 -1,8 C -1,1 C 87 % 1029,2 hPa 0,0 l/m 15,9 km/h (3 Bft) N-NO 13 0 min 0,6 UV-I 102 W/m -3,7 C -9,7 C 22,5 km/h (4 Bft)
15.01.2021 13:44 -1,8 C -1,1 C 87 % 1029,1 hPa 0,0 l/m 17,1 km/h (3 Bft) N-NW 346 0 min 0,6 UV-I 94 W/m -3,7 C -10,4 C 20,9 km/h (4 Bft)
15.01.2021 13:46 -1,8 C -1,1 C 87 % 1029,2 hPa 0,0 l/m 15,0 km/h (3 Bft) N-NW 346 0 min 0,6 UV-I 93 W/m -3,7 C -9,2 C 19,3 km/h (3 Bft)
15.01.2021 13:48 -1,8 C -1,1 C 87 % 1029,2 hPa 0,0 l/m 17,1 km/h (3 Bft) N 5 0 min 0,7 UV-I 94 W/m -3,7 C -10,4 C 20,9 km/h (4 Bft)
15.01.2021 13:50 -1,8 C -1,1 C 87 % 1029,2 hPa 0,0 l/m 11,4 km/h (2 Bft) N 350 0 min 0,8 UV-I 113 W/m -3,7 C -6,6 C 16,1 km/h (3 Bft)
15.01.2021 13:52 -1,8 C -1,1 C 87 % 1029,2 hPa 0,0 l/m 10,6 km/h (2 Bft) N-NW 346 0 min 0,8 UV-I 124 W/m -3,7 C -6,0 C 16,1 km/h (3 Bft)
15.01.2021 13:54 -1,7 C -1,1 C 87 % 1029,2 hPa 0,0 l/m 11,2 km/h (2 Bft) N 11 0 min 0,7 UV-I 127 W/m -3,6 C -6,3 C 14,5 km/h (3 Bft)
15.01.2021 13:56 -1,7 C -1,1 C 87 % 1029,2 hPa 0,0 l/m 10,2 km/h (2 Bft) N-NO 23 0 min 0,7 UV-I 121 W/m -3,6 C -5,5 C 14,5 km/h (3 Bft)
15.01.2021 13:58 -1,7 C -0,6 C 87 % 1029,2 hPa 0,0 l/m 8,6 km/h (2 Bft) N 10 0 min 0,7 UV-I 110 W/m -3,6 C -4,0 C 12,9 km/h (3 Bft)
15.01.2021 14:00 -1,7 C -0,6 C 87 % 1029,1 hPa 0,0 l/m 12,4 km/h (3 Bft) N 5 0 min 0,7 UV-I 130 W/m -3,6 C -7,3 C 16,1 km/h (3 Bft)
15.01.2021 14:02 -1,7 C -1,1 C 87 % 1029,2 hPa 0,0 l/m 13,3 km/h (3 Bft) N-NW 342 0 min 0,7 UV-I 138 W/m -3,6 C -7,9 C 19,3 km/h (3 Bft)
15.01.2021 14:04 -1,7 C -0,6 C 87 % 1029,1 hPa 0,0 l/m 12,8 km/h (3 Bft) N-NW 348 0 min 0,7 UV-I 139 W/m -3,6 C -7,6 C 16,1 km/h (3 Bft)
15.01.2021 14:06 -1,7 C -0,6 C 87 % 1029,2 hPa 0,0 l/m 11,9 km/h (2 Bft) N-NW 336 0 min 0,6 UV-I 123 W/m -3,6 C -6,9 C 16,1 km/h (3 Bft)
15.01.2021 14:08 -1,7 C -0,6 C 87 % 1029,2 hPa 0,0 l/m 12,4 km/h (3 Bft) N 360 0 min 0,5 UV-I 101 W/m -3,6 C -7,3 C 17,7 km/h (3 Bft)
15.01.2021 14:10 -1,7 C -1,1 C 87 % 1029,1 hPa 0,0 l/m 12,4 km/h (3 Bft) N 360 0 min 0,5 UV-I 100 W/m -3,6 C -7,3 C 16,1 km/h (3 Bft)
15.01.2021 14:12 -1,7 C -1,1 C 87 % 1029,1 hPa 0,0 l/m 12,3 km/h (3 Bft) N 355 0 min 0,5 UV-I 97 W/m -3,6 C -7,2 C 16,1 km/h (3 Bft)
15.01.2021 14:14 -1,8 C -1,1 C 87 % 1029,2 hPa 0,0 l/m 10,0 km/h (2 Bft) N 5 0 min 0,5 UV-I 92 W/m -3,7 C -5,4 C 14,5 km/h (3 Bft)
15.01.2021 14:16 -1,8 C -1,1 C 87 % 1029,2 hPa 0,0 l/m 8,4 km/h (2 Bft) N 349 0 min 0,5 UV-I 92 W/m -3,7 C -3,9 C 12,9 km/h (3 Bft)
15.01.2021 14:18 -1,8 C -1,1 C 87 % 1029,2 hPa 0,0 l/m 5,8 km/h (2 Bft) N 5 0 min 0,5 UV-I 81 W/m -3,7 C -1,8 C 9,7 km/h (2 Bft)
15.01.2021 14:20 -1,7 C -0,6 C 87 % 1029,2 hPa 0,0 l/m 6,5 km/h (2 Bft) N 355 0 min 0,5 UV-I 80 W/m -3,6 C -1,8 C 9,7 km/h (2 Bft)
15.01.2021 14:22 -1,7 C -0,6 C 87 % 1029,2 hPa 0,0 l/m 10,3 km/h (2 Bft) N-NW 342 0 min 0,6 UV-I 87 W/m -3,6 C -5,6 C 14,5 km/h (3 Bft)
15.01.2021 14:24 -1,8 C -1,1 C 87 % 1029,2 hPa 0,0 l/m 9,4 km/h (2 Bft) N 5 0 min 0,5 UV-I 88 W/m -3,7 C -4,9 C 17,7 km/h (3 Bft)
15.01.2021 14:26 -1,7 C -1,1 C 88 % 1029,2 hPa 0,0 l/m 12,5 km/h (3 Bft) N 355 0 min 0,5 UV-I 86 W/m -3,4 C -7,3 C 17,7 km/h (3 Bft)
15.01.2021 14:28 -1,8 C -1,1 C 88 % 1029,2 hPa 0,0 l/m 13,2 km/h (3 Bft) N-NW 346 0 min 0,5 UV-I 80 W/m -3,5 C -8,0 C 17,7 km/h (3 Bft)
15.01.2021 14:30 -1,8 C -1,1 C 88 % 1029,2 hPa 0,0 l/m 11,5 km/h (2 Bft) N 355 0 min 0,0 UV-I 83 W/m -3,5 C -6,7 C 16,1 km/h (3 Bft)
15.01.2021 14:32 -1,8 C -1,1 C 88 % 1029,2 hPa 0,0 l/m 11,9 km/h (2 Bft) N-NW 348 0 min 0,1 UV-I 83 W/m -3,5 C -7,0 C 16,1 km/h (3 Bft)
15.01.2021 14:34 -1,8 C -1,1 C 88 % 1029,3 hPa 0,0 l/m 14,0 km/h (3 Bft) N-NW 345 0 min 0,5 UV-I 89 W/m -3,5 C -8,5 C 17,7 km/h (3 Bft)
15.01.2021 14:36 -1,8 C -1,1 C 88 % 1029,3 hPa 0,0 l/m 14,1 km/h (3 Bft) N 360 0 min 0,2 UV-I 85 W/m -3,5 C -8,6 C 17,7 km/h (3 Bft)
15.01.2021 14:38 -1,8 C -1,1 C 88 % 1029,4 hPa 0,0 l/m 11,3 km/h (2 Bft) NW 304 0 min 0,0 UV-I 81 W/m -3,5 C -6,5 C 19,3 km/h (3 Bft)
15.01.2021 14:40 -1,8 C -1,1 C 88 % 1029,4 hPa 0,0 l/m 11,7 km/h (2 Bft) N 5 0 min 0,0 UV-I 75 W/m -3,5 C -6,8 C 19,3 km/h (3 Bft)
15.01.2021 14:42 -1,9 C -1,1 C 87 % 1029,2 hPa 0,0 l/m 15,1 km/h (3 Bft) N 5 0 min 0,0 UV-I 67 W/m -3,8 C -9,3 C 19,3 km/h (3 Bft)
15.01.2021 14:44 -1,9 C -1,1 C 88 % 1029,3 hPa 0,0 l/m 15,8 km/h (3 Bft) N 355 0 min 0,0 UV-I 67 W/m -3,6 C -9,8 C 20,9 km/h (4 Bft)
15.01.2021 14:46 -1,9 C -1,7 C 88 % 1029,3 hPa 0,0 l/m 14,8 km/h (3 Bft) N-NW 339 0 min 0,0 UV-I 61 W/m -3,6 C -9,2 C 17,7 km/h (3 Bft)
15.01.2021 14:48 -1,9 C -1,7 C 88 % 1029,4 hPa 0,0 l/m 14,8 km/h (3 Bft) N-NW 344 0 min 0,0 UV-I 55 W/m -3,6 C -9,2 C 22,5 km/h (4 Bft)
15.01.2021 14:50 -1,9 C -1,7 C 88 % 1029,4 hPa 0,0 l/m 18,5 km/h (3 Bft) N 355 0 min 0,0 UV-I 52 W/m -3,6 C -11,3 C 24,1 km/h (4 Bft)
15.01.2021 14:52 -1,9 C -1,7 C 88 % 1029,4 hPa 0,0 l/m 14,7 km/h (3 Bft) N 5 0 min 0,0 UV-I 46 W/m -3,6 C -9,1 C 19,3 km/h (3 Bft)
15.01.2021 14:54 -1,9 C -1,7 C 88 % 1029,4 hPa 0,0 l/m 17,1 km/h (3 Bft) N 351 0 min 0,0 UV-I 45 W/m -3,6 C -10,5 C 19,3 km/h (3 Bft)
15.01.2021 14:56 -1,9 C -1,7 C 88 % 1029,4 hPa 0,0 l/m 12,9 km/h (3 Bft) N 349 0 min 0,0 UV-I 44 W/m -3,6 C -7,9 C 17,7 km/h (3 Bft)
15.01.2021 14:58 -1,9 C -1,7 C 88 % 1029,4 hPa 0,0 l/m 16,2 km/h (3 Bft) N-NO 19 0 min 0,0 UV-I 40 W/m -3,6 C -10,0 C 20,9 km/h (4 Bft)
15.01.2021 15:00 -1,9 C -1,7 C 89 % 1029,5 hPa 0,0 l/m 8,4 km/h (2 Bft) N 10 0 min 0,0 UV-I 41 W/m -3,5 C -4,0 C 12,9 km/h (3 Bft)
15.01.2021 15:02 -1,9 C -1,7 C 89 % 1029,5 hPa 0,0 l/m 9,0 km/h (2 Bft) N-NO 15 0 min 0,0 UV-I 42 W/m -3,5 C -4,6 C 17,7 km/h (3 Bft)
15.01.2021 15:04 -1,9 C -1,7 C 89 % 1029,5 hPa 0,0 l/m 10,8 km/h (2 Bft) N 355 0 min 0,0 UV-I 41 W/m -3,5 C -6,2 C 16,1 km/h (3 Bft)
15.01.2021 15:06 -1,9 C -1,7 C 89 % 1029,5 hPa 0,0 l/m 8,7 km/h (2 Bft) N-NO 13 0 min 0,0 UV-I 44 W/m -3,5 C -4,3 C 12,9 km/h (3 Bft)
15.01.2021 15:08 -1,9 C -1,7 C 89 % 1029,4 hPa 0,0 l/m 9,6 km/h (2 Bft) N 5 0 min 0,0 UV-I 46 W/m -3,5 C -5,2 C 14,5 km/h (3 Bft)
15.01.2021 15:10 -1,9 C -1,7 C 89 % 1029,5 hPa 0,0 l/m 11,9 km/h (2 Bft) N-NO 16 0 min 0,0 UV-I 42 W/m -3,5 C -7,1 C 16,1 km/h (3 Bft)
15.01.2021 15:12 -1,9 C -1,7 C 89 % 1029,4 hPa 0,0 l/m 14,7 km/h (3 Bft) N-NO 14 0 min 0,0 UV-I 36 W/m -3,5 C -9,1 C 19,3 km/h (3 Bft)
15.01.2021 15:14 -1,9 C -1,7 C 89 % 1029,5 hPa 0,0 l/m 11,6 km/h (2 Bft) N 5 0 min 0,0 UV-I 36 W/m -3,5 C -6,9 C 16,1 km/h (3 Bft)
15.01.2021 15:16 -1,9 C -1,7 C 89 % 1029,6 hPa 0,0 l/m 11,1 km/h (2 Bft) N-NW 344 0 min 0,0 UV-I 40 W/m -3,5 C -6,5 C 19,3 km/h (3 Bft)
15.01.2021 15:18 -1,9 C -1,7 C 89 % 1029,6 hPa 0,0 l/m 14,5 km/h (3 Bft) N-NW 340 0 min 0,0 UV-I 41 W/m -3,5 C -9,0 C 20,9 km/h (4 Bft)
15.01.2021 15:20 -1,9 C -1,7 C 89 % 1029,6 hPa 0,0 l/m 7,6 km/h (2 Bft) N-NO 15 0 min 0,0 UV-I 42 W/m -3,5 C -3,2 C 14,5 km/h (3 Bft)
15.01.2021 15:22 -1,9 C -1,7 C 89 % 1029,7 hPa 0,0 l/m 7,5 km/h (2 Bft) N-NO 29 0 min 0,0 UV-I 65 W/m -3,5 C -3,1 C 12,9 km/h (3 Bft)
15.01.2021 15:24 -1,9 C -1,7 C 89 % 1029,6 hPa 0,0 l/m 9,3 km/h (2 Bft) N-NO 19 0 min 0,0 UV-I 70 W/m -3,5 C -4,9 C 16,1 km/h (3 Bft)
15.01.2021 15:26 -1,9 C -1,7 C 89 % 1029,7 hPa 0,0 l/m 11,2 km/h (2 Bft) N 5 0 min 0,0 UV-I 66 W/m -3,5 C -6,6 C 16,1 km/h (3 Bft)
15.01.2021 15:28 -1,9 C -1,1 C 89 % 1029,7 hPa 0,0 l/m 9,9 km/h (2 Bft) N 351 0 min 0,0 UV-I 58 W/m -3,5 C -5,5 C 16,1 km/h (3 Bft)
15.01.2021 15:30 -1,9 C -1,1 C 89 % 1029,6 hPa 0,0 l/m 10,7 km/h (2 Bft) N-NO 22 0 min 0,0 UV-I 57 W/m -3,5 C -6,1 C 16,1 km/h (3 Bft)
15.01.2021 15:32 -1,9 C -1,1 C 89 % 1029,7 hPa 0,0 l/m 8,8 km/h (2 Bft) N-NO 33 0 min 0,0 UV-I 53 W/m -3,5 C -4,4 C 14,5 km/h (3 Bft)
15.01.2021 15:34 -1,9 C -1,7 C 89 % 1029,7 hPa 0,0 l/m 15,3 km/h (3 Bft) N-NW 339 0 min 0,0 UV-I 53 W/m -3,5 C -9,5 C 19,3 km/h (3 Bft)
15.01.2021 15:36 -1,9 C -1,7 C 88 % 1029,7 hPa 0,0 l/m 13,7 km/h (3 Bft) N-NO 16 0 min 0,0 UV-I 50 W/m -3,6 C -8,4 C 17,7 km/h (3 Bft)
15.01.2021 15:38 -1,9 C -1,7 C 88 % 1029,8 hPa 0,0 l/m 11,0 km/h (2 Bft) N 11 0 min 0,0 UV-I 46 W/m -3,6 C -6,4 C 16,1 km/h (3 Bft)
15.01.2021 15:40 -1,9 C -1,7 C 88 % 1029,7 hPa 0,0 l/m 8,4 km/h (2 Bft) N-NO 24 0 min 0,0 UV-I 44 W/m -3,6 C -4,0 C 14,5 km/h (3 Bft)
15.01.2021 15:42 -1,9 C -1,7 C 87 % 1029,9 hPa 0,0 l/m 13,7 km/h (3 Bft) N-NW 345 0 min 0,0 UV-I 40 W/m -3,8 C -8,4 C 17,7 km/h (3 Bft)
15.01.2021 15:44 -1,9 C -1,7 C 87 % 1029,9 hPa 0,0 l/m 10,8 km/h (2 Bft) N 5 0 min 0,0 UV-I 37 W/m -3,8 C -6,2 C 16,1 km/h (3 Bft)
15.01.2021 15:46 -1,9 C -1,7 C 87 % 1030,0 hPa 0,0 l/m 7,4 km/h (2 Bft) N 5 0 min 0,0 UV-I 38 W/m -3,8 C -3,0 C 12,9 km/h (3 Bft)
15.01.2021 15:48 -2,0 C -1,7 C 87 % 1029,9 hPa 0,0 l/m 9,1 km/h (2 Bft) N-NO 19 0 min 0,0 UV-I 35 W/m -3,9 C -4,8 C 14,5 km/h (3 Bft)
15.01.2021 15:50 -2,1 C -2,2 C 87 % 1029,9 hPa 0,0 l/m 11,7 km/h (2 Bft) N 360 0 min 0,0 UV-I 33 W/m -4,0 C -7,2 C 16,1 km/h (3 Bft)
15.01.2021 15:52 -2,2 C -2,2 C 87 % 1030,0 hPa 0,0 l/m 9,8 km/h (2 Bft) N 5 0 min 0,0 UV-I 32 W/m -4,1 C -5,7 C 16,1 km/h (3 Bft)
15.01.2021 15:54 -2,2 C -2,2 C 87 % 1030,0 hPa 0,0 l/m 8,9 km/h (2 Bft) N-NW 348 0 min 0,0 UV-I 36 W/m -4,1 C -4,9 C 14,5 km/h (3 Bft)
15.01.2021 15:56 -2,2 C -2,2 C 87 % 1030,1 hPa 0,0 l/m 11,9 km/h (2 Bft) N 9 0 min 0,0 UV-I 44 W/m -4,1 C -7,5 C 19,3 km/h (3 Bft)
15.01.2021 15:58 -2,2 C -2,2 C 87 % 1030,1 hPa 0,0 l/m 7,3 km/h (2 Bft) N 360 0 min 0,0 UV-I 49 W/m -4,1 C -3,2 C 12,9 km/h (3 Bft)
15.01.2021 16:00 -2,3 C -2,2 C 87 % 1030,0 hPa 0,0 l/m 10,4 km/h (2 Bft) N 350 0 min 0,0 UV-I 49 W/m -4,2 C -6,3 C 16,1 km/h (3 Bft)
15.01.2021 16:02 -2,3 C -2,2 C 87 % 1030,0 hPa 0,0 l/m 9,9 km/h (2 Bft) N 360 0 min 0,0 UV-I 53 W/m -4,2 C -5,9 C 16,1 km/h (3 Bft)
15.01.2021 16:04 -2,3 C -2,2 C 87 % 1030,0 hPa 0,0 l/m 7,9 km/h (2 Bft) N 360 0 min 0,0 UV-I 54 W/m -4,2 C -4,0 C 14,5 km/h (3 Bft)
15.01.2021 16:06 -2,3 C -2,2 C 87 % 1030,0 hPa 0,0 l/m 14,4 km/h (3 Bft) N 355 0 min 0,0 UV-I 60 W/m -4,2 C -9,4 C 19,3 km/h (3 Bft)
15.01.2021 16:08 -2,2 C -2,2 C 87 % 1030,1 hPa 0,0 l/m 14,8 km/h (3 Bft) N-NO 15 0 min 0,0 UV-I 67 W/m -4,1 C -9,5 C 19,3 km/h (3 Bft)
15.01.2021 16:10 -2,1 C -2,2 C 87 % 1030,2 hPa 0,0 l/m 13,6 km/h (3 Bft) N-NW 346 0 min 0,0 UV-I 77 W/m -4,0 C -8,6 C 20,9 km/h (4 Bft)
15.01.2021 16:12 -2,1 C -2,2 C 87 % 1030,2 hPa 0,0 l/m 14,3 km/h (3 Bft) N-NO 19 0 min 0,0 UV-I 76 W/m -4,0 C -9,1 C 19,3 km/h (3 Bft)
15.01.2021 16:14 -1,9 C -2,2 C 87 % 1030,1 hPa 0,0 l/m 15,7 km/h (3 Bft) N 355 0 min 0,0 UV-I 69 W/m -3,8 C -9,7 C 19,3 km/h (3 Bft)
15.01.2021 16:16 -1,9 C -1,7 C 87 % 1030,2 hPa 0,0 l/m 15,7 km/h (3 Bft) N-NW 348 0 min 0,0 UV-I 62 W/m -3,8 C -9,7 C 20,9 km/h (4 Bft)
15.01.2021 16:18 -1,9 C -1,7 C 87 % 1030,1 hPa 0,0 l/m 13,5 km/h (3 Bft) N 360 0 min 0,0 UV-I 55 W/m -3,8 C -8,3 C 20,9 km/h (4 Bft)
15.01.2021 16:20 -1,9 C -1,7 C 86 % 1030,2 hPa 0,0 l/m 17,4 km/h (3 Bft) N-NW 346 0 min 0,0 UV-I 53 W/m -3,9 C -10,7 C 22,5 km/h (4 Bft)
15.01.2021 16:22 -1,9 C -1,7 C 87 % 1030,2 hPa 0,0 l/m 18,5 km/h (3 Bft) N 350 0 min 0,0 UV-I 50 W/m -3,8 C -11,3 C 22,5 km/h (4 Bft)
15.01.2021 16:24 -1,9 C -2,2 C 87 % 1030,4 hPa 0,0 l/m 16,8 km/h (3 Bft) N 5 0 min 0,0 UV-I 42 W/m -3,8 C -10,4 C 20,9 km/h (4 Bft)
15.01.2021 16:26 -1,9 C -2,2 C 86 % 1030,4 hPa 0,0 l/m 14,0 km/h (3 Bft) N 360 0 min 0,0 UV-I 36 W/m -3,9 C -8,6 C 20,9 km/h (4 Bft)
15.01.2021 16:28 -1,9 C -2,2 C 86 % 1030,4 hPa 0,0 l/m 15,3 km/h (3 Bft) N 355 0 min 0,0 UV-I 35 W/m -3,9 C -9,5 C 19,3 km/h (3 Bft)
15.01.2021 16:30 -1,9 C -2,2 C 87 % 1030,3 hPa 0,0 l/m 13,8 km/h (3 Bft) N-NW 346 0 min 0,0 UV-I 31 W/m -3,8 C -8,5 C 17,7 km/h (3 Bft)
15.01.2021 16:32 -1,9 C -2,2 C 87 % 1030,3 hPa 0,0 l/m 12,3 km/h (3 Bft) N 355 0 min 0,0 UV-I 30 W/m -3,8 C -7,4 C 17,7 km/h (3 Bft)
15.01.2021 16:34 -1,9 C -2,2 C 87 % 1030,4 hPa 0,0 l/m 8,1 km/h (2 Bft) N 355 0 min 0,0 UV-I 25 W/m -3,8 C -3,7 C 12,9 km/h (3 Bft)
15.01.2021 16:36 -1,9 C -2,2 C 87 % 1030,4 hPa 0,0 l/m 8,2 km/h (2 Bft) N-NW 340 0 min 0,0 UV-I 19 W/m -3,8 C -3,8 C 12,9 km/h (3 Bft)
15.01.2021 16:38 -1,9 C -2,2 C 87 % 1030,4 hPa 0,0 l/m 10,4 km/h (2 Bft) N-NW 343 0 min 0,0 UV-I 14 W/m -3,8 C -5,9 C 14,5 km/h (3 Bft)
15.01.2021 16:40 -2,0 C -2,2 C 88 % 1030,5 hPa 0,0 l/m 14,1 km/h (3 Bft) N-NW 342 0 min 0,0 UV-I 11 W/m -3,7 C -8,8 C 17,7 km/h (3 Bft)
15.01.2021 16:42 -2,0 C -2,2 C 88 % 1030,5 hPa 0,0 l/m 12,0 km/h (2 Bft) N-NW 336 0 min 0,0 UV-I 8 W/m -3,7 C -7,3 C 17,7 km/h (3 Bft)
15.01.2021 16:44 -2,1 C -2,2 C 88 % 1030,5 hPa 0,0 l/m 11,1 km/h (2 Bft) N-NW 342 0 min 0,0 UV-I 6 W/m -3,8 C -6,7 C 16,1 km/h (3 Bft)
15.01.2021 16:46 -2,1 C -2,2 C 88 % 1030,5 hPa 0,0 l/m 6,6 km/h (2 Bft) N-NW 348 0 min 0,0 UV-I 5 W/m -3,8 C -2,3 C 9,7 km/h (2 Bft)
15.01.2021 16:48 -2,1 C -2,2 C 88 % 1030,5 hPa 0,0 l/m 10,2 km/h (2 Bft) N-NW 343 0 min 0,0 UV-I 5 W/m -3,8 C -5,9 C 14,5 km/h (3 Bft)
15.01.2021 16:50 -2,1 C -2,2 C 88 % 1030,5 hPa 0,0 l/m 11,4 km/h (2 Bft) N-NW 337 0 min 0,0 UV-I 2 W/m -3,8 C -6,9 C 16,1 km/h (3 Bft)
15.01.2021 16:52 -2,2 C -2,2 C 88 % 1030,5 hPa 0,0 l/m 13,1 km/h (3 Bft) N-NW 343 0 min 0,0 UV-I 0 W/m -3,9 C -8,4 C 19,3 km/h (3 Bft)
15.01.2021 16:54 -2,2 C -2,2 C 88 % 1030,5 hPa 0,0 l/m 12,4 km/h (3 Bft) W 281 0 min 0,0 UV-I 0 W/m -3,9 C -7,8 C 19,3 km/h (3 Bft)
15.01.2021 16:56 -2,2 C -2,2 C 88 % 1030,6 hPa 0,0 l/m 10,6 km/h (2 Bft) N-NW 346 0 min 0,0 UV-I 0 W/m -3,9 C -6,4 C 14,5 km/h (3 Bft)
15.01.2021 16:58 -2,2 C -2,2 C 88 % 1030,6 hPa 0,0 l/m 11,1 km/h (2 Bft) N 355 0 min 0,0 UV-I 0 W/m -3,9 C -6,8 C 14,5 km/h (3 Bft)
15.01.2021 17:00 -2,2 C -2,2 C 88 % 1030,6 hPa 0,0 l/m 12,8 km/h (3 Bft) N-NW 348 0 min 0,0 UV-I 0 W/m -3,9 C -8,1 C 17,7 km/h (3 Bft)
15.01.2021 17:02 -2,2 C -2,2 C 88 % 1030,6 hPa 0,0 l/m 10,9 km/h (2 Bft) N 360 0 min 0,0 UV-I 0 W/m -3,9 C -6,7 C 16,1 km/h (3 Bft)
15.01.2021 17:04 -2,2 C -2,2 C 89 % 1030,6 hPa 0,0 l/m 8,7 km/h (2 Bft) N 5 0 min 0,0 UV-I 0 W/m -3,8 C -4,7 C 14,5 km/h (3 Bft)
15.01.2021 17:06 -2,2 C -2,2 C 89 % 1030,6 hPa 0,0 l/m 6,4 km/h (2 Bft) N-NW 342 0 min 0,0 UV-I 0 W/m -3,8 C -2,2 C 8,0 km/h (2 Bft)
15.01.2021 17:08 -2,2 C -2,2 C 89 % 1030,7 hPa 0,0 l/m 8,8 km/h (2 Bft) N 351 0 min 0,0 UV-I 0 W/m -3,8 C -4,8 C 12,9 km/h (3 Bft)
15.01.2021 17:10 -2,3 C -2,2 C 89 % 1030,7 hPa 0,0 l/m 12,2 km/h (2 Bft) N 355 0 min 0,0 UV-I 0 W/m -3,9 C -7,8 C 16,1 km/h (3 Bft)
15.01.2021 17:12 -2,3 C -2,2 C 89 % 1030,7 hPa 0,0 l/m 11,6 km/h (2 Bft) N-NW 344 0 min 0,0 UV-I 0 W/m -3,9 C -7,3 C 17,7 km/h (3 Bft)
15.01.2021 17:14 -2,3 C -2,2 C 89 % 1030,6 hPa 0,0 l/m 11,6 km/h (2 Bft) N-NW 343 0 min 0,0 UV-I 0 W/m -3,9 C -7,3 C 16,1 km/h (3 Bft)
15.01.2021 17:16 -2,3 C -2,2 C 89 % 1030,7 hPa 0,0 l/m 8,2 km/h (2 Bft) N-NO 14 0 min 0,0 UV-I 0 W/m -3,9 C -4,3 C 14,5 km/h (3 Bft)
15.01.2021 17:18 -2,3 C -2,2 C 89 % 1030,5 hPa 0,0 l/m 8,6 km/h (2 Bft) N-NW 327 0 min 0,0 UV-I 0 W/m -3,9 C -4,7 C 14,5 km/h (3 Bft)
15.01.2021 17:20 -2,3 C -2,2 C 89 % 1030,6 hPa 0,0 l/m 12,5 km/h (3 Bft) N 360 0 min 0,0 UV-I 0 W/m -3,9 C -8,0 C 17,7 km/h (3 Bft)
15.01.2021 17:22 -2,3 C -2,2 C 89 % 1030,6 hPa 0,0 l/m 8,8 km/h (2 Bft) N 355 0 min 0,0 UV-I 0 W/m -3,9 C -4,9 C 12,9 km/h (3 Bft)
15.01.2021 17:24 -2,3 C -2,2 C 89 % 1030,6 hPa 0,0 l/m 9,9 km/h (2 Bft) N 355 0 min 0,0 UV-I 0 W/m -3,9 C -5,9 C 14,5 km/h (3 Bft)
15.01.2021 17:26 -2,3 C -2,2 C 89 % 1030,7 hPa 0,0 l/m 8,7 km/h (2 Bft) N-NW 336 0 min 0,0 UV-I 0 W/m -3,9 C -4,8 C 14,5 km/h (3 Bft)
15.01.2021 17:28 -2,3 C -2,2 C 89 % 1030,6 hPa 0,0 l/m 8,0 km/h (2 Bft) N-NW 348 0 min 0,0 UV-I 0 W/m -3,9 C -4,1 C 12,9 km/h (3 Bft)
15.01.2021 17:30 -2,3 C -2,2 C 89 % 1030,7 hPa 0,0 l/m 10,0 km/h (2 Bft) N 351 0 min 0,0 UV-I 0 W/m -3,9 C -6,0 C 14,5 km/h (3 Bft)
15.01.2021 17:32 -2,3 C -2,2 C 90 % 1030,6 hPa 0,0 l/m 9,5 km/h (2 Bft) N 355 0 min 0,0 UV-I 0 W/m -3,7 C -5,5 C 12,9 km/h (3 Bft)
15.01.2021 17:34 -2,3 C -2,2 C 90 % 1030,6 hPa 0,0 l/m 7,1 km/h (2 Bft) N 9 0 min 0,0 UV-I 0 W/m -3,7 C -3,1 C 12,9 km/h (3 Bft)
15.01.2021 17:36 -2,3 C -2,2 C 90 % 1030,6 hPa 0,0 l/m 7,1 km/h (2 Bft) N 5 0 min 0,0 UV-I 0 W/m -3,7 C -3,1 C 12,9 km/h (3 Bft)
15.01.2021 17:38 -2,3 C -2,2 C 90 % 1030,7 hPa 0,0 l/m 6,3 km/h (2 Bft) N 349 0 min 0,0 UV-I 0 W/m -3,7 C -2,3 C 11,3 km/h (2 Bft)
15.01.2021 17:40 -2,3 C -2,2 C 90 % 1030,7 hPa 0,0 l/m 5,8 km/h (2 Bft) N 360 0 min 0,0 UV-I 0 W/m -3,7 C -2,3 C 8,0 km/h (2 Bft)
15.01.2021 17:42 -2,4 C -2,2 C 90 % 1030,7 hPa 0,0 l/m 2,7 km/h (1 Bft) NW 315 0 min 0,0 UV-I 0 W/m -3,8 C -2,4 C 6,4 km/h (2 Bft)
15.01.2021 17:44 -2,4 C -2,2 C 90 % 1030,7 hPa 0,0 l/m 7,1 km/h (2 Bft) N-NW 342 0 min 0,0 UV-I 0 W/m -3,8 C -3,2 C 14,5 km/h (3 Bft)
15.01.2021 17:46 -2,4 C -2,2 C 90 % 1030,7 hPa 0,0 l/m 7,9 km/h (2 Bft) N-NW 346 0 min 0,0 UV-I 0 W/m -3,8 C -4,1 C 12,9 km/h (3 Bft)
15.01.2021 17:48 -2,4 C -2,2 C 90 % 1030,7 hPa 0,0 l/m 6,5 km/h (2 Bft) N 349 0 min 0,0 UV-I 0 W/m -3,8 C -2,5 C 9,7 km/h (2 Bft)
15.01.2021 17:50 -2,3 C -2,2 C 90 % 1030,7 hPa 0,0 l/m 7,3 km/h (2 Bft) N 355 0 min 0,0 UV-I 0 W/m -3,7 C -3,3 C 9,7 km/h (2 Bft)
15.01.2021 17:52 -2,3 C -2,2 C 90 % 1030,7 hPa 0,0 l/m 7,3 km/h (2 Bft) N 5 0 min 0,0 UV-I 0 W/m -3,7 C -3,3 C 9,7 km/h (2 Bft)
15.01.2021 17:54 -2,3 C -2,2 C 90 % 1030,7 hPa 0,0 l/m 5,6 km/h (1 Bft) N-NW 340 0 min 0,0 UV-I 0 W/m -3,7 C -2,3 C 12,9 km/h (3 Bft)
15.01.2021 17:56 -2,3 C -2,2 C 90 % 1030,7 hPa 0,0 l/m 4,4 km/h (1 Bft) N 350 0 min 0,0 UV-I 0 W/m -3,7 C -2,3 C 8,0 km/h (2 Bft)
15.01.2021 17:58 -2,3 C -2,2 C 90 % 1030,7 hPa 0,0 l/m 5,0 km/h (1 Bft) N 351 0 min 0,0 UV-I 0 W/m -3,7 C -2,3 C 9,7 km/h (2 Bft)
15.01.2021 18:00 -2,3 C -2,2 C 90 % 1030,7 hPa 0,0 l/m 3,0 km/h (1 Bft) NW 318 0 min 0,0 UV-I 0 W/m -3,7 C -2,3 C 4,8 km/h (1 Bft)
15.01.2021 18:02 -2,3 C -2,2 C 90 % 1030,7 hPa 0,0 l/m 2,7 km/h (1 Bft) NW 305 0 min 0,0 UV-I 0 W/m -3,7 C -2,3 C 4,8 km/h (1 Bft)
15.01.2021 18:04 -2,3 C -2,2 C 90 % 1030,7 hPa 0,0 l/m 4,1 km/h (1 Bft) NW 316 0 min 0,0 UV-I 0 W/m -3,7 C -2,3 C 6,4 km/h (2 Bft)
15.01.2021 18:06 -2,3 C -2,2 C 90 % 1030,7 hPa 0,0 l/m 6,0 km/h (2 Bft) W-NW 297 0 min 0,0 UV-I 0 W/m -3,7 C -2,3 C 8,0 km/h (2 Bft)
15.01.2021 18:08 -2,3 C -2,2 C 90 % 1030,7 hPa 0,0 l/m 8,2 km/h (2 Bft) N 349 0 min 0,0 UV-I 0 W/m -3,7 C -4,3 C 14,5 km/h (3 Bft)
15.01.2021 18:10 -2,3 C -2,2 C 90 % 1030,7 hPa 0,0 l/m 7,9 km/h (2 Bft) N 355 0 min 0,0 UV-I 0 W/m -3,7 C -4,0 C 9,7 km/h (2 Bft)
15.01.2021 18:12 -2,3 C -2,2 C 90 % 1030,8 hPa 0,0 l/m 7,8 km/h (2 Bft) N-NW 338 0 min 0,0 UV-I 0 W/m -3,7 C -3,8 C 14,5 km/h (3 Bft)
15.01.2021 18:14 -2,3 C -2,2 C 89 % 1030,8 hPa 0,0 l/m 5,9 km/h (2 Bft) N 349 0 min 0,0 UV-I 0 W/m -3,9 C -2,3 C 8,0 km/h (2 Bft)
15.01.2021 18:16 -2,3 C -2,2 C 89 % 1030,7 hPa 0,0 l/m 6,9 km/h (2 Bft) N 360 0 min 0,0 UV-I 0 W/m -3,9 C -2,8 C 9,7 km/h (2 Bft)
15.01.2021 18:18 -2,4 C -2,2 C 89 % 1030,7 hPa 0,0 l/m 8,3 km/h (2 Bft) N 355 0 min 0,0 UV-I 0 W/m -4,0 C -4,5 C 9,7 km/h (2 Bft)
15.01.2021 18:20 -2,4 C -2,2 C 89 % 1030,8 hPa 0,0 l/m 8,0 km/h (2 Bft) N-NW 346 0 min 0,0 UV-I 0 W/m -4,0 C -4,2 C 12,9 km/h (3 Bft)
15.01.2021 18:22 -2,4 C -2,2 C 89 % 1030,8 hPa 0,0 l/m 6,0 km/h (2 Bft) N-NW 346 0 min 0,0 UV-I 0 W/m -4,0 C -2,4 C 8,0 km/h (2 Bft)
15.01.2021 18:24 -2,4 C -2,2 C 89 % 1030,7 hPa 0,0 l/m 6,1 km/h (2 Bft) N 350 0 min 0,0 UV-I 0 W/m -4,0 C -2,4 C 9,7 km/h (2 Bft)
15.01.2021 18:26 -2,4 C -2,2 C 89 % 1030,8 hPa 0,0 l/m 7,4 km/h (2 Bft) N-NW 346 0 min 0,0 UV-I 0 W/m -4,0 C -3,5 C 9,7 km/h (2 Bft)
15.01.2021 18:28 -2,3 C -2,2 C 89 % 1030,8 hPa 0,0 l/m 5,6 km/h (1 Bft) N-NW 344 0 min 0,0 UV-I 0 W/m -3,9 C -2,3 C 8,0 km/h (2 Bft)
15.01.2021 18:30 -2,4 C -2,2 C 89 % 1030,7 hPa 0,0 l/m 6,2 km/h (2 Bft) N-NW 345 0 min 0,0 UV-I 0 W/m -4,0 C -2,4 C 8,0 km/h (2 Bft)
15.01.2021 18:32 -2,4 C -2,2 C 89 % 1030,8 hPa 0,0 l/m 6,0 km/h (2 Bft) N-NW 344 0 min 0,0 UV-I 0 W/m -4,0 C -2,4 C 8,0 km/h (2 Bft)
15.01.2021 18:34 -2,4 C -2,2 C 89 % 1030,9 hPa 0,0 l/m 3,0 km/h (1 Bft) N 355 0 min 0,0 UV-I 0 W/m -4,0 C -2,4 C 8,0 km/h (2 Bft)
15.01.2021 18:36 -2,4 C -2,2 C 89 % 1030,9 hPa 0,0 l/m 2,8 km/h (1 Bft) N 350 0 min 0,0 UV-I 0 W/m -4,0 C -2,4 C 4,8 km/h (1 Bft)
15.01.2021 18:38 -2,4 C -2,2 C 89 % 1030,9 hPa 0,0 l/m 5,6 km/h (1 Bft) N 9 0 min 0,0 UV-I 0 W/m -4,0 C -2,4 C 12,9 km/h (3 Bft)
15.01.2021 18:40 -2,4 C -2,2 C 89 % 1031,0 hPa 0,0 l/m 7,1 km/h (2 Bft) NW 319 0 min 0,0 UV-I 0 W/m -4,0 C -3,2 C 9,7 km/h (2 Bft)
15.01.2021 18:42 -2,4 C -2,2 C 89 % 1031,0 hPa 0,0 l/m 6,3 km/h (2 Bft) N-NW 348 0 min 0,0 UV-I 0 W/m -4,0 C -2,4 C 12,9 km/h (3 Bft)
15.01.2021 18:44 -2,4 C -2,2 C 89 % 1030,8 hPa 0,0 l/m 6,3 km/h (2 Bft) NW 313 0 min 0,0 UV-I 0 W/m -4,0 C -2,4 C 9,7 km/h (2 Bft)
15.01.2021 18:46 -2,4 C -2,2 C 89 % 1031,0 hPa 0,0 l/m 5,1 km/h (1 Bft) N-NW 333 0 min 0,0 UV-I 0 W/m -4,0 C -2,4 C 8,0 km/h (2 Bft)
15.01.2021 18:48 -2,4 C -2,2 C 89 % 1031,1 hPa 0,0 l/m 2,8 km/h (1 Bft) N-NW 332 0 min 0,0 UV-I 0 W/m -4,0 C -2,4 C 4,8 km/h (1 Bft)
15.01.2021 18:50 -2,4 C -2,2 C 89 % 1031,1 hPa 0,0 l/m 3,6 km/h (1 Bft) N-NW 329 0 min 0,0 UV-I 0 W/m -4,0 C -2,4 C 6,4 km/h (2 Bft)
15.01.2021 18:52 -2,4 C -2,2 C 89 % 1031,1 hPa 0,0 l/m 4,8 km/h (1 Bft) N-NW 340 0 min 0,0 UV-I 0 W/m -4,0 C -2,4 C 8,0 km/h (2 Bft)
15.01.2021 18:54 -2,4 C -2,2 C 89 % 1031,1 hPa 0,0 l/m 2,4 km/h (1 Bft) N-NW 340 0 min 0,0 UV-I 0 W/m -4,0 C -2,4 C 4,8 km/h (1 Bft)
15.01.2021 18:56 -2,4 C -2,2 C 89 % 1031,1 hPa 0,0 l/m 3,3 km/h (1 Bft) N-NW 331 0 min 0,0 UV-I 0 W/m -4,0 C -2,4 C 4,8 km/h (1 Bft)
15.01.2021 18:58 -2,4 C -2,2 C 90 % 1031,1 hPa 0,0 l/m 3,4 km/h (1 Bft) NW 315 0 min 0,0 UV-I 0 W/m -3,8 C -2,4 C 6,4 km/h (2 Bft)
15.01.2021 19:00 -2,4 C -2,2 C 90 % 1031,1 hPa 0,0 l/m 6,2 km/h (2 Bft) N-NW 348 0 min 0,0 UV-I 0 W/m -3,8 C -2,4 C 12,9 km/h (3 Bft)
15.01.2021 19:02 -2,4 C -2,2 C 90 % 1031,1 hPa 0,0 l/m 5,5 km/h (1 Bft) N-NW 336 0 min 0,0 UV-I 0 W/m -3,8 C -2,4 C 8,0 km/h (2 Bft)
15.01.2021 19:04 -2,4 C -2,2 C 90 % 1031,1 hPa 0,0 l/m 6,0 km/h (2 Bft) N-NW 342 0 min 0,0 UV-I 0 W/m -3,8 C -2,4 C 12,9 km/h (3 Bft)
15.01.2021 19:06 -2,5 C -2,2 C 90 % 1031,1 hPa 0,0 l/m 3,6 km/h (1 Bft) NW 319 0 min 0,0 UV-I 0 W/m -3,9 C -2,5 C 4,8 km/h (1 Bft)
15.01.2021 19:08 -2,5 C -2,2 C 89 % 1031,1 hPa 0,0 l/m 3,9 km/h (1 Bft) N-NW 335 0 min 0,0 UV-I 0 W/m -4,1 C -2,5 C 6,4 km/h (2 Bft)
15.01.2021 19:10 -2,4 C -2,2 C 90 % 1031,1 hPa 0,0 l/m 3,0 km/h (1 Bft) N-NW 333 0 min 0,0 UV-I 0 W/m -3,8 C -2,4 C 4,8 km/h (1 Bft)
15.01.2021 19:12 -2,5 C -2,2 C 90 % 1031,0 hPa 0,0 l/m 3,3 km/h (1 Bft) NW 319 0 min 0,0 UV-I 0 W/m -3,9 C -2,5 C 6,4 km/h (2 Bft)
15.01.2021 19:14 -2,5 C -2,2 C 90 % 1031,1 hPa 0,0 l/m 3,2 km/h (1 Bft) NW 321 0 min 0,0 UV-I 0 W/m -3,9 C -2,5 C 4,8 km/h (1 Bft)
15.01.2021 19:16 -2,6 C -2,2 C 90 % 1031,0 hPa 0,0 l/m 2,7 km/h (1 Bft) NW 321 0 min 0,0 UV-I 0 W/m -4,0 C -2,6 C 4,8 km/h (1 Bft)
15.01.2021 19:18 -2,6 C -2,2 C 90 % 1031,1 hPa 0,0 l/m 0,7 km/h (0 Bft) NW 321 0 min 0,0 UV-I 0 W/m -4,0 C -2,6 C 3,2 km/h (1 Bft)
15.01.2021 19:20 -2,6 C -2,2 C 90 % 1031,0 hPa 0,0 l/m 2,3 km/h (1 Bft) NW 321 0 min 0,0 UV-I 0 W/m -4,0 C -2,6 C 3,2 km/h (1 Bft)
15.01.2021 19:22 -2,6 C -2,8 C 90 % 1031,1 hPa 0,0 l/m 2,2 km/h (1 Bft) NW 321 0 min 0,0 UV-I 0 W/m -4,0 C -2,6 C 4,8 km/h (1 Bft)
15.01.2021 19:24 -2,6 C -2,8 C 90 % 1031,1 hPa 0,0 l/m 3,4 km/h (1 Bft) N-NW 328 0 min 0,0 UV-I 0 W/m -4,0 C -2,6 C 6,4 km/h (2 Bft)
15.01.2021 19:26 -2,6 C -2,2 C 90 % 1031,1 hPa 0,0 l/m 2,8 km/h (1 Bft) N-NW 328 0 min 0,0 UV-I 0 W/m -4,0 C -2,6 C 4,8 km/h (1 Bft)
15.01.2021 19:28 -2,6 C -2,8 C 90 % 1031,1 hPa 0,0 l/m 0,8 km/h (0 Bft) N-NW 327 0 min 0,0 UV-I 0 W/m -4,0 C -2,6 C 3,2 km/h (1 Bft)
15.01.2021 19:30 -2,6 C -2,8 C 90 % 1031,1 hPa 0,0 l/m 2,8 km/h (1 Bft) W-NW 303 0 min 0,0 UV-I 0 W/m -4,0 C -2,6 C 6,4 km/h (2 Bft)
15.01.2021 19:32 -2,6 C -2,8 C 90 % 1031,1 hPa 0,0 l/m 2,9 km/h (1 Bft) N-NW 329 0 min 0,0 UV-I 0 W/m -4,0 C -2,6 C 4,8 km/h (1 Bft)
15.01.2021 19:34 -2,6 C -2,8 C 90 % 1031,1 hPa 0,0 l/m 2,5 km/h (1 Bft) N-NW 329 0 min 0,0 UV-I 0 W/m -4,0 C -2,6 C 4,8 km/h (1 Bft)
15.01.2021 19:36 -2,6 C -2,8 C 90 % 1031,0 hPa 0,0 l/m 0,9 km/h (0 Bft) N-NW 329 0 min 0,0 UV-I 0 W/m -4,0 C -2,6 C 3,2 km/h (1 Bft)
15.01.2021 19:38 -2,7 C -2,8 C 90 % 1031,1 hPa 0,0 l/m 2,8 km/h (1 Bft) N-NW 336 0 min 0,0 UV-I 0 W/m -4,1 C -2,7 C 4,8 km/h (1 Bft)
15.01.2021 19:40 -2,7 C -2,8 C 90 % 1031,1 hPa 0,0 l/m 5,0 km/h (1 Bft) NW 322 0 min 0,0 UV-I 0 W/m -4,1 C -2,7 C 8,0 km/h (2 Bft)
15.01.2021 19:42 -2,7 C -2,8 C 90 % 1031,1 hPa 0,0 l/m 2,1 km/h (1 Bft) NW 322 0 min 0,0 UV-I 0 W/m -4,1 C -2,7 C 3,2 km/h (1 Bft)
15.01.2021 19:44 -2,7 C -2,8 C 90 % 1031,0 hPa 0,0 l/m 2,9 km/h (1 Bft) N-NW 338 0 min 0,0 UV-I 0 W/m -4,1 C -2,7 C 6,4 km/h (2 Bft)
15.01.2021 19:46 -2,7 C -2,8 C 90 % 1031,1 hPa 0,0 l/m 4,5 km/h (1 Bft) N-NW 328 0 min 0,0 UV-I 0 W/m -4,1 C -2,7 C 8,0 km/h (2 Bft)
15.01.2021 19:48 -2,7 C -2,8 C 90 % 1031,1 hPa 0,0 l/m 3,0 km/h (1 Bft) N-NW 328 0 min 0,0 UV-I 0 W/m -4,1 C -2,7 C 4,8 km/h (1 Bft)
15.01.2021 19:50 -2,7 C -2,8 C 90 % 1031,0 hPa 0,0 l/m 3,4 km/h (1 Bft) N-NW 333 0 min 0,0 UV-I 0 W/m -4,1 C -2,7 C 6,4 km/h (2 Bft)
15.01.2021 19:52 -2,7 C -2,8 C 90 % 1031,0 hPa 0,0 l/m 1,5 km/h (1 Bft) N-NW 333 0 min 0,0 UV-I 0 W/m -4,1 C -2,7 C 4,8 km/h (1 Bft)
15.01.2021 19:54 -2,7 C -2,8 C 90 % 1031,1 hPa 0,0 l/m 2,8 km/h (1 Bft) N-NW 333 0 min 0,0 UV-I 0 W/m -4,1 C -2,7 C 4,8 km/h (1 Bft)
15.01.2021 19:56 -2,7 C -2,8 C 90 % 1031,1 hPa 0,0 l/m 3,0 km/h (1 Bft) N-NW 329 0 min 0,0 UV-I 0 W/m -4,1 C -2,7 C 6,4 km/h (2 Bft)
15.01.2021 19:58 -2,7 C -2,8 C 90 % 1031,0 hPa 0,0 l/m 3,6 km/h (1 Bft) N-NW 333 0 min 0,0 UV-I 0 W/m -4,1 C -2,7 C 8,0 km/h (2 Bft)
15.01.2021 20:00 -2,6 C -2,8 C 90 % 1031,1 hPa 0,0 l/m 3,4 km/h (1 Bft) N-NW 331 0 min 0,0 UV-I 0 W/m -4,0 C -2,6 C 6,4 km/h (2 Bft)
15.01.2021 20:02 -2,6 C -2,8 C 90 % 1031,2 hPa 0,0 l/m 3,6 km/h (1 Bft) N-NW 329 0 min 0,0 UV-I 0 W/m -4,0 C -2,6 C 6,4 km/h (2 Bft)
15.01.2021 20:04 -2,6 C -2,2 C 90 % 1031,1 hPa 0,0 l/m 3,3 km/h (1 Bft) NW 319 0 min 0,0 UV-I 0 W/m -4,0 C -2,6 C 6,4 km/h (2 Bft)
15.01.2021 20:06 -2,7 C -2,8 C 90 % 1031,1 hPa 0,0 l/m 2,0 km/h (1 Bft) NW 319 0 min 0,0 UV-I 0 W/m -4,1 C -2,7 C 4,8 km/h (1 Bft)
15.01.2021 20:08 -2,7 C -2,8 C 90 % 1031,1 hPa 0,0 l/m 4,1 km/h (1 Bft) NW 325 0 min 0,0 UV-I 0 W/m -4,1 C -2,7 C 6,4 km/h (2 Bft)
15.01.2021 20:10 -2,6 C -2,8 C 90 % 1031,2 hPa 0,0 l/m 4,7 km/h (1 Bft) W-NW 302 0 min 0,0 UV-I 0 W/m -4,0 C -2,6 C 8,0 km/h (2 Bft)
15.01.2021 20:12 -2,7 C -2,8 C 90 % 1031,2 hPa 0,0 l/m 2,6 km/h (1 Bft) W-NW 302 0 min 0,0 UV-I 0 W/m -4,1 C -2,7 C 3,2 km/h (1 Bft)
15.01.2021 20:14 -2,7 C -2,8 C 90 % 1031,1 hPa 0,0 l/m 2,8 km/h (1 Bft) W-NW 292 0 min 0,0 UV-I 0 W/m -4,1 C -2,7 C 4,8 km/h (1 Bft)
15.01.2021 20:16 -2,7 C -2,8 C 90 % 1031,1 hPa 0,0 l/m 1,2 km/h (1 Bft) W-NW 292 0 min 0,0 UV-I 0 W/m -4,1 C -2,7 C 3,2 km/h (1 Bft)
15.01.2021 20:18 -2,7 C -2,8 C 90 % 1031,1 hPa 0,0 l/m 0,2 km/h (0 Bft) W-NW 292 0 min 0,0 UV-I 0 W/m -4,1 C -2,7 C 1,6 km/h (1 Bft)
15.01.2021 20:20 -2,7 C -2,8 C 90 % 1031,1 hPa 0,0 l/m 0,0 km/h (0 Bft) W-NW 292 0 min 0,0 UV-I 0 W/m -4,1 C -2,7 C 1,6 km/h (1 Bft)
15.01.2021 20:22 -2,7 C -2,8 C 90 % 1031,0 hPa 0,0 l/m 0,1 km/h (0 Bft) W-NW 292 0 min 0,0 UV-I 0 W/m -4,1 C -2,7 C 1,6 km/h (1 Bft)
15.01.2021 20:24 -2,7 C -2,8 C 90 % 1031,0 hPa 0,0 l/m 1,6 km/h (1 Bft) W-NW 292 0 min 0,0 UV-I 0 W/m -4,1 C -2,7 C 3,2 km/h (1 Bft)
15.01.2021 20:26 -2,7 C -2,8 C 90 % 1031,0 hPa 0,0 l/m 0,9 km/h (0 Bft) W-NW 292 0 min 0,0 UV-I 0 W/m -4,1 C -2,7 C 3,2 km/h (1 Bft)
15.01.2021 20:28 -2,7 C -2,8 C 90 % 1031,1 hPa 0,0 l/m 0,6 km/h (0 Bft) W-NW 292 0 min 0,0 UV-I 0 W/m -4,1 C -2,7 C 1,6 km/h (1 Bft)
15.01.2021 20:30 -2,7 C -2,8 C 90 % 1031,0 hPa 0,0 l/m 0,6 km/h (0 Bft) W-NW 292 0 min 0,0 UV-I 0 W/m -4,1 C -2,7 C 1,6 km/h (1 Bft)
15.01.2021 20:32 -2,7 C -2,8 C 90 % 1031,1 hPa 0,0 l/m 0,4 km/h (0 Bft) W-NW 292 0 min 0,0 UV-I 0 W/m -4,1 C -2,7 C 1,6 km/h (1 Bft)
15.01.2021 20:34 -2,7 C -2,8 C 90 % 1031,1 hPa 0,0 l/m 0,8 km/h (0 Bft) W-NW 292 0 min 0,0 UV-I 0 W/m -4,1 C -2,7 C 1,6 km/h (1 Bft)
15.01.2021 20:36 -2,7 C -2,8 C 90 % 1031,0 hPa 0,0 l/m 0,7 km/h (0 Bft) W-NW 292 0 min 0,0 UV-I 0 W/m -4,1 C -2,7 C 3,2 km/h (1 Bft)
15.01.2021 20:38 -2,7 C -2,8 C 90 % 1031,1 hPa 0,0 l/m 3,0 km/h (1 Bft) W-NW 292 0 min 0,0 UV-I 0 W/m -4,1 C -2,7 C 4,8 km/h (1 Bft)
15.01.2021 20:40 -2,7 C -3,3 C 90 % 1031,1 hPa 0,0 l/m 1,0 km/h (0 Bft) W-NW 292 0 min 0,0 UV-I 0 W/m -4,1 C -2,7 C 3,2 km/h (1 Bft)
15.01.2021 20:42 -2,8 C -2,8 C 90 % 1031,1 hPa 0,0 l/m 0,8 km/h (0 Bft) W-NW 292 0 min 0,0 UV-I 0 W/m -4,2 C -2,8 C 3,2 km/h (1 Bft)
15.01.2021 20:44 -2,8 C -2,8 C 90 % 1031,1 hPa 0,0 l/m 0,5 km/h (0 Bft) W-NW 292 0 min 0,0 UV-I 0 W/m -4,2 C -2,8 C 3,2 km/h (1 Bft)
15.01.2021 20:46 -2,8 C -2,8 C 90 % 1031,1 hPa 0,0 l/m 2,4 km/h (1 Bft) W-NW 292 0 min 0,0 UV-I 0 W/m -4,2 C -2,8 C 4,8 km/h (1 Bft)
15.01.2021 20:48 -2,8 C -2,8 C 90 % 1031,1 hPa 0,0 l/m 0,6 km/h (0 Bft) W-NW 292 0 min 0,0 UV-I 0 W/m -4,2 C -2,8 C 1,6 km/h (1 Bft)
15.01.2021 20:50 -2,8 C -2,8 C 90 % 1031,2 hPa 0,0 l/m 0,4 km/h (0 Bft) W-NW 292 0 min 0,0 UV-I 0 W/m -4,2 C -2,8 C 1,6 km/h (1 Bft)
15.01.2021 20:52 -2,8 C -2,8 C 90 % 1031,1 hPa 0,0 l/m 6,9 km/h (2 Bft) N-NW 338 0 min 0,0 UV-I 0 W/m -4,2 C -3,4 C 14,5 km/h (3 Bft)
15.01.2021 20:54 -2,8 C -2,8 C 89 % 1031,1 hPa 0,0 l/m 5,3 km/h (1 Bft) W-SW 257 0 min 0,0 UV-I 0 W/m -4,4 C -2,8 C 11,3 km/h (2 Bft)
15.01.2021 20:56 -2,8 C -2,8 C 89 % 1031,1 hPa 0,0 l/m 2,8 km/h (1 Bft) W-NW 285 0 min 0,0 UV-I 0 W/m -4,4 C -2,8 C 4,8 km/h (1 Bft)
15.01.2021 20:58 -2,8 C -2,8 C 89 % 1031,2 hPa 0,0 l/m 3,5 km/h (1 Bft) N-NW 328 0 min 0,0 UV-I 0 W/m -4,4 C -2,8 C 8,0 km/h (2 Bft)
15.01.2021 21:00 -2,8 C -2,8 C 89 % 1031,2 hPa 0,0 l/m 6,2 km/h (2 Bft) N-NW 331 0 min 0,0 UV-I 0 W/m -4,4 C -2,8 C 12,9 km/h (3 Bft)
15.01.2021 21:02 -2,8 C -2,8 C 89 % 1031,3 hPa 0,0 l/m 4,7 km/h (1 Bft) N-NW 327 0 min 0,0 UV-I 0 W/m -4,4 C -2,8 C 8,0 km/h (2 Bft)
15.01.2021 21:04 -2,8 C -2,8 C 89 % 1031,2 hPa 0,0 l/m 6,0 km/h (2 Bft) NW 322 0 min 0,0 UV-I 0 W/m -4,4 C -2,8 C 9,7 km/h (2 Bft)
15.01.2021 21:06 -2,8 C -2,8 C 89 % 1031,4 hPa 0,0 l/m 3,2 km/h (1 Bft) N-NW 331 0 min 0,0 UV-I 0 W/m -4,4 C -2,8 C 6,4 km/h (2 Bft)
15.01.2021 21:08 -2,8 C -2,8 C 89 % 1031,3 hPa 0,0 l/m 4,1 km/h (1 Bft) W-NW 303 0 min 0,0 UV-I 0 W/m -4,4 C -2,8 C 12,9 km/h (3 Bft)
15.01.2021 21:10 -2,8 C -2,8 C 89 % 1031,4 hPa 0,0 l/m 4,2 km/h (1 Bft) NW 304 0 min 0,0 UV-I 0 W/m -4,4 C -2,8 C 6,4 km/h (2 Bft)
15.01.2021 21:12 -2,8 C -2,8 C 89 % 1031,3 hPa 0,0 l/m 4,5 km/h (1 Bft) NW 312 0 min 0,0 UV-I 0 W/m -4,4 C -2,8 C 9,7 km/h (2 Bft)
15.01.2021 21:14 -2,8 C -2,8 C 89 % 1031,3 hPa 0,0 l/m 3,5 km/h (1 Bft) NW 325 0 min 0,0 UV-I 0 W/m -4,4 C -2,8 C 8,0 km/h (2 Bft)
15.01.2021 21:16 -2,8 C -2,8 C 89 % 1031,3 hPa 0,0 l/m 2,7 km/h (1 Bft) N-NW 336 0 min 0,0 UV-I 0 W/m -4,4 C -2,8 C 6,4 km/h (2 Bft)
15.01.2021 21:18 -2,8 C -2,8 C 89 % 1031,4 hPa 0,0 l/m 3,0 km/h (1 Bft) NW 316 0 min 0,0 UV-I 0 W/m -4,4 C -2,8 C 6,4 km/h (2 Bft)
15.01.2021 21:20 -2,8 C -2,8 C 89 % 1031,4 hPa 0,0 l/m 3,3 km/h (1 Bft) NW 319 0 min 0,0 UV-I 0 W/m -4,4 C -2,8 C 6,4 km/h (2 Bft)
15.01.2021 21:22 -2,8 C -2,8 C 88 % 1031,3 hPa 0,0 l/m 3,3 km/h (1 Bft) N-NW 332 0 min 0,0 UV-I 0 W/m -4,5 C -2,8 C 8,0 km/h (2 Bft)
15.01.2021 21:24 -2,8 C -2,8 C 88 % 1031,3 hPa 0,0 l/m 5,2 km/h (1 Bft) NW 312 0 min 0,0 UV-I 0 W/m -4,5 C -2,8 C 8,0 km/h (2 Bft)
15.01.2021 21:26 -2,8 C -2,8 C 88 % 1031,4 hPa 0,0 l/m 3,7 km/h (1 Bft) NW 316 0 min 0,0 UV-I 0 W/m -4,5 C -2,8 C 6,4 km/h (2 Bft)
15.01.2021 21:28 -2,8 C -2,8 C 88 % 1031,4 hPa 0,0 l/m 4,9 km/h (1 Bft) NW 319 0 min 0,0 UV-I 0 W/m -4,5 C -2,8 C 6,4 km/h (2 Bft)
15.01.2021 21:30 -2,8 C -2,8 C 88 % 1031,5 hPa 0,0 l/m 4,8 km/h (1 Bft) NW 314 0 min 0,0 UV-I 0 W/m -4,5 C -2,8 C 8,0 km/h (2 Bft)
15.01.2021 21:32 -2,8 C -2,8 C 88 % 1031,5 hPa 0,0 l/m 5,9 km/h (2 Bft) NW 322 0 min 0,0 UV-I 0 W/m -4,5 C -2,8 C 9,7 km/h (2 Bft)
15.01.2021 21:34 -2,8 C -2,8 C 88 % 1031,4 hPa 0,0 l/m 3,6 km/h (1 Bft) N 355 0 min 0,0 UV-I 0 W/m -4,5 C -2,8 C 8,0 km/h (2 Bft)
15.01.2021 21:36 -2,8 C -2,8 C 88 % 1031,5 hPa 0,0 l/m 5,0 km/h (1 Bft) N-NW 348 0 min 0,0 UV-I 0 W/m -4,5 C -2,8 C 9,7 km/h (2 Bft)
15.01.2021 21:38 -2,8 C -2,8 C 88 % 1031,5 hPa 0,0 l/m 6,5 km/h (2 Bft) N-NW 334 0 min 0,0 UV-I 0 W/m -4,5 C -2,9 C 12,9 km/h (3 Bft)
15.01.2021 21:40 -2,8 C -2,8 C 88 % 1031,6 hPa 0,0 l/m 5,2 km/h (1 Bft) N-NW 331 0 min 0,0 UV-I 0 W/m -4,5 C -2,8 C 9,7 km/h (2 Bft)
15.01.2021 21:42 -2,8 C -2,8 C 88 % 1031,6 hPa 0,0 l/m 9,5 km/h (2 Bft) N 355 0 min 0,0 UV-I 0 W/m -4,5 C -6,1 C 14,5 km/h (3 Bft)
15.01.2021 21:44 -2,8 C -2,8 C 88 % 1031,6 hPa 0,0 l/m 7,1 km/h (2 Bft) N-NW 344 0 min 0,0 UV-I 0 W/m -4,5 C -3,6 C 11,3 km/h (2 Bft)
15.01.2021 21:46 -2,8 C -2,8 C 88 % 1031,6 hPa 0,0 l/m 4,4 km/h (1 Bft) N-NW 333 0 min 0,0 UV-I 0 W/m -4,5 C -2,8 C 9,7 km/h (2 Bft)
15.01.2021 21:48 -2,8 C -2,8 C 88 % 1031,6 hPa 0,0 l/m 4,1 km/h (1 Bft) N-NW 342 0 min 0,0 UV-I 0 W/m -4,5 C -2,8 C 6,4 km/h (2 Bft)
15.01.2021 21:50 -2,8 C -2,8 C 88 % 1031,7 hPa 0,0 l/m 4,0 km/h (1 Bft) N 350 0 min 0,0 UV-I 0 W/m -4,5 C -2,8 C 6,4 km/h (2 Bft)
15.01.2021 21:52 -2,8 C -2,8 C 88 % 1031,8 hPa 0,0 l/m 3,4 km/h (1 Bft) NW 325 0 min 0,0 UV-I 0 W/m -4,5 C -2,8 C 6,4 km/h (2 Bft)
15.01.2021 21:54 -2,8 C -2,8 C 88 % 1031,8 hPa 0,0 l/m 5,2 km/h (1 Bft) N 351 0 min 0,0 UV-I 0 W/m -4,5 C -2,8 C 9,7 km/h (2 Bft)
15.01.2021 21:56 -2,8 C -2,8 C 88 % 1031,8 hPa 0,0 l/m 6,8 km/h (2 Bft) N 349 0 min 0,0 UV-I 0 W/m -4,5 C -3,2 C 9,7 km/h (2 Bft)
15.01.2021 21:58 -2,8 C -2,8 C 88 % 1031,8 hPa 0,0 l/m 5,5 km/h (1 Bft) NW 313 0 min 0,0 UV-I 0 W/m -4,5 C -2,8 C 9,7 km/h (2 Bft)
15.01.2021 22:00 -2,8 C -2,8 C 88 % 1031,7 hPa 0,0 l/m 7,8 km/h (2 Bft) N 355 0 min 0,0 UV-I 0 W/m -4,5 C -4,4 C 14,5 km/h (3 Bft)
15.01.2021 22:02 -2,8 C -2,8 C 88 % 1031,8 hPa 0,0 l/m 7,3 km/h (2 Bft) N-NW 340 0 min 0,0 UV-I 0 W/m -4,5 C -3,8 C 14,5 km/h (3 Bft)
15.01.2021 22:04 -2,8 C -2,8 C 88 % 1031,8 hPa 0,0 l/m 5,5 km/h (1 Bft) N-NW 346 0 min 0,0 UV-I 0 W/m -4,5 C -2,8 C 8,0 km/h (2 Bft)
15.01.2021 22:06 -2,8 C -2,8 C 88 % 1031,8 hPa 0,0 l/m 5,1 km/h (1 Bft) N-NW 346 0 min 0,0 UV-I 0 W/m -4,5 C -2,8 C 8,0 km/h (2 Bft)
15.01.2021 22:08 -2,8 C -2,8 C 88 % 1031,8 hPa 0,0 l/m 8,6 km/h (2 Bft) N 360 0 min 0,0 UV-I 0 W/m -4,5 C -5,2 C 16,1 km/h (3 Bft)
15.01.2021 22:10 -2,8 C -2,8 C 88 % 1031,9 hPa 0,0 l/m 7,2 km/h (2 Bft) N 355 0 min 0,0 UV-I 0 W/m -4,5 C -3,7 C 14,5 km/h (3 Bft)
15.01.2021 22:12 -2,8 C -2,8 C 88 % 1031,8 hPa 0,0 l/m 6,9 km/h (2 Bft) N 5 0 min 0,0 UV-I 0 W/m -4,5 C -3,4 C 9,7 km/h (2 Bft)
15.01.2021 22:14 -2,8 C -2,8 C 88 % 1031,8 hPa 0,0 l/m 5,3 km/h (1 Bft) N-NW 337 0 min 0,0 UV-I 0 W/m -4,5 C -2,8 C 9,7 km/h (2 Bft)
15.01.2021 22:16 -2,8 C -2,8 C 88 % 1031,8 hPa 0,0 l/m 4,5 km/h (1 Bft) N 351 0 min 0,0 UV-I 0 W/m -4,5 C -2,8 C 8,0 km/h (2 Bft)
15.01.2021 22:18 -2,8 C -2,8 C 88 % 1031,8 hPa 0,0 l/m 5,0 km/h (1 Bft) NW 323 0 min 0,0 UV-I 0 W/m -4,5 C -2,8 C 9,7 km/h (2 Bft)
15.01.2021 22:20 -2,8 C -2,8 C 88 % 1031,9 hPa 0,0 l/m 5,3 km/h (1 Bft) N-NW 346 0 min 0,0 UV-I 0 W/m -4,5 C -2,8 C 8,0 km/h (2 Bft)
15.01.2021 22:22 -2,8 C -2,8 C 88 % 1031,8 hPa 0,0 l/m 6,1 km/h (2 Bft) N-NW 332 0 min 0,0 UV-I 0 W/m -4,5 C -2,8 C 8,0 km/h (2 Bft)
15.01.2021 22:24 -2,9 C -2,8 C 88 % 1031,8 hPa 0,0 l/m 4,8 km/h (1 Bft) N-NW 340 0 min 0,0 UV-I 0 W/m -4,6 C -2,9 C 6,4 km/h (2 Bft)
15.01.2021 22:26 -2,8 C -2,8 C 87 % 1031,7 hPa 0,0 l/m 7,9 km/h (2 Bft) N-NW 336 0 min 0,0 UV-I 0 W/m -4,7 C -4,5 C 12,9 km/h (3 Bft)
15.01.2021 22:28 -2,9 C -2,8 C 87 % 1031,7 hPa 0,0 l/m 10,7 km/h (2 Bft) NW 322 0 min 0,0 UV-I 0 W/m -4,8 C -7,3 C 16,1 km/h (3 Bft)
15.01.2021 22:30 -2,9 C -2,8 C 87 % 1031,8 hPa 0,0 l/m 11,1 km/h (2 Bft) N-NW 343 0 min 0,0 UV-I 0 W/m -4,8 C -7,6 C 16,1 km/h (3 Bft)
15.01.2021 22:32 -2,9 C -2,8 C 87 % 1031,7 hPa 0,0 l/m 10,0 km/h (2 Bft) N-NW 346 0 min 0,0 UV-I 0 W/m -4,8 C -6,7 C 16,1 km/h (3 Bft)
15.01.2021 22:34 -2,9 C -2,8 C 87 % 1031,8 hPa 0,0 l/m 9,0 km/h (2 Bft) N-NW 348 0 min 0,0 UV-I 0 W/m -4,8 C -5,7 C 12,9 km/h (3 Bft)
15.01.2021 22:36 -2,9 C -2,8 C 87 % 1031,7 hPa 0,0 l/m 9,7 km/h (2 Bft) N 355 0 min 0,0 UV-I 0 W/m -4,8 C -6,4 C 12,9 km/h (3 Bft)
15.01.2021 22:38 -2,9 C -2,8 C 87 % 1031,9 hPa 0,0 l/m 8,2 km/h (2 Bft) N-NO 13 0 min 0,0 UV-I 0 W/m -4,8 C -4,9 C 12,9 km/h (3 Bft)
15.01.2021 22:40 -2,9 C -2,8 C 87 % 1031,9 hPa 0,0 l/m 7,6 km/h (2 Bft) N-NW 330 0 min 0,0 UV-I 0 W/m -4,8 C -4,3 C 11,3 km/h (2 Bft)
15.01.2021 22:42 -2,9 C -2,8 C 87 % 1032,0 hPa 0,0 l/m 6,4 km/h (2 Bft) N-NW 332 0 min 0,0 UV-I 0 W/m -4,8 C -2,9 C 9,7 km/h (2 Bft)
15.01.2021 22:44 -2,9 C -2,8 C 87 % 1032,0 hPa 0,0 l/m 6,4 km/h (2 Bft) N 10 0 min 0,0 UV-I 0 W/m -4,8 C -2,9 C 14,5 km/h (3 Bft)
15.01.2021 22:46 -2,9 C -2,8 C 87 % 1032,0 hPa 0,0 l/m 8,9 km/h (2 Bft) N 355 0 min 0,0 UV-I 0 W/m -4,8 C -5,6 C 14,5 km/h (3 Bft)
15.01.2021 22:48 -2,9 C -2,8 C 87 % 1032,0 hPa 0,0 l/m 8,5 km/h (2 Bft) N 355 0 min 0,0 UV-I 0 W/m -4,8 C -5,2 C 14,5 km/h (3 Bft)
15.01.2021 22:50 -2,9 C -2,8 C 87 % 1032,0 hPa 0,0 l/m 8,8 km/h (2 Bft) N 351 0 min 0,0 UV-I 0 W/m -4,8 C -5,5 C 12,9 km/h (3 Bft)
15.01.2021 22:52 -2,9 C -2,8 C 87 % 1032,0 hPa 0,0 l/m 7,4 km/h (2 Bft) N 349 0 min 0,0 UV-I 0 W/m -4,8 C -4,0 C 9,7 km/h (2 Bft)
15.01.2021 22:54 -2,9 C -2,8 C 87 % 1032,0 hPa 0,0 l/m 6,7 km/h (2 Bft) N-NW 337 0 min 0,0 UV-I 0 W/m -4,8 C -3,2 C 12,9 km/h (3 Bft)
15.01.2021 22:56 -2,9 C -2,8 C 87 % 1032,0 hPa 0,0 l/m 4,3 km/h (1 Bft) N-NW 343 0 min 0,0 UV-I 0 W/m -4,8 C -2,9 C 8,0 km/h (2 Bft)
15.01.2021 22:58 -2,9 C -2,8 C 87 % 1032,0 hPa 0,0 l/m 2,0 km/h (1 Bft) N 349 0 min 0,0 UV-I 0 W/m -4,8 C -2,9 C 4,8 km/h (1 Bft)
15.01.2021 23:00 -2,9 C -2,8 C 87 % 1032,0 hPa 0,0 l/m 5,4 km/h (1 Bft) N-NW 343 0 min 0,0 UV-I 0 W/m -4,8 C -2,9 C 8,0 km/h (2 Bft)
15.01.2021 23:02 -2,9 C -2,8 C 87 % 1031,9 hPa 0,0 l/m 6,9 km/h (2 Bft) NW 309 0 min 0,0 UV-I 0 W/m -4,8 C -3,5 C 14,5 km/h (3 Bft)
15.01.2021 23:03 -2,9 C -2,8 C 87 % 1031,9 hPa 0,0 l/m 6,4 km/h (2 Bft) NW 315 0 min 0,0 UV-I 0 W/m -4,8 C -2,9 C 11,3 km/h (2 Bft)
15.01.2021 23:04 -2,9 C -2,8 C 87 % 1031,9 hPa 0,0 l/m 6,4 km/h (2 Bft) N-NW 337 0 min 0,0 UV-I 0 W/m -4,8 C -2,9 C 8,0 km/h (2 Bft)
15.01.2021 23:06 -2,9 C -2,8 C 87 % 1031,8 hPa 0,0 l/m 7,5 km/h (2 Bft) N-NW 344 0 min 0,0 UV-I 0 W/m -4,8 C -4,1 C 8,0 km/h (2 Bft)
15.01.2021 23:08 -2,9 C -2,8 C 87 % 1031,8 hPa 0,0 l/m 6,2 km/h (2 Bft) N 355 0 min 0,0 UV-I 0 W/m -4,8 C -2,9 C 8,0 km/h (2 Bft)
15.01.2021 23:10 -2,9 C -2,8 C 87 % 1031,8 hPa 0,0 l/m 5,4 km/h (1 Bft) N 355 0 min 0,0 UV-I 0 W/m -4,8 C -2,9 C 8,0 km/h (2 Bft)
15.01.2021 23:12 -3,0 C -2,8 C 87 % 1031,9 hPa 0,0 l/m 5,7 km/h (1 Bft) N-NW 348 0 min 0,0 UV-I 0 W/m -4,9 C -3,0 C 8,0 km/h (2 Bft)
15.01.2021 23:14 -2,9 C -2,8 C 87 % 1031,9 hPa 0,0 l/m 4,5 km/h (1 Bft) N 350 0 min 0,0 UV-I 0 W/m -4,8 C -2,9 C 6,4 km/h (2 Bft)
15.01.2021 23:16 -3,0 C -2,8 C 87 % 1031,8 hPa 0,0 l/m 3,7 km/h (1 Bft) N-NW 329 0 min 0,0 UV-I 0 W/m -4,9 C -3,0 C 6,4 km/h (2 Bft)
15.01.2021 23:18 -2,9 C -2,8 C 87 % 1031,9 hPa 0,0 l/m 3,5 km/h (1 Bft) NW 321 0 min 0,0 UV-I 0 W/m -4,8 C -2,9 C 6,4 km/h (2 Bft)
15.01.2021 23:20 -3,0 C -2,8 C 87 % 1031,9 hPa 0,0 l/m 4,0 km/h (1 Bft) N-NW 340 0 min 0,0 UV-I 0 W/m -4,9 C -3,0 C 6,4 km/h (2 Bft)
15.01.2021 23:22 -3,0 C -2,8 C 87 % 1032,1 hPa 0,0 l/m 4,4 km/h (1 Bft) N-NW 339 0 min 0,0 UV-I 0 W/m -4,9 C -3,0 C 6,4 km/h (2 Bft)
15.01.2021 23:24 -2,9 C -2,8 C 87 % 1032,1 hPa 0,0 l/m 2,1 km/h (1 Bft) N-NW 339 0 min 0,0 UV-I 0 W/m -4,8 C -2,9 C 4,8 km/h (1 Bft)
15.01.2021 23:26 -3,0 C -2,8 C 87 % 1032,1 hPa 0,0 l/m 1,8 km/h (1 Bft) N-NW 339 0 min 0,0 UV-I 0 W/m -4,9 C -3,0 C 4,8 km/h (1 Bft)
15.01.2021 23:28 -2,9 C -3,3 C 87 % 1032,2 hPa 0,0 l/m 2,8 km/h (1 Bft) N-NW 339 0 min 0,0 UV-I 0 W/m -4,8 C -2,9 C 4,8 km/h (1 Bft)
15.01.2021 23:30 -3,0 C -3,3 C 87 % 1032,1 hPa 0,0 l/m 1,5 km/h (1 Bft) N-NW 339 0 min 0,0 UV-I 0 W/m -4,9 C -3,0 C 3,2 km/h (1 Bft)
15.01.2021 23:32 -3,0 C -3,3 C 87 % 1032,2 hPa 0,0 l/m 1,3 km/h (1 Bft) N-NW 339 0 min 0,0 UV-I 0 W/m -4,9 C -3,0 C 3,2 km/h (1 Bft)
15.01.2021 23:34 -3,0 C -3,3 C 87 % 1032,2 hPa 0,0 l/m 1,3 km/h (1 Bft) N-NW 339 0 min 0,0 UV-I 0 W/m -4,9 C -3,0 C 3,2 km/h (1 Bft)
15.01.2021 23:36 -3,0 C -3,3 C 87 % 1032,2 hPa 0,0 l/m 2,0 km/h (1 Bft) N-NW 339 0 min 0,0 UV-I 0 W/m -4,9 C -3,0 C 4,8 km/h (1 Bft)
15.01.2021 23:38 -3,0 C -3,3 C 87 % 1032,2 hPa 0,0 l/m 1,6 km/h (1 Bft) N-NW 339 0 min 0,0 UV-I 0 W/m -4,9 C -3,0 C 3,2 km/h (1 Bft)
15.01.2021 23:40 -3,0 C -3,3 C 87 % 1032,2 hPa 0,0 l/m 0,9 km/h (0 Bft) N-NW 339 0 min 0,0 UV-I 0 W/m -4,9 C -3,0 C 1,6 km/h (1 Bft)
15.01.2021 23:42 -3,0 C -3,3 C 87 % 1032,1 hPa 0,0 l/m 0,5 km/h (0 Bft) N-NW 339 0 min 0,0 UV-I 0 W/m -4,9 C -3,0 C 1,6 km/h (1 Bft)
15.01.2021 23:44 -3,1 C -3,3 C 87 % 1032,2 hPa 0,0 l/m 1,6 km/h (1 Bft) N-NW 339 0 min 0,0 UV-I 0 W/m -4,9 C -3,1 C 4,8 km/h (1 Bft)
15.01.2021 23:46 -3,1 C -2,8 C 87 % 1032,1 hPa 0,0 l/m 2,0 km/h (1 Bft) N-NW 339 0 min 0,0 UV-I 0 W/m -4,9 C -3,1 C 3,2 km/h (1 Bft)
15.01.2021 23:48 -3,1 C -3,3 C 87 % 1032,2 hPa 0,0 l/m 2,5 km/h (1 Bft) N-NW 339 0 min 0,0 UV-I 0 W/m -4,9 C -3,1 C 3,2 km/h (1 Bft)
15.01.2021 23:50 -3,1 C -2,8 C 87 % 1032,1 hPa 0,0 l/m 2,0 km/h (1 Bft) N-NW 339 0 min 0,0 UV-I 0 W/m -4,9 C -3,1 C 4,8 km/h (1 Bft)
15.01.2021 23:52 -3,1 C -2,8 C 87 % 1032,0 hPa 0,0 l/m 1,3 km/h (1 Bft) N-NW 339 0 min 0,0 UV-I 0 W/m -4,9 C -3,1 C 3,2 km/h (1 Bft)
15.01.2021 23:54 -3,1 C -2,8 C 87 % 1032,0 hPa 0,0 l/m 1,4 km/h (1 Bft) N-NW 339 0 min 0,0 UV-I 0 W/m -4,9 C -3,1 C 3,2 km/h (1 Bft)
15.01.2021 23:56 -3,1 C -2,8 C 88 % 1032,0 hPa 0,0 l/m 1,4 km/h (1 Bft) N-NW 339 0 min 0,0 UV-I 0 W/m -4,8 C -3,1 C 3,2 km/h (1 Bft)
15.01.2021 23:58 -3,1 C -2,8 C 88 % 1032,0 hPa 0,0 l/m 1,1 km/h (1 Bft) N-NW 339 0 min 0,0 UV-I 0 W/m -4,8 C -3,1 C 3,2 km/h (1 Bft)
15.01.2021 23:59 -3,1 C -2,8 C 88 % 1032,0 hPa 0,0 l/m 0,0 km/h (0 Bft) N-NW 337 0 min 0,0 UV-I 0 W/m -4,8 C -3,1 C 1,6 km/h (1 Bft)
_ Min-Zeit 05:05 04:40 11:24 00:00 - 05:05 - - - - - 05:06 01:27 04:39
Minimum _ -5,7 C -7,2 C 84 % 1020,4 hPa - 0,0 km/h (0 Bft) - - - - - -6,9 C -14,3 C 1,6 km/h (1 Bft)
_ Max-Zeit 12:24 12:16 05:25 23:28 00:00 01:27 - - 11:20 12:22 12:24 14:26 13:04 00:44
Maximum _ -1,1 C 1,1 C 92 % 1032,2 hPa 0,0 l/m 20,9 km/h
NO (4 Bft)
- - 2 min 1,3 UV-I 417 W/m -3,4 C -1,8 C 25,7 km/h
NO (4 Bft)
Durchschnitt _ -3,1 C -2,9 C 88 % 1027,5 hPa #0,0 l/m 9,4 km/h (2 Bft) N-NO - #28 min. 0,8 UV-I 96 W/m -4,7 C -6,6 C 13,8 km/h (3 Bft)